Darstellungsparameter: Aktuell verwendete Einstellungen:
Skalierung der Graphiken ... ?
xyx+y,   Skalierungsfaktor:      Skalierung: Modus: x, Faktor: 1
Darstellungszeitraum ... ?
Vom - - bis: - -   Zeitraum: 07.07.2019 - 06.07.2020
Min/Max/Avg-Anzeige ... ?
Zeige MMA aktuell
Zeige MMA Monat
Zeige MMA alles
Zeige --A aktuell
Zeige --A Monat
Zeige --A alles
Keine MMA-Anzeige
MMA:
Average (ber die Originaldaten)
MMA-Basis: 23.02.2003 - 03.08.2020
Quicknavigation für Darstellung... ?
Tage:      1T, 2T, 3T, 5T -1T -2T -3T -5T +1T +2T +3T +5T
Wochen: 1W, 2W, 3W -1W -2W -3W +1W +2W +3W
Monate: 1M, 3M, 6M -1M -3M -6M +1M +3M +6M
Jahre:    1J, 3J, 5J, 10J -1J -3J -5J -10J +1J +3J +5J +10J
Nutze für die Darstellung ... ?
Originaldaten oder ...
Mittelwerte Minima Maxima auf...
Stundenbasis Tagesbasis Wochenbasis
Monatsbasis Jahresbasis      Datenbasis: Mittelwerte auf Stundenbasis
Darstellen als:
Statistik (Auto) Statistik J:M      Darstellung:
Zur Graphik,    zurück zur Übersicht aller Sensoren.
 
Tabellarische Datenbersicht: ?
 
Sensor: Nr:Datum:Temp:Abs-Feuchte:Windchill:Wind:
Aussen-T/F 1 07-07-2019 00:00:00 18.93333 C 12.04 g/m*3 18.93 C 7.11667 km/h
2 07-07-2019 01:00:00 17.88333 C 11.81 g/m*3 17.88 C 7.39167 km/h
3 07-07-2019 02:00:00 17.33333 C 11 g/m*3 17.33 C 6.175 km/h
4 07-07-2019 03:00:00 17 C 10.94 g/m*3 17 C 4.53333 km/h
5 07-07-2019 04:00:00 16.825 C 10.86 g/m*3 16.83 C 4.94167 km/h
6 07-07-2019 05:00:00 16.47 C 11.07 g/m*3 16.47 C 6.77 km/h
7 07-07-2019 06:00:00 14.96 C 11.51 g/m*3 14.96 C 0.48 km/h
8 07-07-2019 07:00:00 14.65 C 11.66 g/m*3 14.65 C 1.2 km/h
9 07-07-2019 08:00:00 14.28182 C 11.51 g/m*3 14.28 C 0.72727 km/h
10 07-07-2019 09:00:00 14.78333 C 11.92 g/m*3 14.78 C 2.80833 km/h
11 07-07-2019 10:00:00 15.38333 C 11.31 g/m*3 15.38 C 8.60833 km/h
12 07-07-2019 11:00:00 16.50833 C 10.6 g/m*3 16.51 C 9.95833 km/h
13 07-07-2019 12:00:00 17.73333 C 10.22 g/m*3 17.73 C 9.15 km/h
14 07-07-2019 13:00:00 18.5 C 9.88 g/m*3 18.5 C 12.225 km/h
15 07-07-2019 14:00:00 19.25833 C 9.21 g/m*3 19.26 C 12.36667 km/h
16 07-07-2019 15:00:00 20.91667 C 8.84 g/m*3 20.92 C 14.23333 km/h
17 07-07-2019 16:00:00 21.78333 C 8.37 g/m*3 21.78 C 12.88333 km/h
18 07-07-2019 17:00:00 21.475 C 8.3 g/m*3 21.48 C 12.76667 km/h
19 07-07-2019 18:00:00 21.775 C 8.51 g/m*3 21.78 C 13.16667 km/h
20 07-07-2019 19:00:00 21.325 C 8.31 g/m*3 21.33 C 11.29167 km/h
21 07-07-2019 20:00:00 20 C 8.3 g/m*3 20 C 9.54167 km/h
22 07-07-2019 21:00:00 18.65 C 8.39 g/m*3 18.65 C 5.20833 km/h
23 07-07-2019 22:00:00 15.64167 C 8.83 g/m*3 15.64 C 0 km/h
24 07-07-2019 23:00:00 13.85 C 8.83 g/m*3 13.85 C 0.4 km/h
25 08-07-2019 00:00:00 12.875 C 8.72 g/m*3 12.88 C 0.26667 km/h
Sensor: Nr:Datum:Temp:Abs-Feuchte:Windchill:Wind:
Aussen-T/F 26 08-07-2019 01:00:00 11.89167 C 8.6 g/m*3 11.89 C 0 km/h
27 08-07-2019 02:00:00 11.05 C 8.41 g/m*3 11.05 C 0 km/h
28 08-07-2019 03:00:00 10.94167 C 8.33 g/m*3 10.94 C 0.26667 km/h
29 08-07-2019 04:00:00 10.78333 C 8.29 g/m*3 10.78 C 0.53333 km/h
30 08-07-2019 05:00:00 9.89167 C 8.1 g/m*3 9.89 C 0 km/h
31 08-07-2019 06:00:00 9.55833 C 8.18 g/m*3 9.56 C 0 km/h
32 08-07-2019 07:00:00 9.975 C 8.54 g/m*3 9.98 C 0 km/h
33 08-07-2019 08:00:00 11.225 C 9.15 g/m*3 11.23 C 0.53333 km/h
34 08-07-2019 09:00:00 14.18333 C 9.01 g/m*3 14.18 C 8.45 km/h
35 08-07-2019 10:00:00 15.65833 C 8.36 g/m*3 15.66 C 9.28333 km/h
36 08-07-2019 11:00:00 16.14167 C 8.5 g/m*3 16.14 C 10.36667 km/h
37 08-07-2019 12:00:00 16.68333 C 8.46 g/m*3 16.68 C 11.43333 km/h
38 08-07-2019 13:00:00 17.05833 C 8.45 g/m*3 17.06 C 9.69167 km/h
39 08-07-2019 14:00:00 17.33333 C 8.51 g/m*3 17.33 C 8.33333 km/h
40 08-07-2019 15:00:00 17.49167 C 8.62 g/m*3 17.49 C 10.36667 km/h
41 08-07-2019 16:00:00 18.025 C 8.77 g/m*3 18.02 C 9.825 km/h
42 08-07-2019 17:00:00 18.16667 C 8.87 g/m*3 18.17 C 10.36667 km/h
43 08-07-2019 18:00:00 18.04167 C 8.82 g/m*3 18.04 C 9.68333 km/h
44 08-07-2019 19:00:00 17.75833 C 8.79 g/m*3 17.76 C 7.94167 km/h
45 08-07-2019 20:00:00 17.69167 C 8.82 g/m*3 17.69 C 6.025 km/h
46 08-07-2019 21:00:00 16.26667 C 9.01 g/m*3 16.27 C 2.8 km/h
47 08-07-2019 22:00:00 13.975 C 9.01 g/m*3 13.98 C 0 km/h
48 08-07-2019 23:00:00 14.11667 C 9.16 g/m*3 14.12 C 0.53333 km/h
49 09-07-2019 00:00:00 13.29167 C 9.16 g/m*3 13.29 C 0.13333 km/h
50 09-07-2019 01:00:00 12.7 C 9.06 g/m*3 12.7 C 0 km/h
Sensor: Nr:Datum:Temp:Abs-Feuchte:Windchill:Wind:
Aussen-T/F 51 09-07-2019 02:00:00 11.88333 C 8.87 g/m*3 11.88 C 0 km/h
52 09-07-2019 03:00:00 11.11667 C 8.79 g/m*3 11.12 C 0 km/h
53 09-07-2019 04:00:00 10.43333 C 8.53 g/m*3 10.43 C 0 km/h
54 09-07-2019 05:00:00 9.80833 C 8.37 g/m*3 9.81 C 0 km/h
55 09-07-2019 06:00:00 9.725 C 8.43 g/m*3 9.73 C 0 km/h
56 09-07-2019 07:00:00 10.91667 C 9.03 g/m*3 10.92 C 0.8 km/h
57 09-07-2019 08:00:00 12.98333 C 9.22 g/m*3 12.98 C 1.6 km/h
58 09-07-2019 09:00:00 14.2 C 9.26 g/m*3 14.2 C 3.475 km/h
59 09-07-2019 10:00:00 14.9 C 9.01 g/m*3 14.9 C 4.4 km/h
60 09-07-2019 11:00:00 16.09167 C 8.28 g/m*3 16.09 C 9.95 km/h
61 09-07-2019 12:00:00 16.86667 C 8.13 g/m*3 16.87 C 9.55 km/h
62 09-07-2019 13:00:00 17.68333 C 7.9 g/m*3 17.68 C 11.16667 km/h
63 09-07-2019 14:00:00 18.6 C 7.83 g/m*3 18.6 C 11.69167 km/h
64 09-07-2019 15:00:00 19.73333 C 7.81 g/m*3 19.73 C 12.225 km/h
65 09-07-2019 16:00:00 20.475 C 7.77 g/m*3 20.48 C 10.9 km/h
66 09-07-2019 17:00:00 21.725 C 7.55 g/m*3 21.73 C 12.36667 km/h
67 09-07-2019 18:00:00 21.06667 C 7.31 g/m*3 21.07 C 11.56667 km/h
68 09-07-2019 19:00:00 20.98333 C 7.46 g/m*3 20.98 C 9.825 km/h
69 09-07-2019 20:00:00 19.525 C 7.82 g/m*3 19.52 C 3.06667 km/h
70 09-07-2019 21:00:00 17.04167 C 8.24 g/m*3 17.04 C 0.26667 km/h
71 09-07-2019 22:00:00 14.95 C 7.99 g/m*3 14.95 C 0.26667 km/h
72 09-07-2019 23:00:00 13.10833 C 8.2 g/m*3 13.11 C 0 km/h
73 10-07-2019 00:00:00 12.05 C 8.03 g/m*3 12.05 C 0 km/h
74 10-07-2019 01:00:00 11.01667 C 7.82 g/m*3 11.02 C 0 km/h
75 10-07-2019 02:00:00 10.01667 C 7.63 g/m*3 10.02 C 0 km/h
Sensor: Nr:Datum:Temp:Abs-Feuchte:Windchill:Wind:
Aussen-T/F 76 10-07-2019 03:00:00 9.05 C 7.49 g/m*3 9.05 C 0 km/h
77 10-07-2019 04:00:00 8.5 C 7.43 g/m*3 8.5 C 0 km/h
78 10-07-2019 05:00:00 8.23333 C 7.43 g/m*3 8.23 C 0 km/h
79 10-07-2019 06:00:00 8.10833 C 7.47 g/m*3 8.11 C 0 km/h
80 10-07-2019 07:00:00 8.46667 C 7.72 g/m*3 8.47 C 0 km/h
81 10-07-2019 08:00:00 10 C 8.47 g/m*3 10 C 0 km/h
82 10-07-2019 09:00:00 12.49167 C 8.99 g/m*3 12.49 C 1.33333 km/h
83 10-07-2019 10:00:00 16.09167 C 9.38 g/m*3 16.09 C 2.53333 km/h
84 10-07-2019 11:00:00 18.40833 C 8.59 g/m*3 18.41 C 5.49167 km/h
85 10-07-2019 12:00:00 19.80833 C 7.29 g/m*3 19.81 C 7.25833 km/h
86 10-07-2019 13:00:00 21.15833 C 6.55 g/m*3 21.16 C 9.15 km/h
87 10-07-2019 14:00:00 22.70833 C 6.23 g/m*3 22.71 C 10.08333 km/h
88 10-07-2019 15:00:00 24.41667 C 6.29 g/m*3 24.42 C 9.01667 km/h
89 10-07-2019 16:00:00 25.66667 C 6.37 g/m*3 25.67 C 10.35833 km/h
90 10-07-2019 17:00:00 26.63333 C 6.41 g/m*3 26.63 C 9.40833 km/h
91 10-07-2019 18:00:00 26.76667 C 6.54 g/m*3 26.77 C 9.54167 km/h
92 10-07-2019 19:00:00 25.75 C 6.74 g/m*3 25.75 C 9.68333 km/h
93 10-07-2019 20:00:00 23.525 C 7.13 g/m*3 23.53 C 5.63333 km/h
94 10-07-2019 21:00:00 20.74167 C 7.82 g/m*3 20.74 C 0.13333 km/h
95 10-07-2019 22:00:00 19.21667 C 7.96 g/m*3 19.22 C 0 km/h
96 10-07-2019 23:00:00 18.9 C 8.42 g/m*3 18.9 C 2.55 km/h
97 11-07-2019 00:00:00 19.10833 C 8.92 g/m*3 19.11 C 1.2 km/h
98 11-07-2019 01:00:00 17.8 C 9.27 g/m*3 17.8 C 0 km/h
99 11-07-2019 02:00:00 17.175 C 9.63 g/m*3 17.18 C 0 km/h
100 11-07-2019 03:00:00 16.875 C 10.08 g/m*3 16.88 C 0 km/h
Sensor: Nr:Datum:Temp:Abs-Feuchte:Windchill:Wind:
Aussen-T/F 101 11-07-2019 04:00:00 16.59167 C 10.26 g/m*3 16.59 C 0 km/h
102 11-07-2019 05:00:00 16.34167 C 10.18 g/m*3 16.34 C 0 km/h
103 11-07-2019 06:00:00 16.39167 C 10.36 g/m*3 16.39 C 0 km/h
104 11-07-2019 07:00:00 17.23333 C 10.53 g/m*3 17.23 C 0.13333 km/h
105 11-07-2019 08:00:00 17.85833 C 10.51 g/m*3 17.86 C 0.4 km/h
106 11-07-2019 09:00:00 18.675 C 10.95 g/m*3 18.68 C 0.66667 km/h
107 11-07-2019 10:00:00 18.7 C 11.31 g/m*3 18.7 C 0.53333 km/h
108 11-07-2019 11:00:00 18.9 C 11.26 g/m*3 18.9 C 4.975 km/h
109 11-07-2019 12:00:00 17.35 C 12.1 g/m*3 17.35 C 5.63333 km/h
110 11-07-2019 13:00:00 16.31667 C 12.61 g/m*3 16.32 C 2.53333 km/h
111 11-07-2019 14:00:00 16.79167 C 13.25 g/m*3 16.79 C 0.53333 km/h
112 11-07-2019 15:00:00 17.575 C 13.85 g/m*3 17.58 C 2.26667 km/h
113 11-07-2019 16:00:00 19.11667 C 14.66 g/m*3 19.12 C 7.51667 km/h
114 11-07-2019 17:00:00 20.88333 C 15.37 g/m*3 20.88 C 2.8 km/h
115 11-07-2019 18:00:00 19.50833 C 15.13 g/m*3 19.51 C 0.4 km/h
116 11-07-2019 19:00:00 18.3 C 14.55 g/m*3 18.3 C 0.93333 km/h
117 11-07-2019 20:00:00 18.04167 C 14.47 g/m*3 18.04 C 0 km/h
118 11-07-2019 21:00:00 17.44167 C 13.97 g/m*3 17.44 C 0 km/h
119 11-07-2019 22:00:00 16.85 C 13.61 g/m*3 16.85 C 0 km/h
120 11-07-2019 23:00:00 16.43333 C 13.3 g/m*3 16.43 C 0.93333 km/h
121 12-07-2019 00:00:00 16.05 C 13.12 g/m*3 16.05 C 1.6 km/h
122 12-07-2019 01:00:00 15.70833 C 12.85 g/m*3 15.71 C 1.06667 km/h
123 12-07-2019 02:00:00 15.34167 C 12.57 g/m*3 15.34 C 0.26667 km/h
124 12-07-2019 03:00:00 15.31667 C 12.61 g/m*3 15.32 C 0.26667 km/h
125 12-07-2019 04:00:00 14.93333 C 12.31 g/m*3 14.93 C 0 km/h
Sensor: Nr:Datum:Temp:Abs-Feuchte:Windchill:Wind:
Aussen-T/F 126 12-07-2019 05:00:00 14.58333 C 12.13 g/m*3 14.58 C 0 km/h
127 12-07-2019 06:00:00 14.75833 C 12.26 g/m*3 14.76 C 0 km/h
128 12-07-2019 07:00:00 15.73333 C 13.03 g/m*3 15.73 C 1.46667 km/h
129 12-07-2019 08:00:00 16.45833 C 13.6 g/m*3 16.46 C 0 km/h
130 12-07-2019 09:00:00 17.45 C 14.48 g/m*3 17.45 C 0.66667 km/h
131 12-07-2019 10:00:00 18.78333 C 15.28 g/m*3 18.78 C 1.73333 km/h
132 12-07-2019 11:00:00 20.325 C 15.63 g/m*3 20.33 C 0.4 km/h
133 12-07-2019 12:00:00 19.04167 C 14.99 g/m*3 19.04 C 0.8 km/h
134 12-07-2019 13:00:00 17.98333 C 14.46 g/m*3 17.98 C 1.86667 km/h
135 12-07-2019 14:00:00 17.70833 C 14.21 g/m*3 17.71 C 3.06667 km/h
136 12-07-2019 15:00:00 19.6 C 15.04 g/m*3 19.6 C 6.96667 km/h
137 12-07-2019 16:00:00 20.76667 C 15.69 g/m*3 20.77 C 1.06667 km/h
138 12-07-2019 17:00:00 19.975 C 13.79 g/m*3 19.98 C 8.59167 km/h
139 12-07-2019 18:00:00 18.30833 C 13.28 g/m*3 18.31 C 1.46667 km/h
140 12-07-2019 19:00:00 17.55833 C 13.12 g/m*3 17.56 C 4.825 km/h
141 12-07-2019 20:00:00 18.23333 C 13.74 g/m*3 18.23 C 4.025 km/h
142 12-07-2019 21:00:00 17.63333 C 13.07 g/m*3 17.63 C 6.16667 km/h
143 12-07-2019 22:00:00 17.3 C 12.71 g/m*3 17.3 C 7.64167 km/h
144 12-07-2019 23:00:00 16.55 C 12.44 g/m*3 16.55 C 1.73333 km/h
145 13-07-2019 00:00:00 16.34167 C 12.05 g/m*3 16.34 C 4.55 km/h
146 13-07-2019 01:00:00 16.13333 C 12.35 g/m*3 16.13 C 4.14167 km/h
147 13-07-2019 02:00:00 15.51667 C 12.44 g/m*3 15.52 C 0.53333 km/h
148 13-07-2019 03:00:00 15.175 C 12.3 g/m*3 15.18 C 2.14167 km/h
149 13-07-2019 04:00:00 14.99167 C 12.19 g/m*3 14.99 C 1.875 km/h
150 13-07-2019 05:00:00 14.90833 C 12.24 g/m*3 14.91 C 0 km/h
Sensor: Nr:Datum:Temp:Abs-Feuchte:Windchill:Wind:
Aussen-T/F 151 13-07-2019 06:00:00 14.75 C 12.12 g/m*3 14.75 C 1.2 km/h
152 13-07-2019 07:00:00 14.93333 C 12.28 g/m*3 14.93 C 1.06667 km/h
153 13-07-2019 08:00:00 15.61667 C 12.8 g/m*3 15.62 C 1.2 km/h
154 13-07-2019 09:00:00 15.83333 C 12.88 g/m*3 15.83 C 1.46667 km/h
155 13-07-2019 10:00:00 16.5 C 12.78 g/m*3 16.5 C 5.9 km/h
156 13-07-2019 11:00:00 17.51667 C 13.18 g/m*3 17.52 C 5.64167 km/h
157 13-07-2019 12:00:00 18.75833 C 13.09 g/m*3 18.76 C 4.675 km/h
158 13-07-2019 13:00:00 19.725 C 12.91 g/m*3 19.73 C 9.8 km/h
159 13-07-2019 14:00:00 21.15 C 12.8 g/m*3 21.15 C 13.16667 km/h
160 13-07-2019 15:00:00 21.18333 C 13.16 g/m*3 21.18 C 14.35833 km/h
161 13-07-2019 16:00:00 20.90833 C 12.56 g/m*3 20.91 C 13.425 km/h
162 13-07-2019 17:00:00 21.84167 C 12.92 g/m*3 21.84 C 11.7 km/h
163 13-07-2019 18:00:00 22.38333 C 12.75 g/m*3 22.38 C 10.625 km/h
164 13-07-2019 19:00:00 22.70833 C 12.73 g/m*3 22.71 C 9 km/h
165 13-07-2019 20:00:00 20.45833 C 12.45 g/m*3 20.46 C 8.475 km/h
166 13-07-2019 21:00:00 19.2 C 12.74 g/m*3 19.2 C 4.425 km/h
167 13-07-2019 22:00:00 18.225 C 13.24 g/m*3 18.23 C 2.425 km/h
168 13-07-2019 23:00:00 17.21667 C 13.13 g/m*3 17.22 C 0.26667 km/h
169 14-07-2019 00:00:00 16.95 C 12.95 g/m*3 16.95 C 1.06667 km/h
170 14-07-2019 01:00:00 16.975 C 12.8 g/m*3 16.98 C 3.48333 km/h
171 14-07-2019 02:00:00 16.35833 C 12.48 g/m*3 16.36 C 6.04167 km/h
172 14-07-2019 03:00:00 15.44167 C 11.98 g/m*3 15.44 C 4.01667 km/h
173 14-07-2019 04:00:00 15.11667 C 11.74 g/m*3 15.12 C 3.2 km/h
174 14-07-2019 05:00:00 14.85 C 11.47 g/m*3 14.85 C 3.48333 km/h
175 14-07-2019 06:00:00 14.71667 C 11.46 g/m*3 14.72 C 3.2 km/h
Sensor: Nr:Datum:Temp:Abs-Feuchte:Windchill:Wind:
Aussen-T/F 176 14-07-2019 07:00:00 14.86667 C 11.04 g/m*3 14.87 C 2 km/h
177 14-07-2019 08:00:00 15.40833 C 11.22 g/m*3 15.41 C 4.80833 km/h
178 14-07-2019 09:00:00 15.26667 C 10.97 g/m*3 15.27 C 6.56667 km/h
179 14-07-2019 10:00:00 16.00833 C 10.6 g/m*3 16.01 C 9.29167 km/h
180 14-07-2019 11:00:00 16.83333 C 10.48 g/m*3 16.83 C 9.28333 km/h
181 14-07-2019 12:00:00 17.53333 C 10.37 g/m*3 17.53 C 9.95833 km/h
182 14-07-2019 13:00:00 17.80833 C 10.15 g/m*3 17.81 C 10.1 km/h
183 14-07-2019 14:00:00 18.19167 C 9.99 g/m*3 18.19 C 11.16667 km/h
184 14-07-2019 15:00:00 18.925 C 9.91 g/m*3 18.93 C 10.76667 km/h
185 14-07-2019 16:00:00 19.33333 C 9.78 g/m*3 19.33 C 13.3 km/h
186 14-07-2019 17:00:00 19.34167 C 9.74 g/m*3 19.34 C 9.00833 km/h
187 14-07-2019 18:00:00 18.65833 C 9.88 g/m*3 18.66 C 10.35 km/h
188 14-07-2019 19:00:00 18.36667 C 9.73 g/m*3 18.37 C 10.35833 km/h
189 14-07-2019 20:00:00 17.89167 C 10.07 g/m*3 17.89 C 9.94167 km/h
190 14-07-2019 21:00:00 17.45 C 10.02 g/m*3 17.45 C 7.25 km/h
191 14-07-2019 22:00:00 17.125 C 9.93 g/m*3 17.13 C 3.74167 km/h
192 14-07-2019 23:00:00 16.8 C 10.16 g/m*3 16.8 C 3.60833 km/h
193 15-07-2019 00:00:00 16.06667 C 10.5 g/m*3 16.07 C 1.2 km/h
194 15-07-2019 01:00:00 15.63333 C 10.49 g/m*3 15.63 C 2.675 km/h
195 15-07-2019 02:00:00 15.55833 C 10.66 g/m*3 15.56 C 0.13333 km/h
196 15-07-2019 03:00:00 14.99167 C 10.7 g/m*3 14.99 C 0 km/h
197 15-07-2019 04:00:00 15.30833 C 10.22 g/m*3 15.31 C 2.66667 km/h
198 15-07-2019 05:00:00 15.65 C 9.93 g/m*3 15.65 C 4.81667 km/h
199 15-07-2019 06:00:00 15.6 C 9.86 g/m*3 15.6 C 3.33333 km/h
200 15-07-2019 07:00:00 15.69167 C 9.9 g/m*3 15.69 C 5.49167 km/h
Sensor: Nr:Datum:Temp:Abs-Feuchte:Windchill:Wind:
Aussen-T/F 201 15-07-2019 08:00:00 15.83333 C 9.99 g/m*3 15.83 C 6.7 km/h
202 15-07-2019 09:00:00 16.53333 C 10.05 g/m*3 16.53 C 6.44167 km/h
203 15-07-2019 10:00:00 16.8 C 10.32 g/m*3 16.8 C 5.48333 km/h
204 15-07-2019 11:00:00 16.84167 C 10.67 g/m*3 16.84 C 7.525 km/h
205 15-07-2019 12:00:00 17.10833 C 10.61 g/m*3 17.11 C 9.7 km/h
206 15-07-2019 13:00:00 17.49167 C 10.39 g/m*3 17.49 C 11.43333 km/h
207 15-07-2019 14:00:00 18.09167 C 10.24 g/m*3 18.09 C 12.49167 km/h
208 15-07-2019 15:00:00 17.68333 C 10.24 g/m*3 17.68 C 10.75833 km/h
209 15-07-2019 16:00:00 17.11667 C 10.27 g/m*3 17.12 C 8.73333 km/h
210 15-07-2019 17:00:00 16.775 C 10.23 g/m*3 16.77 C 8.74167 km/h
211 15-07-2019 18:00:00 16.69167 C 10.17 g/m*3 16.69 C 6.56667 km/h
212 15-07-2019 19:00:00 16.78333 C 10.14 g/m*3 16.78 C 5.09167 km/h
213 15-07-2019 20:00:00 16.69167 C 10.1 g/m*3 16.69 C 4.01667 km/h
214 15-07-2019 21:00:00 16.34167 C 10.28 g/m*3 16.34 C 2.13333 km/h
215 15-07-2019 22:00:00 15.61667 C 10.58 g/m*3 15.62 C 0 km/h
216 15-07-2019 23:00:00 15.44167 C 10.18 g/m*3 15.44 C 0.93333 km/h
217 16-07-2019 00:00:00 14.75 C 10.08 g/m*3 14.75 C 0 km/h
218 16-07-2019 01:00:00 13.675 C 9.5 g/m*3 13.68 C 0 km/h
219 16-07-2019 02:00:00 12.23333 C 9.25 g/m*3 12.23 C 0 km/h
220 16-07-2019 03:00:00 10.9 C 8.98 g/m*3 10.9 C 0 km/h
221 16-07-2019 04:00:00 10.28333 C 8.83 g/m*3 10.28 C 0 km/h
222 16-07-2019 05:00:00 9.98333 C 8.75 g/m*3 9.98 C 0 km/h
223 16-07-2019 06:00:00 10.125 C 8.94 g/m*3 10.13 C 1.33333 km/h
224 16-07-2019 07:00:00 11.01667 C 9.39 g/m*3 11.02 C 4.4 km/h
225 16-07-2019 08:00:00 12.625 C 10.06 g/m*3 12.63 C 2.4 km/h
Sensor: Nr:Datum:Temp:Abs-Feuchte:Windchill:Wind:
Aussen-T/F 226 16-07-2019 09:00:00 14.58333 C 10.52 g/m*3 14.58 C 4.15 km/h
227 16-07-2019 10:00:00 15.51667 C 10.25 g/m*3 15.52 C 6.84167 km/h
228 16-07-2019 11:00:00 15.99167 C 10.17 g/m*3 15.99 C 9.66667 km/h
229 16-07-2019 12:00:00 16.725 C 10.22 g/m*3 16.73 C 10.49167 km/h
230 16-07-2019 13:00:00 17.40833 C 10.29 g/m*3 17.41 C 8.46667 km/h
231 16-07-2019 14:00:00 18.38333 C 10.45 g/m*3 18.38 C 9.95 km/h
232 16-07-2019 15:00:00 20.325 C 10.73 g/m*3 20.33 C 7.78333 km/h
233 16-07-2019 16:00:00 22.31667 C 10.84 g/m*3 22.32 C 8.325 km/h
234 16-07-2019 17:00:00 22.8 C 10.79 g/m*3 22.8 C 9.55833 km/h
235 16-07-2019 18:00:00 23.075 C 10.73 g/m*3 23.08 C 8.05833 km/h
236 16-07-2019 19:00:00 22.125 C 10.59 g/m*3 22.13 C 8.89167 km/h
237 16-07-2019 20:00:00 20.81667 C 10.57 g/m*3 20.82 C 6.45 km/h
238 16-07-2019 21:00:00 18.30833 C 10.98 g/m*3 18.31 C 0.53333 km/h
239 16-07-2019 22:00:00 15.85 C 10.64 g/m*3 15.85 C 0 km/h
240 16-07-2019 23:00:00 15.08333 C 10.54 g/m*3 15.08 C 0 km/h
241 17-07-2019 00:00:00 14.09167 C 10.23 g/m*3 14.09 C 0 km/h
242 17-07-2019 01:00:00 13.08333 C 10.06 g/m*3 13.08 C 0 km/h
243 17-07-2019 02:00:00 12.40833 C 9.81 g/m*3 12.41 C 0 km/h
244 17-07-2019 03:00:00 11.64167 C 9.54 g/m*3 11.64 C 0 km/h
245 17-07-2019 04:00:00 11.225 C 9.42 g/m*3 11.23 C 0.26667 km/h
246 17-07-2019 05:00:00 10.83333 C 9.29 g/m*3 10.83 C 0 km/h
247 17-07-2019 06:00:00 10.74167 C 9.31 g/m*3 10.74 C 0 km/h
248 17-07-2019 07:00:00 11.51667 C 9.83 g/m*3 11.52 C 0 km/h
249 17-07-2019 08:00:00 12.79167 C 10.58 g/m*3 12.79 C 0 km/h
250 17-07-2019 09:00:00 14.85833 C 11.26 g/m*3 14.86 C 1.86667 km/h
Sensor: Nr:Datum:Temp:Abs-Feuchte:Windchill:Wind:
Aussen-T/F 251 17-07-2019 10:00:00 17.23333 C 11.36 g/m*3 17.23 C 5.35833 km/h
252 17-07-2019 11:00:00 18.58333 C 11.4 g/m*3 18.58 C 6.58333 km/h
253 17-07-2019 12:00:00 19.39167 C 11.46 g/m*3 19.39 C 7.375 km/h
254 17-07-2019 13:00:00 20.5 C 11.2 g/m*3 20.5 C 8.88333 km/h
255 17-07-2019 14:00:00 21.69167 C 11.23 g/m*3 21.69 C 9.13333 km/h
256 17-07-2019 15:00:00 22.69167 C 11.71 g/m*3 22.69 C 12.63333 km/h
257 17-07-2019 16:00:00 23.675 C 11.73 g/m*3 23.68 C 11.55833 km/h
258 17-07-2019 17:00:00 24.575 C 11.91 g/m*3 24.58 C 10.225 km/h
259 17-07-2019 18:00:00 24.24167 C 11.95 g/m*3 24.24 C 11.3 km/h
260 17-07-2019 19:00:00 23.20833 C 12.17 g/m*3 23.21 C 10.23333 km/h
261 17-07-2019 20:00:00 21.525 C 12.13 g/m*3 21.53 C 8.74167 km/h
262 17-07-2019 21:00:00 19.69167 C 11.99 g/m*3 19.69 C 2.68333 km/h
263 17-07-2019 22:00:00 17.05 C 11.61 g/m*3 17.05 C 0.13333 km/h
264 17-07-2019 23:00:00 16.025 C 11.53 g/m*3 16.02 C 0 km/h
265 18-07-2019 00:00:00 15.29167 C 11.24 g/m*3 15.29 C 0 km/h
266 18-07-2019 01:00:00 14.29167 C 10.87 g/m*3 14.29 C 0 km/h
267 18-07-2019 02:00:00 13.69167 C 10.8 g/m*3 13.69 C 0 km/h
268 18-07-2019 03:00:00 13.45833 C 10.76 g/m*3 13.46 C 0 km/h
269 18-07-2019 04:00:00 13.24167 C 10.7 g/m*3 13.24 C 0 km/h
270 18-07-2019 05:00:00 12.675 C 10.35 g/m*3 12.68 C 0 km/h
271 18-07-2019 06:00:00 12.45833 C 10.34 g/m*3 12.46 C 0 km/h
272 18-07-2019 07:00:00 13.25833 C 10.95 g/m*3 13.26 C 0 km/h
273 18-07-2019 08:00:00 14.31667 C 11.46 g/m*3 14.32 C 0.13333 km/h
274 18-07-2019 09:00:00 16.21667 C 12.3 g/m*3 16.22 C 0 km/h
275 18-07-2019 10:00:00 18.83333 C 13.12 g/m*3 18.83 C 0.13333 km/h
Sensor: Nr:Datum:Temp:Abs-Feuchte:Windchill:Wind:
Aussen-T/F 276 18-07-2019 11:00:00 21.89167 C 12.42 g/m*3 21.89 C 5.24167 km/h
277 18-07-2019 12:00:00 24.18333 C 11.91 g/m*3 24.18 C 4.675 km/h
278 18-07-2019 13:00:00 25.71667 C 11.76 g/m*3 25.72 C 6.15 km/h
279 18-07-2019 14:00:00 27.20833 C 10.7 g/m*3 27.21 C 10.325 km/h
280 18-07-2019 15:00:00 26.04167 C 10.96 g/m*3 26.04 C 7.525 km/h
281 18-07-2019 16:00:00 24.76667 C 11.91 g/m*3 24.77 C 6.70833 km/h
282 18-07-2019 17:00:00 24.84167 C 12.8 g/m*3 24.84 C 2.675 km/h
283 18-07-2019 18:00:00 23.975 C 13.63 g/m*3 23.98 C 1.86667 km/h
284 18-07-2019 19:00:00 21.06667 C 13.65 g/m*3 21.07 C 0 km/h
285 18-07-2019 20:00:00 20.86667 C 12.72 g/m*3 20.87 C 0.13333 km/h
286 18-07-2019 21:00:00 20.35 C 12.19 g/m*3 20.35 C 0 km/h
287 18-07-2019 22:00:00 19.66667 C 12.15 g/m*3 19.67 C 0.26667 km/h
288 18-07-2019 23:00:00 19.35833 C 12.07 g/m*3 19.36 C 0 km/h
289 19-07-2019 00:00:00 19.33333 C 12.31 g/m*3 19.33 C 0 km/h
290 19-07-2019 01:00:00 18.45833 C 13.01 g/m*3 18.46 C 0 km/h
291 19-07-2019 02:00:00 17.05833 C 13.06 g/m*3 17.06 C 0 km/h
292 19-07-2019 03:00:00 16.60833 C 13.05 g/m*3 16.61 C 0 km/h
293 19-07-2019 04:00:00 16.375 C 13.02 g/m*3 16.38 C 0 km/h
294 19-07-2019 05:00:00 16.3 C 13.06 g/m*3 16.3 C 0 km/h
295 19-07-2019 06:00:00 16.35 C 13.22 g/m*3 16.35 C 0 km/h
296 19-07-2019 07:00:00 16.7 C 13.54 g/m*3 16.7 C 0 km/h
297 19-07-2019 08:00:00 17.23333 C 14.09 g/m*3 17.23 C 0.4 km/h
298 19-07-2019 09:00:00 18.025 C 14.59 g/m*3 18.02 C 2.55 km/h
299 19-07-2019 10:00:00 19.275 C 14.96 g/m*3 19.27 C 6.16667 km/h
300 19-07-2019 11:00:00 20.475 C 14.87 g/m*3 20.48 C 6.725 km/h
Sensor: Nr:Datum:Temp:Abs-Feuchte:Windchill:Wind:
Aussen-T/F 301 19-07-2019 12:00:00 20.04167 C 14.93 g/m*3 20.04 C 2.94167 km/h
302 19-07-2019 13:00:00 21.975 C 14.5 g/m*3 21.98 C 7.54167 km/h
303 19-07-2019 14:00:00 23.525 C 12.9 g/m*3 23.53 C 10.73333 km/h
304 19-07-2019 15:00:00 24.875 C 12.08 g/m*3 24.88 C 10.76667 km/h
305 19-07-2019 16:00:00 25.21667 C 11.79 g/m*3 25.22 C 10.23333 km/h
306 19-07-2019 17:00:00 25.91667 C 12.02 g/m*3 25.92 C 8.2 km/h
307 19-07-2019 18:00:00 25.43333 C 12.05 g/m*3 25.43 C 6.425 km/h
308 19-07-2019 19:00:00 24.78333 C 13.68 g/m*3 24.78 C 1.6 km/h
309 19-07-2019 20:00:00 23.25833 C 13.4 g/m*3 23.26 C 0.8 km/h
310 19-07-2019 21:00:00 20.90833 C 13.04 g/m*3 20.91 C 0 km/h
311 19-07-2019 22:00:00 19.20833 C 13.05 g/m*3 19.21 C 0 km/h
312 19-07-2019 23:00:00 18.525 C 13.14 g/m*3 18.52 C 0 km/h
313 20-07-2019 00:00:00 17.39167 C 12.76 g/m*3 17.39 C 0 km/h
314 20-07-2019 01:00:00 16.6 C 12.47 g/m*3 16.6 C 0 km/h
315 20-07-2019 02:00:00 15.74167 C 12.14 g/m*3 15.74 C 0 km/h
316 20-07-2019 03:00:00 15.025 C 11.87 g/m*3 15.03 C 0 km/h
317 20-07-2019 04:00:00 14.55833 C 11.66 g/m*3 14.56 C 0 km/h
318 20-07-2019 05:00:00 14.18333 C 11.48 g/m*3 14.18 C 0 km/h
319 20-07-2019 06:00:00 13.96667 C 11.43 g/m*3 13.97 C 0 km/h
320 20-07-2019 07:00:00 14.56667 C 11.96 g/m*3 14.57 C 0 km/h
321 20-07-2019 08:00:00 15.86667 C 12.97 g/m*3 15.87 C 0 km/h
322 20-07-2019 09:00:00 17.73333 C 14.34 g/m*3 17.73 C 0 km/h
323 20-07-2019 10:00:00 21.4 C 16.36 g/m*3 21.4 C 0 km/h
324 20-07-2019 11:00:00 25.8 C 15.23 g/m*3 25.8 C 7.65 km/h
325 20-07-2019 12:00:00 27.775 C 13.81 g/m*3 27.78 C 12.36667 km/h
Sensor: Nr:Datum:Temp:Abs-Feuchte:Windchill:Wind:
Aussen-T/F 326 20-07-2019 13:00:00 28.175 C 13.87 g/m*3 28.18 C 8.6 km/h
327 20-07-2019 14:00:00 30.04167 C 13.8 g/m*3 30.04 C 13.96667 km/h
328 20-07-2019 15:00:00 30.8 C 13.85 g/m*3 30.8 C 10.35 km/h
329 20-07-2019 16:00:00 28.94167 C 18.44 g/m*3 28.94 C 5.09167 km/h
330 20-07-2019 17:00:00 28.35 C 16.89 g/m*3 28.35 C 12.75833 km/h
331 20-07-2019 18:00:00 28.925 C 14.11 g/m*3 28.93 C 10.60833 km/h
332 20-07-2019 19:00:00 27.50833 C 14.18 g/m*3 27.51 C 15.16667 km/h
333 20-07-2019 20:00:00 23.425 C 14.65 g/m*3 23.43 C 3.35 km/h
334 20-07-2019 21:00:00 21.725 C 14.53 g/m*3 21.73 C 0 km/h
335 20-07-2019 22:00:00 20.56667 C 14.31 g/m*3 20.57 C 0 km/h
336 20-07-2019 23:00:00 19.75 C 14.23 g/m*3 19.75 C 0 km/h
337 21-07-2019 00:00:00 19.08333 C 14.03 g/m*3 19.08 C 0 km/h
338 21-07-2019 01:00:00 18.58333 C 13.98 g/m*3 18.58 C 0 km/h
339 21-07-2019 02:00:00 18.875 C 14.19 g/m*3 18.88 C 0 km/h
340 21-07-2019 03:00:00 18.65 C 14.15 g/m*3 18.65 C 0 km/h
341 21-07-2019 04:00:00 17.95 C 13.68 g/m*3 17.95 C 0 km/h
342 21-07-2019 05:00:00 17.46667 C 13.56 g/m*3 17.47 C 0 km/h
343 21-07-2019 06:00:00 17.73333 C 13.86 g/m*3 17.73 C 0 km/h
344 21-07-2019 07:00:00 18.5 C 14.11 g/m*3 18.5 C 0 km/h
345 21-07-2019 08:00:00 19.34167 C 13.37 g/m*3 19.34 C 2.4 km/h
346 21-07-2019 09:00:00 20.30833 C 13.02 g/m*3 20.31 C 7.53333 km/h
347 21-07-2019 10:00:00 21.85833 C 12.75 g/m*3 21.86 C 7.25 km/h
348 21-07-2019 11:00:00 23.79167 C 11.57 g/m*3 23.79 C 11.41667 km/h
349 21-07-2019 12:00:00 24.96667 C 11.74 g/m*3 24.97 C 11.55833 km/h
350 21-07-2019 13:00:00 24.95833 C 12.23 g/m*3 24.96 C 9.15 km/h
Sensor: Nr:Datum:Temp:Abs-Feuchte:Windchill:Wind:
Aussen-T/F 351 21-07-2019 14:00:00 26.01667 C 12.45 g/m*3 26.02 C 9.825 km/h
352 21-07-2019 15:00:00 26.84167 C 12.33 g/m*3 26.84 C 11.55833 km/h
353 21-07-2019 16:00:00 27.76667 C 12.33 g/m*3 27.77 C 10.09167 km/h
354 21-07-2019 17:00:00 27.275 C 12.43 g/m*3 27.28 C 11.16667 km/h
355 21-07-2019 18:00:00 26.44167 C 12.29 g/m*3 26.44 C 9.41667 km/h
356 21-07-2019 19:00:00 25.40833 C 12.29 g/m*3 25.41 C 8.2 km/h
357 21-07-2019 20:00:00 24.4 C 12.2 g/m*3 24.4 C 7.51667 km/h
358 21-07-2019 21:00:00 22.64167 C 12.32 g/m*3 22.64 C 0.93333 km/h
359 21-07-2019 22:00:00 19.85 C 12.25 g/m*3 19.85 C 0 km/h
360 21-07-2019 23:00:00 18.35 C 12.26 g/m*3 18.35 C 0 km/h
361 22-07-2019 00:00:00 17.075 C 11.79 g/m*3 17.08 C 0 km/h
362 22-07-2019 01:00:00 16.15833 C 11.58 g/m*3 16.16 C 0 km/h
363 22-07-2019 02:00:00 15.64167 C 11.65 g/m*3 15.64 C 0 km/h
364 22-07-2019 03:00:00 15.33333 C 11.56 g/m*3 15.33 C 0 km/h
365 22-07-2019 04:00:00 14.74167 C 11.3 g/m*3 14.74 C 0 km/h
366 22-07-2019 05:00:00 14.3 C 11.17 g/m*3 14.3 C 0 km/h
367 22-07-2019 06:00:00 14.175 C 11.2 g/m*3 14.18 C 0 km/h
368 22-07-2019 07:00:00 14.725 C 11.7 g/m*3 14.73 C 0 km/h
369 22-07-2019 08:00:00 16.28333 C 12.37 g/m*3 16.28 C 0 km/h
370 22-07-2019 09:00:00 18.20833 C 13.05 g/m*3 18.21 C 0 km/h
371 22-07-2019 10:00:00 20.80833 C 13.45 g/m*3 20.81 C 0 km/h
372 22-07-2019 11:00:00 24.00833 C 12.62 g/m*3 24.01 C 5.225 km/h
373 22-07-2019 12:00:00 25.55833 C 12.49 g/m*3 25.56 C 9.13333 km/h
374 22-07-2019 13:00:00 26.41667 C 12.5 g/m*3 26.42 C 7.93333 km/h
375 22-07-2019 14:00:00 27.775 C 12.29 g/m*3 27.78 C 6.99167 km/h
Sensor: Nr:Datum:Temp:Abs-Feuchte:Windchill:Wind:
Aussen-T/F 376 22-07-2019 15:00:00 29.05 C 12.41 g/m*3 29.05 C 9.55833 km/h
377 22-07-2019 16:00:00 30.80833 C 12.27 g/m*3 30.81 C 10.75833 km/h
378 22-07-2019 17:00:00 31.51667 C 12.12 g/m*3 31.52 C 7.79167 km/h
379 22-07-2019 18:00:00 32.31667 C 12.13 g/m*3 32.32 C 6.575 km/h
380 22-07-2019 19:00:00 31.475 C 11.93 g/m*3 31.48 C 7.375 km/h
381 22-07-2019 20:00:00 29.425 C 12.62 g/m*3 29.43 C 6.56667 km/h
382 22-07-2019 21:00:00 25.59167 C 13.44 g/m*3 25.59 C 0 km/h
383 22-07-2019 22:00:00 22.85 C 12.97 g/m*3 22.85 C 0 km/h
384 22-07-2019 23:00:00 20.925 C 12.95 g/m*3 20.93 C 0 km/h
385 23-07-2019 00:00:00 19.4 C 12.72 g/m*3 19.4 C 0 km/h
386 23-07-2019 01:00:00 18.375 C 12.54 g/m*3 18.38 C 0 km/h
387 23-07-2019 02:00:00 17.55833 C 12.34 g/m*3 17.56 C 0 km/h
388 23-07-2019 03:00:00 16.84167 C 12.19 g/m*3 16.84 C 0 km/h
389 23-07-2019 04:00:00 16.29167 C 12.12 g/m*3 16.29 C 0 km/h
390 23-07-2019 05:00:00 15.825 C 12.01 g/m*3 15.83 C 0 km/h
391 23-07-2019 06:00:00 15.65833 C 12.12 g/m*3 15.66 C 0 km/h
392 23-07-2019 07:00:00 16.10833 C 12.48 g/m*3 16.11 C 0 km/h
393 23-07-2019 08:00:00 16.83333 C 12.98 g/m*3 16.83 C 0 km/h
394 23-07-2019 09:00:00 18.70833 C 13.95 g/m*3 18.71 C 0 km/h
395 23-07-2019 10:00:00 22.425 C 14.92 g/m*3 22.43 C 1.61667 km/h
396 23-07-2019 11:00:00 27.35 C 13.99 g/m*3 27.35 C 7.24167 km/h
397 23-07-2019 12:00:00 29.59167 C 13.05 g/m*3 29.59 C 11.55833 km/h
398 23-07-2019 13:00:00 30.78333 C 12.63 g/m*3 30.78 C 10.33333 km/h
399 23-07-2019 14:00:00 32.11667 C 12.63 g/m*3 32.12 C 9 km/h
400 23-07-2019 15:00:00 33.90833 C 13.1 g/m*3 33.91 C 8.74167 km/h
Sensor: Nr:Datum:Temp:Abs-Feuchte:Windchill:Wind:
Aussen-T/F 401 23-07-2019 16:00:00 35.8 C 12.74 g/m*3 35.8 C 7.24167 km/h
402 23-07-2019 17:00:00 36.38333 C 12.17 g/m*3 36.38 C 7.8 km/h
403 23-07-2019 18:00:00 36.76667 C 12.31 g/m*3 36.77 C 7.51667 km/h
404 23-07-2019 19:00:00 35.64167 C 12.6 g/m*3 35.64 C 5.88333 km/h
405 23-07-2019 20:00:00 32.725 C 14.27 g/m*3 32.73 C 1.73333 km/h
406 23-07-2019 21:00:00 28.00833 C 13.69 g/m*3 28.01 C 1.6 km/h
407 23-07-2019 22:00:00 25.2 C 13.46 g/m*3 25.2 C 0.26667 km/h
408 23-07-2019 23:00:00 22.93333 C 13.51 g/m*3 22.93 C 0 km/h
409 24-07-2019 00:00:00 21.44167 C 13.44 g/m*3 21.44 C 0 km/h
410 24-07-2019 01:00:00 20.31667 C 13.45 g/m*3 20.32 C 0 km/h
411 24-07-2019 02:00:00 19.30833 C 13.11 g/m*3 19.31 C 0 km/h
412 24-07-2019 03:00:00 18.63333 C 13.04 g/m*3 18.63 C 0 km/h
413 24-07-2019 04:00:00 17.76667 C 12.81 g/m*3 17.77 C 0 km/h
414 24-07-2019 05:00:00 17.23333 C 12.78 g/m*3 17.23 C 0 km/h
415 24-07-2019 06:00:00 17.075 C 12.83 g/m*3 17.08 C 0 km/h
416 24-07-2019 07:00:00 17.26667 C 13.23 g/m*3 17.27 C 0 km/h
417 24-07-2019 08:00:00 18.325 C 13.91 g/m*3 18.33 C 0 km/h
418 24-07-2019 09:00:00 20.23333 C 14.95 g/m*3 20.23 C 0 km/h
419 24-07-2019 10:00:00 23.75 C 15.53 g/m*3 23.75 C 0 km/h
420 24-07-2019 11:00:00 27.43333 C 15.68 g/m*3 27.43 C 0 km/h
421 24-07-2019 12:00:00 32.04167 C 14.1 g/m*3 32.04 C 2.95833 km/h
422 24-07-2019 13:00:00 34.175 C 11.01 g/m*3 34.17 C 7.11667 km/h
423 24-07-2019 14:00:00 35.31667 C 10.78 g/m*3 35.32 C 6.28333 km/h
424 24-07-2019 15:00:00 36.975 C 11.38 g/m*3 36.98 C 6.03333 km/h
425 24-07-2019 16:00:00 39.59167 C 11.54 g/m*3 39.59 C 6.425 km/h
Sensor: Nr:Datum:Temp:Abs-Feuchte:Windchill:Wind:
Aussen-T/F 426 24-07-2019 17:00:00 39.60833 C 11.47 g/m*3 39.61 C 9 km/h
427 24-07-2019 18:00:00 39.31667 C 11.18 g/m*3 39.32 C 9.40833 km/h
428 24-07-2019 19:00:00 38.49167 C 13.05 g/m*3 38.49 C 4.83333 km/h
429 24-07-2019 20:00:00 33.13333 C 14.34 g/m*3 33.13 C 0.4 km/h
430 24-07-2019 21:00:00 28.825 C 13.89 g/m*3 28.83 C 1.2 km/h
431 24-07-2019 22:00:00 27.375 C 13.66 g/m*3 27.38 C 0.66667 km/h
432 24-07-2019 23:00:00 25.58333 C 13.87 g/m*3 25.58 C 0 km/h
433 25-07-2019 00:00:00 23.68333 C 13.48 g/m*3 23.68 C 0 km/h
434 25-07-2019 01:00:00 22.53333 C 13.32 g/m*3 22.53 C 0 km/h
435 25-07-2019 02:00:00 21.6 C 13.37 g/m*3 21.6 C 0 km/h
436 25-07-2019 03:00:00 20.89167 C 13.46 g/m*3 20.89 C 0 km/h
437 25-07-2019 04:00:00 20.075 C 13.5 g/m*3 20.08 C 0 km/h
438 25-07-2019 05:00:00 19.35833 C 13.31 g/m*3 19.36 C 0 km/h
439 25-07-2019 06:00:00 19.19167 C 13.56 g/m*3 19.19 C 0 km/h
440 25-07-2019 07:00:00 19.55833 C 14.12 g/m*3 19.56 C 0 km/h
441 25-07-2019 08:00:00 20.73333 C 14.93 g/m*3 20.73 C 0 km/h
442 25-07-2019 09:00:00 22.75833 C 15.59 g/m*3 22.76 C 0 km/h
443 25-07-2019 10:00:00 25.84167 C 16.09 g/m*3 25.84 C 0 km/h
444 25-07-2019 11:00:00 29.93333 C 16.11 g/m*3 29.93 C 1.73333 km/h
445 25-07-2019 12:00:00 34.525 C 13.66 g/m*3 34.53 C 8.06667 km/h
446 25-07-2019 13:00:00 36.46667 C 13.22 g/m*3 36.47 C 9.025 km/h
447 25-07-2019 14:00:00 37.425 C 12.92 g/m*3 37.42 C 7.76667 km/h
448 25-07-2019 15:00:00 38.79167 C 12.64 g/m*3 38.79 C 9 km/h
449 25-07-2019 16:00:00 40.15 C 12.17 g/m*3 40.15 C 11.95833 km/h
450 25-07-2019 17:00:00 39.80833 C 11.41 g/m*3 39.81 C 13.29167 km/h
Sensor: Nr:Datum:Temp:Abs-Feuchte:Windchill:Wind:
Aussen-T/F 451 25-07-2019 18:00:00 39.09167 C 11.46 g/m*3 39.09 C 10.1 km/h
452 25-07-2019 19:00:00 36.66667 C 14.4 g/m*3 36.67 C 1.88333 km/h
453 25-07-2019 20:00:00 32.81667 C 14.75 g/m*3 32.82 C 0 km/h
454 25-07-2019 21:00:00 30.34167 C 13.8 g/m*3 30.34 C 1.46667 km/h
455 25-07-2019 22:00:00 28.75833 C 13.39 g/m*3 28.76 C 1.06667 km/h
456 25-07-2019 23:00:00 27.56667 C 13.19 g/m*3 27.57 C 0.93333 km/h
457 26-07-2019 00:00:00 26.19167 C 13.14 g/m*3 26.19 C 0 km/h
458 26-07-2019 01:00:00 25 C 13.14 g/m*3 25 C 0 km/h
459 26-07-2019 02:00:00 22.51667 C 13.4 g/m*3 22.52 C 0 km/h
460 26-07-2019 03:00:00 20.99167 C 13.12 g/m*3 20.99 C 0 km/h
461 26-07-2019 04:00:00 20.125 C 13.33 g/m*3 20.13 C 0 km/h
462 26-07-2019 05:00:00 19.29167 C 13.1 g/m*3 19.29 C 0 km/h
463 26-07-2019 06:00:00 18.95833 C 13.06 g/m*3 18.96 C 0 km/h
464 26-07-2019 07:00:00 19.61667 C 13.94 g/m*3 19.62 C 0 km/h
465 26-07-2019 08:00:00 21.10833 C 14.75 g/m*3 21.11 C 0 km/h
466 26-07-2019 09:00:00 23.50833 C 14.65 g/m*3 23.51 C 1.06667 km/h
467 26-07-2019 10:00:00 28.225 C 13.63 g/m*3 28.23 C 6.70833 km/h
468 26-07-2019 11:00:00 32.05 C 13.14 g/m*3 32.05 C 4.4 km/h
469 26-07-2019 12:00:00 34.35 C 13.18 g/m*3 34.35 C 8.85833 km/h
470 26-07-2019 13:00:00 36.00833 C 12.88 g/m*3 36.01 C 9.55833 km/h
471 26-07-2019 14:00:00 37.35833 C 11.94 g/m*3 37.36 C 7.10833 km/h
472 26-07-2019 15:00:00 37.1 C 12.48 g/m*3 37.1 C 13.56667 km/h
473 26-07-2019 16:00:00 35.28333 C 13.64 g/m*3 35.28 C 5.775 km/h
474 26-07-2019 17:00:00 32.5 C 14.7 g/m*3 32.5 C 6.04167 km/h
475 26-07-2019 18:00:00 30.44167 C 14.13 g/m*3 30.44 C 9.525 km/h
Sensor: Nr:Datum:Temp:Abs-Feuchte:Windchill:Wind:
Aussen-T/F 476 26-07-2019 19:00:00 28.825 C 14.84 g/m*3 28.83 C 0.4 km/h
477 26-07-2019 20:00:00 27.525 C 15.3 g/m*3 27.53 C 0 km/h
478 26-07-2019 21:00:00 26.33333 C 14.72 g/m*3 26.33 C 0.4 km/h
479 26-07-2019 22:00:00 25.5 C 14.7 g/m*3 25.5 C 0.26667 km/h
480 26-07-2019 23:00:00 24.35833 C 14.82 g/m*3 24.36 C 0.26667 km/h
481 27-07-2019 00:00:00 23.15 C 14.56 g/m*3 23.15 C 0.53333 km/h
482 27-07-2019 01:00:00 22.63333 C 14.74 g/m*3 22.63 C 0 km/h
483 27-07-2019 02:00:00 22.33333 C 14.87 g/m*3 22.33 C 0 km/h
484 27-07-2019 03:00:00 22.59167 C 15.01 g/m*3 22.59 C 1.2 km/h
485 27-07-2019 04:00:00 20.9 C 15.74 g/m*3 20.9 C 0 km/h
486 27-07-2019 05:00:00 20.275 C 15.59 g/m*3 20.27 C 0 km/h
487 27-07-2019 06:00:00 20.525 C 15.79 g/m*3 20.53 C 0.26667 km/h
488 27-07-2019 07:00:00 21.25 C 16.39 g/m*3 21.25 C 0 km/h
489 27-07-2019 08:00:00 22.575 C 16.33 g/m*3 22.58 C 1.6 km/h
490 27-07-2019 09:00:00 24.725 C 16.66 g/m*3 24.73 C 3.6 km/h
491 27-07-2019 10:00:00 24.64167 C 18.42 g/m*3 24.64 C 2.55 km/h
492 27-07-2019 11:00:00 23.94167 C 18.78 g/m*3 23.94 C 0.53333 km/h
493 27-07-2019 12:00:00 23.75 C 17.91 g/m*3 23.75 C 2 km/h
494 27-07-2019 13:00:00 26 C 17.97 g/m*3 26 C 5.89167 km/h
495 27-07-2019 14:00:00 25.725 C 17.04 g/m*3 25.73 C 4.675 km/h
496 27-07-2019 15:00:00 25.04167 C 17.09 g/m*3 25.04 C 7.26667 km/h
497 27-07-2019 16:00:00 25.96667 C 16.65 g/m*3 25.97 C 11.56667 km/h
498 27-07-2019 17:00:00 24.49167 C 16.98 g/m*3 24.49 C 7.91667 km/h
499 27-07-2019 18:00:00 24.90833 C 17.35 g/m*3 24.91 C 6.28333 km/h
500 27-07-2019 19:00:00 23.84167 C 17.41 g/m*3 23.84 C 6.98333 km/h
Sensor: Nr:Datum:Temp:Abs-Feuchte:Windchill:Wind:
Aussen-T/F 501 27-07-2019 20:00:00 22.88333 C 17.34 g/m*3 22.88 C 5.74167 km/h
502 27-07-2019 21:00:00 22.075 C 16.7 g/m*3 22.08 C 6.975 km/h
503 27-07-2019 22:00:00 21.45 C 16.39 g/m*3 21.45 C 7.93333 km/h
504 27-07-2019 23:00:00 21.14167 C 16.39 g/m*3 21.14 C 3.21667 km/h
505 28-07-2019 00:00:00 20.83333 C 16.31 g/m*3 20.83 C 2.8 km/h
506 28-07-2019 01:00:00 20.70833 C 16.21 g/m*3 20.71 C 2.8 km/h
507 28-07-2019 02:00:00 20.7 C 16.2 g/m*3 20.7 C 1.73333 km/h
508 28-07-2019 03:00:00 20.68333 C 16.19 g/m*3 20.68 C 0.4 km/h
509 28-07-2019 04:00:00 20.60833 C 16.26 g/m*3 20.61 C 0.93333 km/h
510 28-07-2019 05:00:00 20.55 C 16.24 g/m*3 20.55 C 2.26667 km/h
511 28-07-2019 06:00:00 20.54167 C 16.23 g/m*3 20.54 C 2.13333 km/h
512 28-07-2019 07:00:00 20.69167 C 16.19 g/m*3 20.69 C 7.65 km/h
513 28-07-2019 08:00:00 20.71667 C 16.05 g/m*3 20.72 C 8.34167 km/h
514 28-07-2019 09:00:00 20.425 C 16 g/m*3 20.43 C 8.34167 km/h
515 28-07-2019 10:00:00 20.025 C 15.89 g/m*3 20.02 C 8.05833 km/h
516 28-07-2019 11:00:00 20.08333 C 15.95 g/m*3 20.08 C 5.89167 km/h
517 28-07-2019 12:00:00 20.50833 C 15.64 g/m*3 20.51 C 7.8 km/h
518 28-07-2019 13:00:00 20.30833 C 15.37 g/m*3 20.31 C 6.45 km/h
519 28-07-2019 14:00:00 19.98333 C 15.41 g/m*3 19.98 C 6.56667 km/h
520 28-07-2019 15:00:00 19.90833 C 15.16 g/m*3 19.91 C 7.79167 km/h
521 28-07-2019 16:00:00 19.81667 C 14.99 g/m*3 19.82 C 5.9 km/h
522 28-07-2019 17:00:00 19.45833 C 15.04 g/m*3 19.46 C 3.625 km/h
523 28-07-2019 18:00:00 19.175 C 14.89 g/m*3 19.18 C 3.475 km/h
524 28-07-2019 19:00:00 18.875 C 14.81 g/m*3 18.88 C 0.26667 km/h
525 28-07-2019 20:00:00 18.5 C 14.67 g/m*3 18.5 C 0 km/h
Sensor: Nr:Datum:Temp:Abs-Feuchte:Windchill:Wind:
Aussen-T/F 526 28-07-2019 21:00:00 18.175 C 14.56 g/m*3 18.18 C 0 km/h
527 28-07-2019 22:00:00 17.90833 C 14.47 g/m*3 17.91 C 0.4 km/h
528 28-07-2019 23:00:00 17.6 C 14.25 g/m*3 17.6 C 0 km/h
529 29-07-2019 00:00:00 17.325 C 14.02 g/m*3 17.33 C 0.13333 km/h
530 29-07-2019 01:00:00 17.10833 C 13.84 g/m*3 17.11 C 1.33333 km/h
531 29-07-2019 02:00:00 16.975 C 13.83 g/m*3 16.98 C 0 km/h
532 29-07-2019 03:00:00 16.84167 C 13.76 g/m*3 16.84 C 0 km/h
533 29-07-2019 04:00:00 16.80833 C 13.73 g/m*3 16.81 C 0 km/h
534 29-07-2019 05:00:00 16.74167 C 13.68 g/m*3 16.74 C 0 km/h
535 29-07-2019 06:00:00 16.725 C 13.66 g/m*3 16.73 C 0 km/h
536 29-07-2019 07:00:00 16.99167 C 13.85 g/m*3 16.99 C 2.13333 km/h
537 29-07-2019 08:00:00 17.46667 C 13.78 g/m*3 17.47 C 1.33333 km/h
538 29-07-2019 09:00:00 18.49167 C 13.65 g/m*3 18.49 C 6.04167 km/h
539 29-07-2019 10:00:00 19.39167 C 13.23 g/m*3 19.39 C 6.01667 km/h
540 29-07-2019 11:00:00 20.475 C 13.1 g/m*3 20.48 C 6.84167 km/h
541 29-07-2019 12:00:00 21.95 C 12.85 g/m*3 21.95 C 7.94167 km/h
542 29-07-2019 13:00:00 23.25 C 12.93 g/m*3 23.25 C 8.2 km/h
543 29-07-2019 14:00:00 24.41667 C 12.81 g/m*3 24.42 C 6.58333 km/h
544 29-07-2019 15:00:00 25.83333 C 12.4 g/m*3 25.83 C 10.88333 km/h
545 29-07-2019 16:00:00 27.6 C 12.17 g/m*3 27.6 C 7.79167 km/h
546 29-07-2019 17:00:00 28.23333 C 11.91 g/m*3 28.23 C 7.79167 km/h
547 29-07-2019 18:00:00 27.70833 C 11.64 g/m*3 27.71 C 4.94167 km/h
548 29-07-2019 19:00:00 28.1 C 11.85 g/m*3 28.1 C 6.29167 km/h
549 29-07-2019 20:00:00 26.33333 C 12.19 g/m*3 26.33 C 3.475 km/h
550 29-07-2019 21:00:00 23.05833 C 12.72 g/m*3 23.06 C 0 km/h
Sensor: Nr:Datum:Temp:Abs-Feuchte:Windchill:Wind:
Aussen-T/F 551 29-07-2019 22:00:00 20.75833 C 12.58 g/m*3 20.76 C 0 km/h
552 29-07-2019 23:00:00 19.34167 C 12.57 g/m*3 19.34 C 0 km/h
553 30-07-2019 00:00:00 17.95 C 12.42 g/m*3 17.95 C 0 km/h
554 30-07-2019 01:00:00 17.425 C 12.39 g/m*3 17.43 C 0 km/h
555 30-07-2019 02:00:00 16.6 C 12.08 g/m*3 16.6 C 0 km/h
556 30-07-2019 03:00:00 15.875 C 11.92 g/m*3 15.88 C 0 km/h
557 30-07-2019 04:00:00 15.4 C 11.84 g/m*3 15.4 C 0 km/h
558 30-07-2019 05:00:00 15.03333 C 11.76 g/m*3 15.03 C 0 km/h
559 30-07-2019 06:00:00 14.725 C 11.71 g/m*3 14.73 C 0 km/h
560 30-07-2019 07:00:00 14.93333 C 11.98 g/m*3 14.93 C 0 km/h
561 30-07-2019 08:00:00 15.88333 C 12.71 g/m*3 15.88 C 0 km/h
562 30-07-2019 09:00:00 17.4 C 13.61 g/m*3 17.4 C 0 km/h
563 30-07-2019 10:00:00 20.275 C 14.44 g/m*3 20.27 C 0 km/h
564 30-07-2019 11:00:00 24.96667 C 13.31 g/m*3 24.97 C 9.80833 km/h
565 30-07-2019 12:00:00 27.025 C 11.73 g/m*3 27.03 C 13.3 km/h
566 30-07-2019 13:00:00 28.24167 C 10.82 g/m*3 28.24 C 11.43333 km/h
567 30-07-2019 14:00:00 29.49167 C 11.11 g/m*3 29.49 C 13.43333 km/h
568 30-07-2019 15:00:00 30.69167 C 11.36 g/m*3 30.69 C 15.83333 km/h
569 30-07-2019 16:00:00 31.20833 C 11.08 g/m*3 31.21 C 16.5 km/h
570 30-07-2019 17:00:00 29.30833 C 11.05 g/m*3 29.31 C 17.56667 km/h
571 30-07-2019 18:00:00 26.625 C 10.27 g/m*3 26.63 C 12.48333 km/h
572 30-07-2019 19:00:00 24.55833 C 11.47 g/m*3 24.56 C 10.21667 km/h
573 30-07-2019 20:00:00 24.09167 C 12.06 g/m*3 24.09 C 6.16667 km/h
574 30-07-2019 21:00:00 23.675 C 12.12 g/m*3 23.68 C 0 km/h
575 30-07-2019 22:00:00 22.20833 C 12.33 g/m*3 22.21 C 0 km/h
Sensor: Nr:Datum:Temp:Abs-Feuchte:Windchill:Wind:
Aussen-T/F 576 30-07-2019 23:00:00 21.175 C 12.58 g/m*3 21.18 C 0 km/h
577 31-07-2019 00:00:00 20.55 C 12.46 g/m*3 20.55 C 0 km/h
578 31-07-2019 01:00:00 20.325 C 12.51 g/m*3 20.33 C 1.06667 km/h
579 31-07-2019 02:00:00 19.70833 C 12.18 g/m*3 19.71 C 0 km/h
580 31-07-2019 03:00:00 18.63333 C 11.97 g/m*3 18.63 C 0.26667 km/h
581 31-07-2019 04:00:00 18.575 C 12.24 g/m*3 18.58 C 0.93333 km/h
582 31-07-2019 05:00:00 17.83333 C 11.86 g/m*3 17.83 C 0 km/h
583 31-07-2019 06:00:00 17.64167 C 11.79 g/m*3 17.64 C 0 km/h
584 31-07-2019 07:00:00 17.375 C 11.83 g/m*3 17.38 C 0.26667 km/h
585 31-07-2019 08:00:00 18.44167 C 11.89 g/m*3 18.44 C 4.825 km/h
586 31-07-2019 09:00:00 20.01667 C 11.71 g/m*3 20.02 C 10.74167 km/h
587 31-07-2019 10:00:00 21.35833 C 10.99 g/m*3 21.36 C 13.16667 km/h
588 31-07-2019 11:00:00 21.60833 C 10.48 g/m*3 21.61 C 13.55833 km/h
589 31-07-2019 12:00:00 22.66667 C 10.25 g/m*3 22.67 C 16.63333 km/h
590 31-07-2019 13:00:00 23.69167 C 10.05 g/m*3 23.69 C 15.3 km/h
591 31-07-2019 14:00:00 24.76667 C 9.64 g/m*3 24.77 C 14.23333 km/h
592 31-07-2019 15:00:00 25.55 C 9.52 g/m*3 25.55 C 14.09167 km/h
593 31-07-2019 16:00:00 24.95833 C 9.72 g/m*3 24.96 C 13.7 km/h
594 31-07-2019 17:00:00 25.25 C 10.02 g/m*3 25.25 C 14.23333 km/h
595 31-07-2019 18:00:00 23.875 C 10.17 g/m*3 23.88 C 8.06667 km/h
596 31-07-2019 19:00:00 23.49167 C 10.25 g/m*3 23.49 C 6.975 km/h
597 31-07-2019 20:00:00 22.09167 C 10.88 g/m*3 22.09 C 1.46667 km/h
598 31-07-2019 21:00:00 19.925 C 10.27 g/m*3 19.93 C 0 km/h
599 31-07-2019 22:00:00 18.68333 C 9.76 g/m*3 18.68 C 0.4 km/h
600 31-07-2019 23:00:00 18.45 C 9.95 g/m*3 18.45 C 0.4 km/h
Sensor: Nr:Datum:Temp:Abs-Feuchte:Windchill:Wind:
Aussen-T/F 601 01-08-2019 00:00:00 16.88333 C 10.09 g/m*3 16.88 C 0.4 km/h
602 01-08-2019 01:00:00 15.525 C 9.93 g/m*3 15.53 C 0.13333 km/h
603 01-08-2019 02:00:00 14.73333 C 9.96 g/m*3 14.73 C 0.4 km/h
604 01-08-2019 03:00:00 14.15833 C 9.87 g/m*3 14.16 C 0.26667 km/h
605 01-08-2019 04:00:00 12.95833 C 9.61 g/m*3 12.96 C 0.66667 km/h
606 01-08-2019 05:00:00 12.625 C 9.62 g/m*3 12.63 C 0.4 km/h
607 01-08-2019 06:00:00 12.125 C 9.51 g/m*3 12.13 C 0 km/h
608 01-08-2019 07:00:00 12.55833 C 9.84 g/m*3 12.56 C 0.4 km/h
609 01-08-2019 08:00:00 15.175 C 10.56 g/m*3 15.18 C 0.93333 km/h
610 01-08-2019 09:00:00 17.56667 C 11.01 g/m*3 17.57 C 5.075 km/h
611 01-08-2019 10:00:00 20.3 C 10.98 g/m*3 20.3 C 10.5 km/h
612 01-08-2019 11:00:00 21.775 C 10.68 g/m*3 21.78 C 11.825 km/h
613 01-08-2019 12:00:00 22.45 C 10.66 g/m*3 22.45 C 9.275 km/h
614 01-08-2019 13:00:00 23.16667 C 11 g/m*3 23.17 C 6.43333 km/h
615 01-08-2019 14:00:00 24.15 C 10.84 g/m*3 24.15 C 8.60833 km/h
616 01-08-2019 15:00:00 24.575 C 10.99 g/m*3 24.58 C 8.45833 km/h
617 01-08-2019 16:00:00 24.4 C 11.13 g/m*3 24.4 C 7.375 km/h
618 01-08-2019 17:00:00 25.13333 C 11.06 g/m*3 25.13 C 6.28333 km/h
619 01-08-2019 18:00:00 26.35 C 11.11 g/m*3 26.35 C 7.53333 km/h
620 01-08-2019 19:00:00 26.26667 C 11.16 g/m*3 26.27 C 6.025 km/h
621 01-08-2019 20:00:00 24.10833 C 11.78 g/m*3 24.11 C 2.53333 km/h
622 01-08-2019 21:00:00 21.15 C 11.58 g/m*3 21.15 C 0 km/h
623 01-08-2019 22:00:00 19.76667 C 11.54 g/m*3 19.77 C 0 km/h
624 01-08-2019 23:00:00 19.24167 C 11.5 g/m*3 19.24 C 0 km/h
625 02-08-2019 00:00:00 18.81667 C 11.81 g/m*3 18.82 C 0 km/h
Sensor: Nr:Datum:Temp:Abs-Feuchte:Windchill:Wind:
Aussen-T/F 626 02-08-2019 01:00:00 18.34167 C 11.86 g/m*3 18.34 C 0 km/h
627 02-08-2019 02:00:00 17.86667 C 11.71 g/m*3 17.87 C 0 km/h
628 02-08-2019 03:00:00 16.94167 C 11.49 g/m*3 16.94 C 0 km/h
629 02-08-2019 04:00:00 16.31667 C 11.46 g/m*3 16.32 C 0 km/h
630 02-08-2019 05:00:00 16.2 C 11.54 g/m*3 16.2 C 0 km/h
631 02-08-2019 06:00:00 16.25 C 11.76 g/m*3 16.25 C 0 km/h
632 02-08-2019 07:00:00 16.925 C 12.17 g/m*3 16.93 C 0 km/h
633 02-08-2019 08:00:00 17.93333 C 12.6 g/m*3 17.93 C 0 km/h
634 02-08-2019 09:00:00 19.35 C 12.96 g/m*3 19.35 C 0 km/h
635 02-08-2019 10:00:00 20.71667 C 13 g/m*3 20.72 C 0 km/h
636 02-08-2019 11:00:00 22.16667 C 12.7 g/m*3 22.17 C 4.96667 km/h
637 02-08-2019 12:00:00 21.275 C 14.05 g/m*3 21.28 C 4.03333 km/h
638 02-08-2019 13:00:00 21.125 C 13.15 g/m*3 21.13 C 2.94167 km/h
639 02-08-2019 14:00:00 23.16667 C 12.81 g/m*3 23.17 C 5.625 km/h
640 02-08-2019 15:00:00 24.58333 C 12.67 g/m*3 24.58 C 7.38333 km/h
641 02-08-2019 16:00:00 25.59167 C 12.16 g/m*3 25.59 C 5.24167 km/h
642 02-08-2019 17:00:00 26.725 C 11.66 g/m*3 26.73 C 7.925 km/h
643 02-08-2019 18:00:00 25.00833 C 12.3 g/m*3 25.01 C 11.95833 km/h
644 02-08-2019 19:00:00 23.7 C 11.73 g/m*3 23.7 C 8.45833 km/h
645 02-08-2019 20:00:00 22.45833 C 12.04 g/m*3 22.46 C 1.6 km/h
646 02-08-2019 21:00:00 21.275 C 11.83 g/m*3 21.28 C 4.425 km/h
647 02-08-2019 22:00:00 20.95 C 11.93 g/m*3 20.95 C 9.80833 km/h
648 02-08-2019 23:00:00 18.975 C 12.83 g/m*3 18.98 C 4.96667 km/h
649 03-08-2019 00:00:00 17.75833 C 12.77 g/m*3 17.76 C 5.91667 km/h
650 03-08-2019 01:00:00 18.28333 C 12.89 g/m*3 18.28 C 10.89167 km/h
Sensor: Nr:Datum:Temp:Abs-Feuchte:Windchill:Wind:
Aussen-T/F 651 03-08-2019 02:00:00 18.24167 C 13.15 g/m*3 18.24 C 11.29167 km/h
652 03-08-2019 03:00:00 18.2 C 13.32 g/m*3 18.2 C 8.05833 km/h
653 03-08-2019 04:00:00 18.15 C 13.47 g/m*3 18.15 C 7.225 km/h
654 03-08-2019 05:00:00 18.14167 C 13.48 g/m*3 18.14 C 6.31667 km/h
655 03-08-2019 06:00:00 17.89167 C 13.32 g/m*3 17.89 C 5.75833 km/h
656 03-08-2019 07:00:00 17.84167 C 13.03 g/m*3 17.84 C 6.84167 km/h
657 03-08-2019 08:00:00 17.95 C 12.94 g/m*3 17.95 C 8.60833 km/h
658 03-08-2019 09:00:00 18.6 C 12.61 g/m*3 18.6 C 11.96667 km/h
659 03-08-2019 10:00:00 19.61667 C 12.76 g/m*3 19.62 C 11.3 km/h
660 03-08-2019 11:00:00 20.35833 C 12.91 g/m*3 20.36 C 11.16667 km/h
661 03-08-2019 12:00:00 21.55833 C 12.66 g/m*3 21.56 C 10.76667 km/h
662 03-08-2019 13:00:00 22.05 C 12.91 g/m*3 22.05 C 11.00833 km/h
663 03-08-2019 14:00:00 22.20833 C 12.93 g/m*3 22.21 C 10.49167 km/h
664 03-08-2019 15:00:00 23.80833 C 12.48 g/m*3 23.81 C 12.35833 km/h
665 03-08-2019 16:00:00 25.16667 C 12.35 g/m*3 25.17 C 12.36667 km/h
666 03-08-2019 17:00:00 25.49167 C 12.07 g/m*3 25.49 C 12.63333 km/h
667 03-08-2019 18:00:00 25.46667 C 12.05 g/m*3 25.47 C 11.825 km/h
668 03-08-2019 19:00:00 24.30833 C 12.07 g/m*3 24.31 C 11.15833 km/h
669 03-08-2019 20:00:00 22.61667 C 12.03 g/m*3 22.62 C 7.39167 km/h
670 03-08-2019 21:00:00 20.55833 C 11.74 g/m*3 20.56 C 3.875 km/h
671 03-08-2019 22:00:00 18.10833 C 11.47 g/m*3 18.11 C 0.13333 km/h
672 03-08-2019 23:00:00 17.05 C 11.51 g/m*3 17.05 C 0 km/h
673 04-08-2019 00:00:00 16.225 C 11.3 g/m*3 16.23 C 0 km/h
674 04-08-2019 01:00:00 15.125 C 11.05 g/m*3 15.13 C 0 km/h
675 04-08-2019 02:00:00 14 C 10.71 g/m*3 14 C 0 km/h
Sensor: Nr:Datum:Temp:Abs-Feuchte:Windchill:Wind:
Aussen-T/F 676 04-08-2019 03:00:00 13.3 C 10.5 g/m*3 13.3 C 0 km/h
677 04-08-2019 04:00:00 12.88333 C 10.37 g/m*3 12.88 C 0 km/h
678 04-08-2019 05:00:00 12.49167 C 10.22 g/m*3 12.49 C 0 km/h
679 04-08-2019 06:00:00 12.34167 C 10.22 g/m*3 12.34 C 0 km/h
680 04-08-2019 07:00:00 12.725 C 10.53 g/m*3 12.73 C 0 km/h
681 04-08-2019 08:00:00 13.73333 C 11.27 g/m*3 13.73 C 0 km/h
682 04-08-2019 09:00:00 15.34167 C 12.19 g/m*3 15.34 C 0.66667 km/h
683 04-08-2019 10:00:00 18.10833 C 12.88 g/m*3 18.11 C 3.33333 km/h
684 04-08-2019 11:00:00 21.31667 C 12.59 g/m*3 21.32 C 5.34167 km/h
685 04-08-2019 12:00:00 23.3 C 12.44 g/m*3 23.3 C 7.23333 km/h
686 04-08-2019 13:00:00 24.75 C 12.18 g/m*3 24.75 C 6.01667 km/h
687 04-08-2019 14:00:00 25.86667 C 11.74 g/m*3 25.87 C 6.7 km/h
688 04-08-2019 15:00:00 28.225 C 11.2 g/m*3 28.23 C 8.45833 km/h
689 04-08-2019 16:00:00 30.03333 C 10.48 g/m*3 30.03 C 9.4 km/h
690 04-08-2019 17:00:00 30.95833 C 10.24 g/m*3 30.96 C 8.45833 km/h
691 04-08-2019 18:00:00 30.79167 C 10.68 g/m*3 30.79 C 7.25 km/h
692 04-08-2019 19:00:00 28.75833 C 11.81 g/m*3 28.76 C 2.00833 km/h
693 04-08-2019 20:00:00 25.78333 C 12.49 g/m*3 25.78 C 0 km/h
694 04-08-2019 21:00:00 22.51667 C 12.06 g/m*3 22.52 C 0.26667 km/h
695 04-08-2019 22:00:00 21.95833 C 12.33 g/m*3 21.96 C 1.06667 km/h
696 04-08-2019 23:00:00 22.39167 C 12.16 g/m*3 22.39 C 2.53333 km/h
697 05-08-2019 00:00:00 22.875 C 11.8 g/m*3 22.88 C 1.46667 km/h
698 05-08-2019 01:00:00 21.65833 C 11.88 g/m*3 21.66 C 0 km/h
699 05-08-2019 02:00:00 20.28333 C 11.74 g/m*3 20.28 C 0 km/h
700 05-08-2019 03:00:00 19.6 C 11.76 g/m*3 19.6 C 0.26667 km/h
Sensor: Nr:Datum:Temp:Abs-Feuchte:Windchill:Wind:
Aussen-T/F 701 05-08-2019 04:00:00 19.31667 C 12.58 g/m*3 19.32 C 0 km/h
702 05-08-2019 05:00:00 19.325 C 12.96 g/m*3 19.33 C 1.74167 km/h
703 05-08-2019 06:00:00 18.28333 C 13.64 g/m*3 18.28 C 1.06667 km/h
704 05-08-2019 07:00:00 17.53333 C 13.79 g/m*3 17.53 C 1.46667 km/h
705 05-08-2019 08:00:00 17.64167 C 14.21 g/m*3 17.64 C 0.53333 km/h
706 05-08-2019 09:00:00 18.75 C 15.24 g/m*3 18.75 C 0.66667 km/h
707 05-08-2019 10:00:00 20.08333 C 16.08 g/m*3 20.08 C 1.06667 km/h
708 05-08-2019 11:00:00 21.99167 C 16.31 g/m*3 21.99 C 1.86667 km/h
709 05-08-2019 12:00:00 24.25 C 15.17 g/m*3 24.25 C 12.89167 km/h
710 05-08-2019 13:00:00 26 C 14.55 g/m*3 26 C 12.5 km/h
711 05-08-2019 14:00:00 27.11667 C 14.16 g/m*3 27.12 C 11.56667 km/h
712 05-08-2019 15:00:00 28.375 C 12.91 g/m*3 28.38 C 10.9 km/h
713 05-08-2019 16:00:00 28.875 C 11.79 g/m*3 28.88 C 12.23333 km/h
714 05-08-2019 17:00:00 28.225 C 11.59 g/m*3 28.23 C 11.43333 km/h
715 05-08-2019 18:00:00 27.7 C 11.28 g/m*3 27.7 C 9.15833 km/h
716 05-08-2019 19:00:00 26.7 C 11.75 g/m*3 26.7 C 5.89167 km/h
717 05-08-2019 20:00:00 25.1 C 12.4 g/m*3 25.1 C 1.6 km/h
718 05-08-2019 21:00:00 22.075 C 11.92 g/m*3 22.08 C 0 km/h
719 05-08-2019 22:00:00 20.53333 C 12.36 g/m*3 20.53 C 0 km/h
720 05-08-2019 23:00:00 19.28333 C 12.26 g/m*3 19.28 C 0 km/h
721 06-08-2019 00:00:00 18.00833 C 12.02 g/m*3 18.01 C 0 km/h
722 06-08-2019 01:00:00 17.10833 C 11.86 g/m*3 17.11 C 0 km/h
723 06-08-2019 02:00:00 17.00833 C 12 g/m*3 17.01 C 0 km/h
724 06-08-2019 03:00:00 17.45833 C 12.36 g/m*3 17.46 C 0.8 km/h
725 06-08-2019 04:00:00 17.20833 C 12.28 g/m*3 17.21 C 0.26667 km/h
Sensor: Nr:Datum:Temp:Abs-Feuchte:Windchill:Wind:
Aussen-T/F 726 06-08-2019 05:00:00 16.60833 C 12.11 g/m*3 16.61 C 0.13333 km/h
727 06-08-2019 06:00:00 16.66667 C 12.28 g/m*3 16.67 C 0.13333 km/h
728 06-08-2019 07:00:00 17.83333 C 12.66 g/m*3 17.83 C 2.40833 km/h
729 06-08-2019 08:00:00 18.675 C 12.96 g/m*3 18.68 C 3.475 km/h
730 06-08-2019 09:00:00 20.1 C 13.3 g/m*3 20.1 C 6.29167 km/h
731 06-08-2019 10:00:00 19.91667 C 14.4 g/m*3 19.92 C 2.14167 km/h
732 06-08-2019 11:00:00 19.65 C 15.1 g/m*3 19.65 C 0.8 km/h
733 06-08-2019 12:00:00 21.31667 C 15.35 g/m*3 21.32 C 4.40833 km/h
734 06-08-2019 13:00:00 22.325 C 15.31 g/m*3 22.33 C 7.66667 km/h
735 06-08-2019 14:00:00 23.61667 C 14.87 g/m*3 23.62 C 13.43333 km/h
736 06-08-2019 15:00:00 24.725 C 14.68 g/m*3 24.73 C 11.825 km/h
737 06-08-2019 16:00:00 25.39167 C 14.57 g/m*3 25.39 C 10.63333 km/h
738 06-08-2019 17:00:00 26.4 C 14.31 g/m*3 26.4 C 10.09167 km/h
739 06-08-2019 18:00:00 25.20833 C 14.4 g/m*3 25.21 C 4.84167 km/h
740 06-08-2019 19:00:00 22.54167 C 15.37 g/m*3 22.54 C 6.16667 km/h
741 06-08-2019 20:00:00 19.05 C 14.78 g/m*3 19.05 C 0.13333 km/h
742 06-08-2019 21:00:00 18.00833 C 14.32 g/m*3 18.01 C 0.53333 km/h
743 06-08-2019 22:00:00 17.51667 C 14.03 g/m*3 17.52 C 0.13333 km/h
744 06-08-2019 23:00:00 17.08333 C 13.8 g/m*3 17.08 C 1.075 km/h
745 07-08-2019 00:00:00 16.68333 C 13.49 g/m*3 16.68 C 0.13333 km/h
746 07-08-2019 01:00:00 16.3 C 13.25 g/m*3 16.3 C 0 km/h
747 07-08-2019 02:00:00 16.45833 C 13.45 g/m*3 16.46 C 1.2 km/h
748 07-08-2019 03:00:00 16.58333 C 13.58 g/m*3 16.58 C 0 km/h
749 07-08-2019 04:00:00 16.63333 C 13.73 g/m*3 16.63 C 0 km/h
750 07-08-2019 05:00:00 16.66667 C 13.76 g/m*3 16.67 C 0 km/h
Sensor: Nr:Datum:Temp:Abs-Feuchte:Windchill:Wind:
Aussen-T/F 751 07-08-2019 06:00:00 16.875 C 13.93 g/m*3 16.88 C 0.13333 km/h
752 07-08-2019 07:00:00 17.25 C 14.25 g/m*3 17.25 C 0.26667 km/h
753 07-08-2019 08:00:00 17.75833 C 14.69 g/m*3 17.76 C 0.66667 km/h
754 07-08-2019 09:00:00 18.25 C 15.12 g/m*3 18.25 C 4.15 km/h
755 07-08-2019 10:00:00 18.96667 C 15.68 g/m*3 18.97 C 1.6 km/h
756 07-08-2019 11:00:00 19.725 C 15.83 g/m*3 19.73 C 2.275 km/h
757 07-08-2019 12:00:00 20.83333 C 15.33 g/m*3 20.83 C 3.88333 km/h
758 07-08-2019 13:00:00 21.85833 C 14.69 g/m*3 21.86 C 5.76667 km/h
759 07-08-2019 14:00:00 22.525 C 15.07 g/m*3 22.53 C 7.375 km/h
760 07-08-2019 15:00:00 22.59167 C 14.64 g/m*3 22.59 C 10.48333 km/h
761 07-08-2019 16:00:00 22.08333 C 14.2 g/m*3 22.08 C 9.7 km/h
762 07-08-2019 17:00:00 22.53333 C 14.26 g/m*3 22.53 C 8.35 km/h
763 07-08-2019 18:00:00 23.35833 C 14.35 g/m*3 23.36 C 8.75 km/h
764 07-08-2019 19:00:00 22.38333 C 14.63 g/m*3 22.38 C 4.03333 km/h
765 07-08-2019 20:00:00 20.05833 C 14.48 g/m*3 20.06 C 2.55 km/h
766 07-08-2019 21:00:00 18.05 C 13.36 g/m*3 18.05 C 0.8 km/h
767 07-08-2019 22:00:00 16.74167 C 12.79 g/m*3 16.74 C 0.53333 km/h
768 07-08-2019 23:00:00 16.64167 C 12.63 g/m*3 16.64 C 1.06667 km/h
769 08-08-2019 00:00:00 15.76667 C 12.28 g/m*3 15.77 C 1.88333 km/h
770 08-08-2019 01:00:00 16.35 C 12.8 g/m*3 16.35 C 1.6 km/h
771 08-08-2019 02:00:00 16.45 C 12.88 g/m*3 16.45 C 0.66667 km/h
772 08-08-2019 03:00:00 16.44167 C 12.86 g/m*3 16.44 C 2.00833 km/h
773 08-08-2019 04:00:00 16.06667 C 12.68 g/m*3 16.07 C 0.13333 km/h
774 08-08-2019 05:00:00 15.31667 C 12.19 g/m*3 15.32 C 0.53333 km/h
775 08-08-2019 06:00:00 15.7 C 12.58 g/m*3 15.7 C 4.40833 km/h
Sensor: Nr:Datum:Temp:Abs-Feuchte:Windchill:Wind:
Aussen-T/F 776 08-08-2019 07:00:00 15.95 C 12.71 g/m*3 15.95 C 1.73333 km/h
777 08-08-2019 08:00:00 17.05833 C 13.24 g/m*3 17.06 C 8.75833 km/h
778 08-08-2019 09:00:00 18.55833 C 13.35 g/m*3 18.56 C 8.20833 km/h
779 08-08-2019 10:00:00 20.05833 C 12.66 g/m*3 20.06 C 11.29167 km/h
780 08-08-2019 11:00:00 21.74167 C 12.57 g/m*3 21.74 C 11.825 km/h
781 08-08-2019 12:00:00 22.99167 C 12.57 g/m*3 22.99 C 15.56667 km/h
782 08-08-2019 13:00:00 24.025 C 12.51 g/m*3 24.03 C 11.95833 km/h
783 08-08-2019 14:00:00 24.20833 C 12.62 g/m*3 24.21 C 10.1 km/h
784 08-08-2019 15:00:00 24.51667 C 12.81 g/m*3 24.52 C 7.51667 km/h
785 08-08-2019 16:00:00 26.58333 C 12.93 g/m*3 26.58 C 12.1 km/h
786 08-08-2019 17:00:00 27.18333 C 12.52 g/m*3 27.18 C 11.15833 km/h
787 08-08-2019 18:00:00 27.46667 C 12.5 g/m*3 27.47 C 8.875 km/h
788 08-08-2019 19:00:00 25.43333 C 14.64 g/m*3 25.43 C 0.94167 km/h
789 08-08-2019 20:00:00 23.575 C 14.35 g/m*3 23.58 C 0 km/h
790 08-08-2019 21:00:00 20.625 C 13.7 g/m*3 20.63 C 0 km/h
791 08-08-2019 22:00:00 19.15833 C 13.68 g/m*3 19.16 C 0 km/h
792 08-08-2019 23:00:00 18.16667 C 13.57 g/m*3 18.17 C 0 km/h
793 09-08-2019 00:00:00 17.15833 C 13.06 g/m*3 17.16 C 0 km/h
794 09-08-2019 01:00:00 16.25833 C 12.63 g/m*3 16.26 C 0 km/h
795 09-08-2019 02:00:00 15.875 C 12.44 g/m*3 15.88 C 0 km/h
796 09-08-2019 03:00:00 15.21667 C 12.05 g/m*3 15.22 C 0 km/h
797 09-08-2019 04:00:00 14.725 C 11.81 g/m*3 14.73 C 0 km/h
798 09-08-2019 05:00:00 14.44167 C 11.66 g/m*3 14.44 C 0 km/h
799 09-08-2019 06:00:00 14.56667 C 11.86 g/m*3 14.57 C 0 km/h
800 09-08-2019 07:00:00 15.40833 C 12.53 g/m*3 15.41 C 0 km/h
Sensor: Nr:Datum:Temp:Abs-Feuchte:Windchill:Wind:
Aussen-T/F 801 09-08-2019 08:00:00 16.44167 C 13.04 g/m*3 16.44 C 0.53333 km/h
802 09-08-2019 09:00:00 18.26667 C 13.71 g/m*3 18.27 C 0 km/h
803 09-08-2019 10:00:00 20.60833 C 14.46 g/m*3 20.61 C 0 km/h
804 09-08-2019 11:00:00 23.8 C 15.4 g/m*3 23.8 C 0.26667 km/h
805 09-08-2019 12:00:00 25.26667 C 15.38 g/m*3 25.27 C 0.26667 km/h
806 09-08-2019 13:00:00 25.275 C 15.53 g/m*3 25.28 C 0.13333 km/h
807 09-08-2019 14:00:00 24.75 C 17.55 g/m*3 24.75 C 0 km/h
808 09-08-2019 15:00:00 24.43333 C 18.3 g/m*3 24.43 C 0.26667 km/h
809 09-08-2019 16:00:00 27.25 C 18.24 g/m*3 27.25 C 4.55833 km/h
810 09-08-2019 17:00:00 25.45 C 19.24 g/m*3 25.45 C 0.8 km/h
811 09-08-2019 18:00:00 22.78333 C 18.05 g/m*3 22.78 C 1.33333 km/h
812 09-08-2019 19:00:00 21.5 C 17.55 g/m*3 21.5 C 8.59167 km/h
813 09-08-2019 20:00:00 19.63333 C 15.91 g/m*3 19.63 C 0.93333 km/h
814 09-08-2019 21:00:00 19.31667 C 15.86 g/m*3 19.32 C 0.93333 km/h
815 09-08-2019 22:00:00 19.30833 C 15.93 g/m*3 19.31 C 0.26667 km/h
816 09-08-2019 23:00:00 18.86667 C 15.52 g/m*3 18.87 C 0.13333 km/h
817 10-08-2019 00:00:00 18.775 C 15.53 g/m*3 18.77 C 0.26667 km/h
818 10-08-2019 01:00:00 18.73333 C 15.55 g/m*3 18.73 C 0 km/h
819 10-08-2019 02:00:00 18.50833 C 15.35 g/m*3 18.51 C 0 km/h
820 10-08-2019 03:00:00 18.29167 C 15.16 g/m*3 18.29 C 0.4 km/h
821 10-08-2019 04:00:00 18.11667 C 15 g/m*3 18.12 C 0 km/h
822 10-08-2019 05:00:00 17.53333 C 14.49 g/m*3 17.53 C 0 km/h
823 10-08-2019 06:00:00 17.45 C 14.42 g/m*3 17.45 C 0 km/h
824 10-08-2019 07:00:00 17.33333 C 14.32 g/m*3 17.33 C 4.96667 km/h
825 10-08-2019 08:00:00 17.41667 C 14.11 g/m*3 17.42 C 11.01667 km/h
Sensor: Nr:Datum:Temp:Abs-Feuchte:Windchill:Wind:
Aussen-T/F 826 10-08-2019 09:00:00 19.125 C 14.12 g/m*3 19.13 C 14.76667 km/h
827 10-08-2019 10:00:00 20.36667 C 14.04 g/m*3 20.37 C 14.36667 km/h
828 10-08-2019 11:00:00 21.43333 C 13.96 g/m*3 21.43 C 13.7 km/h
829 10-08-2019 12:00:00 22.38333 C 13.69 g/m*3 22.38 C 16.23333 km/h
830 10-08-2019 13:00:00 23.26667 C 13.23 g/m*3 23.27 C 16.76667 km/h
831 10-08-2019 14:00:00 23.83333 C 13.09 g/m*3 23.83 C 17.43333 km/h
832 10-08-2019 15:00:00 24.99167 C 12.75 g/m*3 24.99 C 17.43333 km/h
833 10-08-2019 16:00:00 25.24167 C 12.48 g/m*3 25.24 C 15.29167 km/h
834 10-08-2019 17:00:00 26.29167 C 12.19 g/m*3 26.29 C 15.3 km/h
835 10-08-2019 18:00:00 25.99167 C 11.94 g/m*3 25.99 C 13.43333 km/h
836 10-08-2019 19:00:00 25.00833 C 11.44 g/m*3 25.01 C 10.89167 km/h
837 10-08-2019 20:00:00 22.63333 C 12.33 g/m*3 22.63 C 2.275 km/h
838 10-08-2019 21:00:00 19.41667 C 12.14 g/m*3 19.42 C 0.26667 km/h
839 10-08-2019 22:00:00 17.71667 C 11.89 g/m*3 17.72 C 0 km/h
840 10-08-2019 23:00:00 16.45833 C 11.49 g/m*3 16.46 C 0.13333 km/h
841 11-08-2019 00:00:00 15.75833 C 11.39 g/m*3 15.76 C 0 km/h
842 11-08-2019 01:00:00 15.375 C 11.46 g/m*3 15.38 C 0 km/h
843 11-08-2019 02:00:00 15.7 C 11.57 g/m*3 15.7 C 0 km/h
844 11-08-2019 03:00:00 15.20833 C 11.23 g/m*3 15.21 C 0 km/h
845 11-08-2019 04:00:00 14.43333 C 10.94 g/m*3 14.43 C 0 km/h
846 11-08-2019 05:00:00 13.58333 C 10.6 g/m*3 13.58 C 0 km/h
847 11-08-2019 06:00:00 13.40833 C 10.78 g/m*3 13.41 C 0.26667 km/h
848 11-08-2019 07:00:00 14.04167 C 11.16 g/m*3 14.04 C 0 km/h
849 11-08-2019 08:00:00 14.9 C 11.64 g/m*3 14.9 C 0 km/h
850 11-08-2019 09:00:00 16.21667 C 12.02 g/m*3 16.22 C 0.53333 km/h
Sensor: Nr:Datum:Temp:Abs-Feuchte:Windchill:Wind:
Aussen-T/F 851 11-08-2019 10:00:00 19.375 C 11.62 g/m*3 19.38 C 9.00833 km/h
852 11-08-2019 11:00:00 21.26667 C 11.02 g/m*3 21.27 C 11.825 km/h
853 11-08-2019 12:00:00 22.09167 C 10.89 g/m*3 22.09 C 10.75833 km/h
854 11-08-2019 13:00:00 22.775 C 10.37 g/m*3 22.78 C 14.5 km/h
855 11-08-2019 14:00:00 22.89167 C 10.74 g/m*3 22.89 C 9.14167 km/h
856 11-08-2019 15:00:00 21.50833 C 11.57 g/m*3 21.51 C 3.2 km/h
857 11-08-2019 16:00:00 20.05 C 12.13 g/m*3 20.05 C 3.34167 km/h
858 11-08-2019 17:00:00 17.18333 C 12.7 g/m*3 17.18 C 2.26667 km/h
859 11-08-2019 18:00:00 16.475 C 12.68 g/m*3 16.48 C 1.73333 km/h
860 11-08-2019 19:00:00 16.075 C 12.27 g/m*3 16.08 C 1.06667 km/h
861 11-08-2019 20:00:00 15.775 C 12.23 g/m*3 15.78 C 0.26667 km/h
862 11-08-2019 21:00:00 15.23333 C 11.93 g/m*3 15.23 C 0.8 km/h
863 11-08-2019 22:00:00 14.3 C 11.28 g/m*3 14.3 C 0.66667 km/h
864 11-08-2019 23:00:00 14.24167 C 11.43 g/m*3 14.24 C 1.46667 km/h
865 12-08-2019 00:00:00 14.85833 C 11.77 g/m*3 14.86 C 2.4 km/h
866 12-08-2019 01:00:00 14.325 C 11.33 g/m*3 14.33 C 1.33333 km/h
867 12-08-2019 02:00:00 13.66667 C 11.04 g/m*3 13.67 C 0.26667 km/h
868 12-08-2019 03:00:00 13.125 C 10.74 g/m*3 13.13 C 0 km/h
869 12-08-2019 04:00:00 12.89167 C 10.7 g/m*3 12.89 C 0 km/h
870 12-08-2019 05:00:00 12.675 C 10.56 g/m*3 12.68 C 0 km/h
871 12-08-2019 06:00:00 12.69167 C 10.63 g/m*3 12.69 C 0 km/h
872 12-08-2019 07:00:00 13.05833 C 10.93 g/m*3 13.06 C 0 km/h
873 12-08-2019 08:00:00 13.5 C 11.23 g/m*3 13.5 C 0 km/h
874 12-08-2019 09:00:00 15.05 C 11.91 g/m*3 15.05 C 3.075 km/h
875 12-08-2019 10:00:00 17.65 C 12.41 g/m*3 17.65 C 6.58333 km/h
Sensor: Nr:Datum:Temp:Abs-Feuchte:Windchill:Wind:
Aussen-T/F 876 12-08-2019 11:00:00 20.08333 C 12.61 g/m*3 20.08 C 7.525 km/h
877 12-08-2019 12:00:00 21.275 C 12.22 g/m*3 21.28 C 8.60833 km/h
878 12-08-2019 13:00:00 21.775 C 11.64 g/m*3 21.78 C 10.89167 km/h
879 12-08-2019 14:00:00 22.55 C 12.07 g/m*3 22.55 C 11.3 km/h
880 12-08-2019 15:00:00 23.475 C 11.74 g/m*3 23.48 C 12.625 km/h
881 12-08-2019 16:00:00 22.54167 C 11.71 g/m*3 22.54 C 14.5 km/h
882 12-08-2019 17:00:00 17.89167 C 11.79 g/m*3 17.89 C 5.89167 km/h
883 12-08-2019 18:00:00 15.925 C 12.21 g/m*3 15.93 C 0.4 km/h
884 12-08-2019 19:00:00 15.925 C 12.48 g/m*3 15.93 C 0.53333 km/h
885 12-08-2019 20:00:00 15.54167 C 12.21 g/m*3 15.54 C 0.26667 km/h
886 12-08-2019 21:00:00 15.19167 C 12.14 g/m*3 15.19 C 0.26667 km/h
887 12-08-2019 22:00:00 14.975 C 12.04 g/m*3 14.98 C 0.66667 km/h
888 12-08-2019 23:00:00 14.01667 C 11.19 g/m*3 14.02 C 0.53333 km/h
889 13-08-2019 00:00:00 13.55833 C 11.06 g/m*3 13.56 C 0.26667 km/h
890 13-08-2019 01:00:00 13.025 C 10.71 g/m*3 13.03 C 0.26667 km/h
891 13-08-2019 02:00:00 12.83333 C 10.69 g/m*3 12.83 C 0.53333 km/h
892 13-08-2019 03:00:00 12.9 C 10.77 g/m*3 12.9 C 0 km/h
893 13-08-2019 04:00:00 13.275 C 11.05 g/m*3 13.28 C 2.14167 km/h
894 13-08-2019 05:00:00 13.18333 C 10.9 g/m*3 13.18 C 1.475 km/h
895 13-08-2019 06:00:00 12.75 C 10.63 g/m*3 12.75 C 0.53333 km/h
896 13-08-2019 07:00:00 12.9 C 10.74 g/m*3 12.9 C 2.13333 km/h
897 13-08-2019 08:00:00 13.39167 C 10.78 g/m*3 13.39 C 6.85 km/h
898 13-08-2019 09:00:00 14.85 C 11.03 g/m*3 14.85 C 6.96667 km/h
899 13-08-2019 10:00:00 16.225 C 10.31 g/m*3 16.23 C 10.08333 km/h
900 13-08-2019 11:00:00 17.175 C 9.83 g/m*3 17.18 C 10.625 km/h
Sensor: Nr:Datum:Temp:Abs-Feuchte:Windchill:Wind:
Aussen-T/F 901 13-08-2019 12:00:00 18.13333 C 9.82 g/m*3 18.13 C 11.15833 km/h
902 13-08-2019 13:00:00 19.025 C 9.08 g/m*3 19.02 C 10.76667 km/h
903 13-08-2019 14:00:00 19.875 C 9.06 g/m*3 19.88 C 11.01667 km/h
904 13-08-2019 15:00:00 21.275 C 9.37 g/m*3 21.28 C 13.56667 km/h
905 13-08-2019 16:00:00 21.38333 C 9.54 g/m*3 21.38 C 11.15833 km/h
906 13-08-2019 17:00:00 21.25833 C 9.39 g/m*3 21.26 C 9.41667 km/h
907 13-08-2019 18:00:00 21.175 C 9.59 g/m*3 21.18 C 8.73333 km/h
908 13-08-2019 19:00:00 18.53333 C 10.26 g/m*3 18.53 C 9.39167 km/h
909 13-08-2019 20:00:00 14.91667 C 11.06 g/m*3 14.92 C 0.93333 km/h
910 13-08-2019 21:00:00 13.99167 C 11.01 g/m*3 13.99 C 0 km/h
911 13-08-2019 22:00:00 13.63333 C 10.92 g/m*3 13.63 C 0 km/h
912 13-08-2019 23:00:00 13.36667 C 10.79 g/m*3 13.37 C 0 km/h
913 14-08-2019 00:00:00 13.05 C 10.59 g/m*3 13.05 C 0 km/h
914 14-08-2019 01:00:00 12.61667 C 10.32 g/m*3 12.62 C 0 km/h
915 14-08-2019 02:00:00 12.10833 C 10 g/m*3 12.11 C 0 km/h
916 14-08-2019 03:00:00 11.93333 C 9.98 g/m*3 11.93 C 0 km/h
917 14-08-2019 04:00:00 11.43333 C 9.68 g/m*3 11.43 C 0 km/h
918 14-08-2019 05:00:00 11.00833 C 9.51 g/m*3 11.01 C 0 km/h
919 14-08-2019 06:00:00 10.61667 C 9.3 g/m*3 10.62 C 0 km/h
920 14-08-2019 07:00:00 10.61667 C 9.38 g/m*3 10.62 C 0 km/h
921 14-08-2019 08:00:00 11.4 C 9.89 g/m*3 11.4 C 2.01667 km/h
922 14-08-2019 09:00:00 13.28333 C 10.79 g/m*3 13.28 C 5.625 km/h
923 14-08-2019 10:00:00 14.26667 C 11.26 g/m*3 14.27 C 0.13333 km/h
924 14-08-2019 11:00:00 15.66667 C 11.12 g/m*3 15.67 C 2 km/h
925 14-08-2019 12:00:00 18.1 C 9.7 g/m*3 18.1 C 8.70833 km/h
Sensor: Nr:Datum:Temp:Abs-Feuchte:Windchill:Wind:
Aussen-T/F 926 14-08-2019 13:00:00 19.59167 C 9.28 g/m*3 19.59 C 9.00833 km/h
927 14-08-2019 14:00:00 21.08333 C 9.23 g/m*3 21.08 C 11.00833 km/h
928 14-08-2019 15:00:00 22.60833 C 9.9 g/m*3 22.61 C 10.475 km/h
929 14-08-2019 16:00:00 23.74167 C 9.92 g/m*3 23.74 C 11.69167 km/h
930 14-08-2019 17:00:00 24.44167 C 9.98 g/m*3 24.44 C 13.43333 km/h
931 14-08-2019 18:00:00 24 C 10.17 g/m*3 24 C 11.96667 km/h
932 14-08-2019 19:00:00 22.31667 C 11.17 g/m*3 22.32 C 5.1 km/h
933 14-08-2019 20:00:00 19.675 C 11.46 g/m*3 19.68 C 0 km/h
934 14-08-2019 21:00:00 18.1 C 11.45 g/m*3 18.1 C 0 km/h
935 14-08-2019 22:00:00 17.63333 C 11.45 g/m*3 17.63 C 0 km/h
936 14-08-2019 23:00:00 17.4 C 11.34 g/m*3 17.4 C 0 km/h
937 15-08-2019 00:00:00 17.35833 C 11.32 g/m*3 17.36 C 0.26667 km/h
938 15-08-2019 01:00:00 17.38333 C 11.47 g/m*3 17.38 C 0.13333 km/h
939 15-08-2019 02:00:00 16.2 C 12.19 g/m*3 16.2 C 0.66667 km/h
940 15-08-2019 03:00:00 15.275 C 12.05 g/m*3 15.28 C 0 km/h
941 15-08-2019 04:00:00 14.90833 C 11.94 g/m*3 14.91 C 0.13333 km/h
942 15-08-2019 05:00:00 14.84167 C 11.96 g/m*3 14.84 C 0 km/h
943 15-08-2019 06:00:00 14.96667 C 12.14 g/m*3 14.97 C 0.4 km/h
944 15-08-2019 07:00:00 15.6 C 12.28 g/m*3 15.6 C 3.35833 km/h
945 15-08-2019 08:00:00 17.59167 C 12.58 g/m*3 17.59 C 11.025 km/h
946 15-08-2019 09:00:00 18.48333 C 12.88 g/m*3 18.48 C 11.025 km/h
947 15-08-2019 10:00:00 19.14167 C 13.31 g/m*3 19.14 C 12.76667 km/h
948 15-08-2019 11:00:00 19.28333 C 13.52 g/m*3 19.28 C 12.49167 km/h
949 15-08-2019 12:00:00 19.90833 C 13.69 g/m*3 19.91 C 12.89167 km/h
950 15-08-2019 13:00:00 18.94167 C 14.4 g/m*3 18.94 C 8.73333 km/h
Sensor: Nr:Datum:Temp:Abs-Feuchte:Windchill:Wind:
Aussen-T/F 951 15-08-2019 14:00:00 19.73333 C 14.63 g/m*3 19.73 C 10.20833 km/h
952 15-08-2019 15:00:00 20.79167 C 14.72 g/m*3 20.79 C 12.88333 km/h
953 15-08-2019 16:00:00 19.325 C 14.88 g/m*3 19.33 C 11.95833 km/h
954 15-08-2019 17:00:00 17.3 C 13.69 g/m*3 17.3 C 4.41667 km/h
955 15-08-2019 18:00:00 16.975 C 13.61 g/m*3 16.98 C 2.66667 km/h
956 15-08-2019 19:00:00 17.25 C 13.89 g/m*3 17.25 C 1.2 km/h
957 15-08-2019 20:00:00 17.09167 C 13.76 g/m*3 17.09 C 1.33333 km/h
958 15-08-2019 21:00:00 16.40833 C 13.23 g/m*3 16.41 C 2.54167 km/h
959 15-08-2019 22:00:00 15.93333 C 12.83 g/m*3 15.93 C 1.46667 km/h
960 15-08-2019 23:00:00 15.54167 C 12.59 g/m*3 15.54 C 1.06667 km/h
961 16-08-2019 00:00:00 15.29167 C 12.41 g/m*3 15.29 C 0.53333 km/h
962 16-08-2019 01:00:00 14.63333 C 11.94 g/m*3 14.63 C 0.13333 km/h
963 16-08-2019 02:00:00 14.575 C 11.99 g/m*3 14.58 C 0.8 km/h
964 16-08-2019 03:00:00 14.64167 C 12.04 g/m*3 14.64 C 0.4 km/h
965 16-08-2019 04:00:00 14.08333 C 11.64 g/m*3 14.08 C 0 km/h
966 16-08-2019 05:00:00 13.575 C 11.31 g/m*3 13.58 C 0.66667 km/h
967 16-08-2019 06:00:00 13.69167 C 11.48 g/m*3 13.69 C 2.26667 km/h
968 16-08-2019 07:00:00 14.18333 C 11.78 g/m*3 14.18 C 2.54167 km/h
969 16-08-2019 08:00:00 14.45833 C 11.8 g/m*3 14.46 C 5.1 km/h
970 16-08-2019 09:00:00 15.54167 C 11.89 g/m*3 15.54 C 9.29167 km/h
971 16-08-2019 10:00:00 16.26667 C 11.87 g/m*3 16.27 C 12.36667 km/h
972 16-08-2019 11:00:00 17.1 C 12 g/m*3 17.1 C 11.56667 km/h
973 16-08-2019 12:00:00 18.43333 C 12.04 g/m*3 18.43 C 12.9 km/h
974 16-08-2019 13:00:00 19.65 C 11.98 g/m*3 19.65 C 16.5 km/h
975 16-08-2019 14:00:00 20.4 C 11.97 g/m*3 20.4 C 12.76667 km/h
Sensor: Nr:Datum:Temp:Abs-Feuchte:Windchill:Wind:
Aussen-T/F 976 16-08-2019 15:00:00 21.90833 C 11.78 g/m*3 21.91 C 10.9 km/h
977 16-08-2019 16:00:00 23.63333 C 11.61 g/m*3 23.63 C 11.03333 km/h
978 16-08-2019 17:00:00 24.475 C 11.58 g/m*3 24.48 C 11.41667 km/h
979 16-08-2019 18:00:00 24.43333 C 11.61 g/m*3 24.43 C 9.94167 km/h
980 16-08-2019 19:00:00 23.41667 C 12.24 g/m*3 23.42 C 6.325 km/h
981 16-08-2019 20:00:00 20.075 C 12.43 g/m*3 20.08 C 0.13333 km/h
982 16-08-2019 21:00:00 17.75833 C 12.16 g/m*3 17.76 C 0 km/h
983 16-08-2019 22:00:00 16.88333 C 12.19 g/m*3 16.88 C 0 km/h
984 16-08-2019 23:00:00 16.23333 C 11.96 g/m*3 16.23 C 0 km/h
985 17-08-2019 00:00:00 15.69167 C 11.75 g/m*3 15.69 C 0 km/h
986 17-08-2019 01:00:00 15.86667 C 11.93 g/m*3 15.87 C 0 km/h
987 17-08-2019 02:00:00 15.76667 C 11.91 g/m*3 15.77 C 0 km/h
988 17-08-2019 03:00:00 15.76667 C 12.24 g/m*3 15.77 C 0 km/h
989 17-08-2019 04:00:00 15.69167 C 12.47 g/m*3 15.69 C 0 km/h
990 17-08-2019 05:00:00 15.63333 C 12.53 g/m*3 15.63 C 0 km/h
991 17-08-2019 06:00:00 15.65833 C 12.55 g/m*3 15.66 C 0 km/h
992 17-08-2019 07:00:00 16.13333 C 12.91 g/m*3 16.13 C 0.26667 km/h
993 17-08-2019 08:00:00 16.95833 C 13.1 g/m*3 16.96 C 3.075 km/h
994 17-08-2019 09:00:00 18.66667 C 12.81 g/m*3 18.67 C 7.76667 km/h
995 17-08-2019 10:00:00 19.01667 C 13.23 g/m*3 19.02 C 2.13333 km/h
996 17-08-2019 11:00:00 18.59167 C 13.81 g/m*3 18.59 C 1.60833 km/h
997 17-08-2019 12:00:00 19.275 C 14.11 g/m*3 19.27 C 2.14167 km/h
998 17-08-2019 13:00:00 20.68333 C 13.73 g/m*3 20.68 C 12.625 km/h
999 17-08-2019 14:00:00 21 C 13.72 g/m*3 21 C 10.35 km/h
1000 17-08-2019 15:00:00 21.31667 C 13.96 g/m*3 21.32 C 8.34167 km/h
Sensor: Nr:Datum:Temp:Abs-Feuchte:Windchill:Wind:
Aussen-T/F 1001 17-08-2019 16:00:00 21 C 13.91 g/m*3 21 C 8.85833 km/h
1002 17-08-2019 17:00:00 20.44167 C 13.82 g/m*3 20.44 C 4.55833 km/h
1003 17-08-2019 18:00:00 19.975 C 14.34 g/m*3 19.98 C 0.93333 km/h
1004 17-08-2019 19:00:00 19.125 C 14.49 g/m*3 19.13 C 0.4 km/h
1005 17-08-2019 20:00:00 18.325 C 14.26 g/m*3 18.33 C 0.13333 km/h
1006 17-08-2019 21:00:00 17.84167 C 14.1 g/m*3 17.84 C 0.26667 km/h
1007 17-08-2019 22:00:00 17.74167 C 14.22 g/m*3 17.74 C 0.4 km/h
1008 17-08-2019 23:00:00 17.525 C 14.13 g/m*3 17.52 C 0.13333 km/h
1009 18-08-2019 00:00:00 17.4 C 14.08 g/m*3 17.4 C 0 km/h
1010 18-08-2019 01:00:00 17.38333 C 14.15 g/m*3 17.38 C 0 km/h
1011 18-08-2019 02:00:00 17.225 C 14.08 g/m*3 17.23 C 0 km/h
1012 18-08-2019 03:00:00 17.2 C 14.06 g/m*3 17.2 C 0 km/h
1013 18-08-2019 04:00:00 17.18333 C 14.04 g/m*3 17.18 C 0 km/h
1014 18-08-2019 05:00:00 17.3 C 14.25 g/m*3 17.3 C 0 km/h
1015 18-08-2019 06:00:00 17.26667 C 14.26 g/m*3 17.27 C 0 km/h
1016 18-08-2019 07:00:00 17.34167 C 14.33 g/m*3 17.34 C 0 km/h
1017 18-08-2019 08:00:00 17.93333 C 14.84 g/m*3 17.93 C 0 km/h
1018 18-08-2019 09:00:00 18.85833 C 15.72 g/m*3 18.86 C 0 km/h
1019 18-08-2019 10:00:00 19.93333 C 16.77 g/m*3 19.93 C 1.33333 km/h
1020 18-08-2019 11:00:00 22.19167 C 18.07 g/m*3 22.19 C 9.00833 km/h
1021 18-08-2019 12:00:00 24.075 C 16.99 g/m*3 24.08 C 17.03333 km/h
1022 18-08-2019 13:00:00 24.4 C 16.88 g/m*3 24.4 C 15.98333 km/h
1023 18-08-2019 14:00:00 24.725 C 16.96 g/m*3 24.73 C 17.84167 km/h
1024 18-08-2019 15:00:00 24.7 C 17.16 g/m*3 24.7 C 15.03333 km/h
1025 18-08-2019 16:00:00 24.99167 C 16.74 g/m*3 24.99 C 14.9 km/h
Sensor: Nr:Datum:Temp:Abs-Feuchte:Windchill:Wind:
Aussen-T/F 1026 18-08-2019 17:00:00 24.35 C 16.14 g/m*3 24.35 C 15.83333 km/h
1027 18-08-2019 18:00:00 20.49167 C 16.3 g/m*3 20.49 C 1.33333 km/h
1028 18-08-2019 19:00:00 20.00833 C 16.22 g/m*3 20.01 C 1.2 km/h
1029 18-08-2019 20:00:00 19.45833 C 15.85 g/m*3 19.46 C 1.86667 km/h
1030 18-08-2019 21:00:00 18.8 C 15.19 g/m*3 18.8 C 0.93333 km/h
1031 18-08-2019 22:00:00 17.65 C 14.22 g/m*3 17.65 C 0.8 km/h
1032 18-08-2019 23:00:00 16.59167 C 13.41 g/m*3 16.59 C 1.06667 km/h
1033 19-08-2019 00:00:00 16.14167 C 13.19 g/m*3 16.14 C 0.53333 km/h
1034 19-08-2019 01:00:00 16.10833 C 13.17 g/m*3 16.11 C 0.93333 km/h
1035 19-08-2019 02:00:00 15.81667 C 12.94 g/m*3 15.82 C 0.26667 km/h
1036 19-08-2019 03:00:00 15.38333 C 12.61 g/m*3 15.38 C 0 km/h
1037 19-08-2019 04:00:00 14.78333 C 12.17 g/m*3 14.78 C 0 km/h
1038 19-08-2019 05:00:00 15.125 C 12.53 g/m*3 15.13 C 0.13333 km/h
1039 19-08-2019 06:00:00 14.61667 C 12.13 g/m*3 14.62 C 0 km/h
1040 19-08-2019 07:00:00 15.025 C 12.48 g/m*3 15.03 C 2 km/h
1041 19-08-2019 08:00:00 15.65833 C 12.95 g/m*3 15.66 C 0.93333 km/h
1042 19-08-2019 09:00:00 15.89167 C 13.07 g/m*3 15.89 C 6.03333 km/h
1043 19-08-2019 10:00:00 16.63333 C 12.41 g/m*3 16.63 C 7.79167 km/h
1044 19-08-2019 11:00:00 18.55833 C 11.87 g/m*3 18.56 C 10.36667 km/h
1045 19-08-2019 12:00:00 20.275 C 11.33 g/m*3 20.27 C 11.95833 km/h
1046 19-08-2019 13:00:00 21.525 C 11.02 g/m*3 21.53 C 11.69167 km/h
1047 19-08-2019 14:00:00 22.79167 C 10.93 g/m*3 22.79 C 13.7 km/h
1048 19-08-2019 15:00:00 23.46667 C 10.69 g/m*3 23.47 C 13.55833 km/h
1049 19-08-2019 16:00:00 23.78333 C 10.89 g/m*3 23.78 C 11.425 km/h
1050 19-08-2019 17:00:00 24.025 C 10.55 g/m*3 24.03 C 11.68333 km/h
Sensor: Nr:Datum:Temp:Abs-Feuchte:Windchill:Wind:
Aussen-T/F 1051 19-08-2019 18:00:00 23.51667 C 10.69 g/m*3 23.52 C 7.65 km/h
1052 19-08-2019 19:00:00 22.95833 C 11.55 g/m*3 22.96 C 4.7 km/h
1053 19-08-2019 20:00:00 19.71667 C 11.84 g/m*3 19.72 C 0.8 km/h
1054 19-08-2019 21:00:00 17.30833 C 11.03 g/m*3 17.31 C 0 km/h
1055 19-08-2019 22:00:00 16.51667 C 11.29 g/m*3 16.52 C 0 km/h
1056 19-08-2019 23:00:00 15.21667 C 10.86 g/m*3 15.22 C 0.13333 km/h
1057 20-08-2019 00:00:00 13.975 C 10.43 g/m*3 13.98 C 0 km/h
1058 20-08-2019 01:00:00 13.21667 C 10.16 g/m*3 13.22 C 0.53333 km/h
1059 20-08-2019 02:00:00 12.825 C 10.09 g/m*3 12.83 C 2.13333 km/h
1060 20-08-2019 03:00:00 12.21667 C 9.79 g/m*3 12.22 C 0 km/h
1061 20-08-2019 04:00:00 11.34167 C 9.46 g/m*3 11.34 C 0.4 km/h
1062 20-08-2019 05:00:00 10.9 C 9.32 g/m*3 10.9 C 0.13333 km/h
1063 20-08-2019 06:00:00 10.425 C 9.12 g/m*3 10.43 C 0.26667 km/h
1064 20-08-2019 07:00:00 10.78333 C 9.41 g/m*3 10.78 C 0 km/h
1065 20-08-2019 08:00:00 11.425 C 9.83 g/m*3 11.43 C 0.93333 km/h
1066 20-08-2019 09:00:00 12.61667 C 10.53 g/m*3 12.62 C 1.06667 km/h
1067 20-08-2019 10:00:00 15.26667 C 11.21 g/m*3 15.27 C 0.66667 km/h
1068 20-08-2019 11:00:00 17.375 C 10.89 g/m*3 17.38 C 2.13333 km/h
1069 20-08-2019 12:00:00 18.625 C 10.65 g/m*3 18.63 C 1.46667 km/h
1070 20-08-2019 13:00:00 19.525 C 10.45 g/m*3 19.52 C 3.875 km/h
1071 20-08-2019 14:00:00 20.43333 C 10.16 g/m*3 20.43 C 4.54167 km/h
1072 20-08-2019 15:00:00 21.10833 C 10.37 g/m*3 21.11 C 5.08333 km/h
1073 20-08-2019 16:00:00 21.41667 C 11.04 g/m*3 21.42 C 2.13333 km/h
1074 20-08-2019 17:00:00 20.68333 C 11.59 g/m*3 20.68 C 2.40833 km/h
1075 20-08-2019 18:00:00 20.375 C 13.06 g/m*3 20.38 C 0.26667 km/h
Sensor: Nr:Datum:Temp:Abs-Feuchte:Windchill:Wind:
Aussen-T/F 1076 20-08-2019 19:00:00 18.88333 C 12.11 g/m*3 18.88 C 0.13333 km/h
1077 20-08-2019 20:00:00 17.58333 C 11.35 g/m*3 17.58 C 0.8 km/h
1078 20-08-2019 21:00:00 16.76667 C 11.4 g/m*3 16.77 C 0.26667 km/h
1079 20-08-2019 22:00:00 15.925 C 11.36 g/m*3 15.93 C 0.4 km/h
1080 20-08-2019 23:00:00 15.175 C 11.02 g/m*3 15.18 C 0.26667 km/h
1081 21-08-2019 00:00:00 14.11667 C 10.59 g/m*3 14.12 C 0 km/h
1082 21-08-2019 01:00:00 13.55833 C 10.42 g/m*3 13.56 C 0 km/h
1083 21-08-2019 02:00:00 12.65833 C 10.08 g/m*3 12.66 C 0.13333 km/h
1084 21-08-2019 03:00:00 11.99167 C 9.85 g/m*3 11.99 C 0.13333 km/h
1085 21-08-2019 04:00:00 11.30833 C 9.54 g/m*3 11.31 C 0.13333 km/h
1086 21-08-2019 05:00:00 10.73333 C 9.25 g/m*3 10.73 C 0 km/h
1087 21-08-2019 06:00:00 10.325 C 9.1 g/m*3 10.33 C 0 km/h
1088 21-08-2019 07:00:00 10.35833 C 9.16 g/m*3 10.36 C 0.26667 km/h
1089 21-08-2019 08:00:00 10.85833 C 9.52 g/m*3 10.86 C 0.13333 km/h
1090 21-08-2019 09:00:00 11.86667 C 10.15 g/m*3 11.87 C 0.66667 km/h
1091 21-08-2019 10:00:00 13.33333 C 11.14 g/m*3 13.33 C 0 km/h
1092 21-08-2019 11:00:00 15.80833 C 12.13 g/m*3 15.81 C 0.93333 km/h
1093 21-08-2019 12:00:00 18.54167 C 11.58 g/m*3 18.54 C 1.46667 km/h
1094 21-08-2019 13:00:00 20.375 C 10.25 g/m*3 20.38 C 5.38333 km/h
1095 21-08-2019 14:00:00 21.79167 C 10.04 g/m*3 21.79 C 6.575 km/h
1096 21-08-2019 15:00:00 22.95833 C 10.3 g/m*3 22.96 C 2.13333 km/h
1097 21-08-2019 16:00:00 24.475 C 9.39 g/m*3 24.48 C 7.23333 km/h
1098 21-08-2019 17:00:00 24.65 C 9.4 g/m*3 24.65 C 4.28333 km/h
1099 21-08-2019 18:00:00 24.64167 C 10 g/m*3 24.64 C 4.94167 km/h
1100 21-08-2019 19:00:00 23.46667 C 11.61 g/m*3 23.47 C 1.6 km/h
Sensor: Nr:Datum:Temp:Abs-Feuchte:Windchill:Wind:
Aussen-T/F 1101 21-08-2019 20:00:00 19.875 C 11.09 g/m*3 19.88 C 0 km/h
1102 21-08-2019 21:00:00 17.49167 C 9.97 g/m*3 17.49 C 0.4 km/h
1103 21-08-2019 22:00:00 16.29167 C 9.59 g/m*3 16.29 C 0 km/h
1104 21-08-2019 23:00:00 15.05833 C 9.99 g/m*3 15.06 C 0 km/h
1105 22-08-2019 00:00:00 13.475 C 9.75 g/m*3 13.48 C 0 km/h
1106 22-08-2019 01:00:00 12.41667 C 9.41 g/m*3 12.42 C 0 km/h
1107 22-08-2019 02:00:00 11.66667 C 9.25 g/m*3 11.67 C 0 km/h
1108 22-08-2019 03:00:00 11.125 C 9.12 g/m*3 11.13 C 0 km/h
1109 22-08-2019 04:00:00 10.55833 C 8.92 g/m*3 10.56 C 0 km/h
1110 22-08-2019 05:00:00 9.99167 C 8.7 g/m*3 9.99 C 0 km/h
1111 22-08-2019 06:00:00 9.71667 C 8.65 g/m*3 9.72 C 0 km/h
1112 22-08-2019 07:00:00 9.7 C 8.73 g/m*3 9.7 C 0 km/h
1113 22-08-2019 08:00:00 10.30833 C 9.13 g/m*3 10.31 C 0 km/h
1114 22-08-2019 09:00:00 11.525 C 9.93 g/m*3 11.53 C 0 km/h
1115 22-08-2019 10:00:00 13.51667 C 11.07 g/m*3 13.52 C 0 km/h
1116 22-08-2019 11:00:00 16.925 C 11.87 g/m*3 16.93 C 0 km/h
1117 22-08-2019 12:00:00 20.11667 C 11.46 g/m*3 20.12 C 3.46667 km/h
1118 22-08-2019 13:00:00 22.71667 C 10.89 g/m*3 22.72 C 5.09167 km/h
1119 22-08-2019 14:00:00 24.08333 C 10.49 g/m*3 24.08 C 6.71667 km/h
1120 22-08-2019 15:00:00 25.89167 C 9.9 g/m*3 25.89 C 6.84167 km/h
1121 22-08-2019 16:00:00 27.33333 C 9.76 g/m*3 27.33 C 6.16667 km/h
1122 22-08-2019 17:00:00 28.01667 C 9.41 g/m*3 28.02 C 6.16667 km/h
1123 22-08-2019 18:00:00 28.38333 C 9.67 g/m*3 28.38 C 3.46667 km/h
1124 22-08-2019 19:00:00 26.06667 C 11.97 g/m*3 26.07 C 0.26667 km/h
1125 22-08-2019 20:00:00 21.49167 C 11.04 g/m*3 21.49 C 0.26667 km/h
Sensor: Nr:Datum:Temp:Abs-Feuchte:Windchill:Wind:
Aussen-T/F 1126 22-08-2019 21:00:00 18.25 C 10.74 g/m*3 18.25 C 0 km/h
1127 22-08-2019 22:00:00 16.40833 C 10.6 g/m*3 16.41 C 0 km/h
1128 22-08-2019 23:00:00 14.90833 C 10.12 g/m*3 14.91 C 0 km/h
1129 23-08-2019 00:00:00 13.94167 C 9.97 g/m*3 13.94 C 0 km/h
1130 23-08-2019 01:00:00 13.26667 C 9.81 g/m*3 13.27 C 0 km/h
1131 23-08-2019 02:00:00 12.775 C 9.72 g/m*3 12.78 C 0 km/h
1132 23-08-2019 03:00:00 11.975 C 9.49 g/m*3 11.98 C 0 km/h
1133 23-08-2019 04:00:00 11.56667 C 9.45 g/m*3 11.57 C 0 km/h
1134 23-08-2019 05:00:00 11.06667 C 9.24 g/m*3 11.07 C 0 km/h
1135 23-08-2019 06:00:00 10.66667 C 9.14 g/m*3 10.67 C 0 km/h
1136 23-08-2019 07:00:00 10.7 C 9.25 g/m*3 10.7 C 0 km/h
1137 23-08-2019 08:00:00 11.3 C 9.68 g/m*3 11.3 C 0 km/h
1138 23-08-2019 09:00:00 12.35 C 10.35 g/m*3 12.35 C 0 km/h
1139 23-08-2019 10:00:00 14.34167 C 11.59 g/m*3 14.34 C 0 km/h
1140 23-08-2019 11:00:00 17.6 C 12.75 g/m*3 17.6 C 0 km/h
1141 23-08-2019 12:00:00 21.16667 C 12.76 g/m*3 21.17 C 1.46667 km/h
1142 23-08-2019 13:00:00 24.1 C 11.12 g/m*3 24.1 C 3.86667 km/h
1143 23-08-2019 14:00:00 26.13333 C 10.36 g/m*3 26.13 C 7.925 km/h
1144 23-08-2019 15:00:00 27.85833 C 10.32 g/m*3 27.86 C 6.84167 km/h
1145 23-08-2019 16:00:00 29.15 C 10.11 g/m*3 29.15 C 9.28333 km/h
1146 23-08-2019 17:00:00 29.375 C 9.97 g/m*3 29.38 C 12.5 km/h
1147 23-08-2019 18:00:00 28.94167 C 9.47 g/m*3 28.94 C 12.36667 km/h
1148 23-08-2019 19:00:00 27.20833 C 12.06 g/m*3 27.21 C 1.875 km/h
1149 23-08-2019 20:00:00 23.01667 C 11.42 g/m*3 23.02 C 0.66667 km/h
1150 23-08-2019 21:00:00 20.16667 C 11.34 g/m*3 20.17 C 0 km/h
Sensor: Nr:Datum:Temp:Abs-Feuchte:Windchill:Wind:
Aussen-T/F 1151 23-08-2019 22:00:00 17.85 C 11.09 g/m*3 17.85 C 0 km/h
1152 23-08-2019 23:00:00 16.23333 C 10.61 g/m*3 16.23 C 0 km/h
1153 24-08-2019 00:00:00 14.96667 C 10.33 g/m*3 14.97 C 0 km/h
1154 24-08-2019 01:00:00 14.05833 C 10.23 g/m*3 14.06 C 0 km/h
1155 24-08-2019 02:00:00 13.425 C 10.07 g/m*3 13.43 C 0 km/h
1156 24-08-2019 03:00:00 12.7 C 9.88 g/m*3 12.7 C 0 km/h
1157 24-08-2019 04:00:00 12.06667 C 9.67 g/m*3 12.07 C 0 km/h
1158 24-08-2019 05:00:00 11.66667 C 9.58 g/m*3 11.67 C 0 km/h
1159 24-08-2019 06:00:00 11.425 C 9.54 g/m*3 11.43 C 0 km/h
1160 24-08-2019 07:00:00 11.575 C 9.75 g/m*3 11.58 C 0 km/h
1161 24-08-2019 08:00:00 12.06667 C 10.08 g/m*3 12.07 C 0 km/h
1162 24-08-2019 09:00:00 13.23333 C 10.82 g/m*3 13.23 C 0 km/h
1163 24-08-2019 10:00:00 15.5 C 12.09 g/m*3 15.5 C 0.4 km/h
1164 24-08-2019 11:00:00 18.88333 C 12.89 g/m*3 18.88 C 0.66667 km/h
1165 24-08-2019 12:00:00 22.24167 C 13.01 g/m*3 22.24 C 2.66667 km/h
1166 24-08-2019 13:00:00 25.4 C 12.28 g/m*3 25.4 C 7.78333 km/h
1167 24-08-2019 14:00:00 27.05 C 11.27 g/m*3 27.05 C 8.58333 km/h
1168 24-08-2019 15:00:00 28.69167 C 10.64 g/m*3 28.69 C 8.875 km/h
1169 24-08-2019 16:00:00 29.81667 C 10.33 g/m*3 29.82 C 11.69167 km/h
1170 24-08-2019 17:00:00 30.29167 C 10.09 g/m*3 30.29 C 11.15833 km/h
1171 24-08-2019 18:00:00 30.66667 C 10.95 g/m*3 30.67 C 9.55 km/h
1172 24-08-2019 19:00:00 28.56667 C 13.72 g/m*3 28.57 C 1.6 km/h
1173 24-08-2019 20:00:00 24.29167 C 13.11 g/m*3 24.29 C 0.66667 km/h
1174 24-08-2019 21:00:00 22.01667 C 12.87 g/m*3 22.02 C 0.4 km/h
1175 24-08-2019 22:00:00 19.78333 C 12.64 g/m*3 19.78 C 0.13333 km/h
Sensor: Nr:Datum:Temp:Abs-Feuchte:Windchill:Wind:
Aussen-T/F 1176 24-08-2019 23:00:00 18.175 C 12.16 g/m*3 18.18 C 0 km/h
1177 25-08-2019 00:00:00 17.35833 C 12.09 g/m*3 17.36 C 0 km/h
1178 25-08-2019 01:00:00 16.96667 C 11.95 g/m*3 16.97 C 0.26667 km/h
1179 25-08-2019 02:00:00 16.15833 C 11.73 g/m*3 16.16 C 0 km/h
1180 25-08-2019 03:00:00 15.53333 C 11.66 g/m*3 15.53 C 0.26667 km/h
1181 25-08-2019 04:00:00 15.19167 C 11.47 g/m*3 15.19 C 0.13333 km/h
1182 25-08-2019 05:00:00 14.65833 C 11.28 g/m*3 14.66 C 0 km/h
1183 25-08-2019 06:00:00 14.41667 C 11.24 g/m*3 14.42 C 0 km/h
1184 25-08-2019 07:00:00 14.80833 C 11.59 g/m*3 14.81 C 0.26667 km/h
1185 25-08-2019 08:00:00 15.84167 C 12.21 g/m*3 15.84 C 0 km/h
1186 25-08-2019 09:00:00 17.2 C 12.94 g/m*3 17.2 C 0 km/h
1187 25-08-2019 10:00:00 18.78333 C 13.62 g/m*3 18.78 C 0 km/h
1188 25-08-2019 11:00:00 21.64167 C 14.72 g/m*3 21.64 C 1.46667 km/h
1189 25-08-2019 12:00:00 24.54167 C 15.7 g/m*3 24.54 C 3.33333 km/h
1190 25-08-2019 13:00:00 26.76667 C 15.98 g/m*3 26.77 C 3.33333 km/h
1191 25-08-2019 14:00:00 28.375 C 15.82 g/m*3 28.38 C 4.28333 km/h
1192 25-08-2019 15:00:00 30.28333 C 15.83 g/m*3 30.28 C 5.5 km/h
1193 25-08-2019 16:00:00 31.18333 C 16.05 g/m*3 31.18 C 6.05833 km/h
1194 25-08-2019 17:00:00 32.3 C 16.12 g/m*3 32.3 C 3.875 km/h
1195 25-08-2019 18:00:00 30.05 C 16.09 g/m*3 30.05 C 4.425 km/h
1196 25-08-2019 19:00:00 27.125 C 16.41 g/m*3 27.13 C 0.13333 km/h
1197 25-08-2019 20:00:00 24.31667 C 15.82 g/m*3 24.32 C 0.13333 km/h
1198 25-08-2019 21:00:00 22.98333 C 15.85 g/m*3 22.98 C 0 km/h
1199 25-08-2019 22:00:00 21.19167 C 15.27 g/m*3 21.19 C 0 km/h
1200 25-08-2019 23:00:00 20.10833 C 14.86 g/m*3 20.11 C 0 km/h
Sensor: Nr:Datum:Temp:Abs-Feuchte:Windchill:Wind:
Aussen-T/F 1201 26-08-2019 00:00:00 19.475 C 14.76 g/m*3 19.48 C 0 km/h
1202 26-08-2019 01:00:00 19.14167 C 14.65 g/m*3 19.14 C 0 km/h
1203 26-08-2019 02:00:00 18.53333 C 14.39 g/m*3 18.53 C 0.13333 km/h
1204 26-08-2019 03:00:00 18.025 C 14.1 g/m*3 18.02 C 0 km/h
1205 26-08-2019 04:00:00 17.41667 C 13.8 g/m*3 17.42 C 0 km/h
1206 26-08-2019 05:00:00 17.14167 C 13.74 g/m*3 17.14 C 0.13333 km/h
1207 26-08-2019 06:00:00 16.76667 C 13.46 g/m*3 16.77 C 0 km/h
1208 26-08-2019 07:00:00 16.71667 C 13.55 g/m*3 16.72 C 0 km/h
1209 26-08-2019 08:00:00 17.475 C 14.29 g/m*3 17.48 C 0 km/h
1210 26-08-2019 09:00:00 18.55 C 15.21 g/m*3 18.55 C 0 km/h
1211 26-08-2019 10:00:00 20.15833 C 16.12 g/m*3 20.16 C 0.13333 km/h
1212 26-08-2019 11:00:00 22.95 C 17.15 g/m*3 22.95 C 0.93333 km/h
1213 26-08-2019 12:00:00 25.70833 C 17.45 g/m*3 25.71 C 1.86667 km/h
1214 26-08-2019 13:00:00 28.3 C 16.68 g/m*3 28.3 C 5.075 km/h
1215 26-08-2019 14:00:00 30.01667 C 15.99 g/m*3 30.02 C 5.08333 km/h
1216 26-08-2019 15:00:00 30.85833 C 16.04 g/m*3 30.86 C 4.95 km/h
1217 26-08-2019 16:00:00 28.55 C 16.58 g/m*3 28.55 C 2 km/h
1218 26-08-2019 17:00:00 27.475 C 17.77 g/m*3 27.48 C 0 km/h
1219 26-08-2019 18:00:00 27.10833 C 18.14 g/m*3 27.11 C 0 km/h
1220 26-08-2019 19:00:00 28.06667 C 18.01 g/m*3 28.07 C 0 km/h
1221 26-08-2019 20:00:00 24.69167 C 16.65 g/m*3 24.69 C 0 km/h
1222 26-08-2019 21:00:00 22.45 C 16.03 g/m*3 22.45 C 0 km/h
1223 26-08-2019 22:00:00 21.09167 C 15.61 g/m*3 21.09 C 0 km/h
1224 26-08-2019 23:00:00 20.175 C 15.34 g/m*3 20.18 C 0.13333 km/h
1225 27-08-2019 00:00:00 19.40833 C 15.01 g/m*3 19.41 C 0 km/h
Sensor: Nr:Datum:Temp:Abs-Feuchte:Windchill:Wind:
Aussen-T/F 1226 27-08-2019 01:00:00 19.01667 C 15.01 g/m*3 19.02 C 0 km/h
1227 27-08-2019 02:00:00 18.39167 C 14.59 g/m*3 18.39 C 0 km/h
1228 27-08-2019 03:00:00 17.91667 C 14.38 g/m*3 17.92 C 0.13333 km/h
1229 27-08-2019 04:00:00 17.55833 C 14.1 g/m*3 17.56 C 0 km/h
1230 27-08-2019 05:00:00 17.15833 C 13.88 g/m*3 17.16 C 0 km/h
1231 27-08-2019 06:00:00 16.79167 C 13.62 g/m*3 16.79 C 0 km/h
1232 27-08-2019 07:00:00 16.85 C 13.77 g/m*3 16.85 C 0 km/h
1233 27-08-2019 08:00:00 17.325 C 14.24 g/m*3 17.33 C 0 km/h
1234 27-08-2019 09:00:00 18.4 C 15.26 g/m*3 18.4 C 0 km/h
1235 27-08-2019 10:00:00 19.78333 C 16.4 g/m*3 19.78 C 0 km/h
1236 27-08-2019 11:00:00 22.275 C 17.8 g/m*3 22.28 C 0 km/h
1237 27-08-2019 12:00:00 25.41667 C 17.97 g/m*3 25.42 C 0 km/h
1238 27-08-2019 13:00:00 28.99167 C 16.36 g/m*3 28.99 C 1.06667 km/h
1239 27-08-2019 14:00:00 30.54167 C 15.38 g/m*3 30.54 C 2 km/h
1240 27-08-2019 15:00:00 31.89167 C 14.46 g/m*3 31.89 C 4.95833 km/h
1241 27-08-2019 16:00:00 33.23333 C 15.02 g/m*3 33.23 C 4.28333 km/h
1242 27-08-2019 17:00:00 32.29167 C 16.29 g/m*3 32.29 C 1.46667 km/h
1243 27-08-2019 18:00:00 29.55833 C 16.9 g/m*3 29.56 C 1.2 km/h
1244 27-08-2019 19:00:00 27.7 C 17.08 g/m*3 27.7 C 5.23333 km/h
1245 27-08-2019 20:00:00 23.50833 C 17.31 g/m*3 23.51 C 0.53333 km/h
1246 27-08-2019 21:00:00 22.09167 C 16.5 g/m*3 22.09 C 0.4 km/h
1247 27-08-2019 22:00:00 21.14167 C 15.96 g/m*3 21.14 C 0 km/h
1248 27-08-2019 23:00:00 20.43333 C 15.63 g/m*3 20.43 C 0.13333 km/h
1249 28-08-2019 00:00:00 19.9 C 15.48 g/m*3 19.9 C 0.4 km/h
1250 28-08-2019 01:00:00 19.61667 C 15.5 g/m*3 19.62 C 0 km/h
Sensor: Nr:Datum:Temp:Abs-Feuchte:Windchill:Wind:
Aussen-T/F 1251 28-08-2019 02:00:00 19.24167 C 15.32 g/m*3 19.24 C 0 km/h
1252 28-08-2019 03:00:00 18.71667 C 14.98 g/m*3 18.72 C 0.4 km/h
1253 28-08-2019 04:00:00 18.33333 C 14.71 g/m*3 18.33 C 0 km/h
1254 28-08-2019 05:00:00 17.96667 C 14.47 g/m*3 17.97 C 0 km/h
1255 28-08-2019 06:00:00 18.01667 C 14.62 g/m*3 18.02 C 0 km/h
1256 28-08-2019 07:00:00 17.85833 C 14.51 g/m*3 17.86 C 0 km/h
1257 28-08-2019 08:00:00 18.64167 C 15.28 g/m*3 18.64 C 0.93333 km/h
1258 28-08-2019 09:00:00 19.75833 C 15.89 g/m*3 19.76 C 2.8 km/h
1259 28-08-2019 10:00:00 22.45 C 15.49 g/m*3 22.45 C 7.4 km/h
1260 28-08-2019 11:00:00 23.975 C 15.57 g/m*3 23.98 C 4.40833 km/h
1261 28-08-2019 12:00:00 24.49167 C 15.85 g/m*3 24.49 C 4.025 km/h
1262 28-08-2019 13:00:00 26.54167 C 14.76 g/m*3 26.54 C 7.66667 km/h
1263 28-08-2019 14:00:00 29.44167 C 14.81 g/m*3 29.44 C 9.29167 km/h
1264 28-08-2019 15:00:00 30.35833 C 13.68 g/m*3 30.36 C 11.43333 km/h
1265 28-08-2019 16:00:00 31.55833 C 13.63 g/m*3 31.56 C 11.29167 km/h
1266 28-08-2019 17:00:00 31.80833 C 14.03 g/m*3 31.81 C 7.39167 km/h
1267 28-08-2019 18:00:00 31.18333 C 14.79 g/m*3 31.18 C 4.96667 km/h
1268 28-08-2019 19:00:00 27.875 C 14.09 g/m*3 27.88 C 0.53333 km/h
1269 28-08-2019 20:00:00 25.59167 C 13.46 g/m*3 25.59 C 0.4 km/h
1270 28-08-2019 21:00:00 24.2 C 13.75 g/m*3 24.2 C 0.53333 km/h
1271 28-08-2019 22:00:00 22.43333 C 13.94 g/m*3 22.43 C 0 km/h
1272 28-08-2019 23:00:00 21.38333 C 13.92 g/m*3 21.38 C 0 km/h
1273 29-08-2019 00:00:00 20.775 C 13.89 g/m*3 20.78 C 0 km/h
1274 29-08-2019 01:00:00 20.10833 C 13.75 g/m*3 20.11 C 0 km/h
1275 29-08-2019 02:00:00 19.2 C 13.55 g/m*3 19.2 C 0 km/h
Sensor: Nr:Datum:Temp:Abs-Feuchte:Windchill:Wind:
Aussen-T/F 1276 29-08-2019 03:00:00 18.225 C 13.21 g/m*3 18.23 C 0 km/h
1277 29-08-2019 04:00:00 17.53333 C 13.15 g/m*3 17.53 C 0 km/h
1278 29-08-2019 05:00:00 17.78333 C 13.63 g/m*3 17.78 C 0 km/h
1279 29-08-2019 06:00:00 18.34167 C 14.08 g/m*3 18.34 C 0.53333 km/h
1280 29-08-2019 07:00:00 19.04167 C 14.58 g/m*3 19.04 C 2.4 km/h
1281 29-08-2019 08:00:00 19.89167 C 14.95 g/m*3 19.89 C 3.06667 km/h
1282 29-08-2019 09:00:00 20.7 C 15.27 g/m*3 20.7 C 2.4 km/h
1283 29-08-2019 10:00:00 21.175 C 16.01 g/m*3 21.18 C 0.4 km/h
1284 29-08-2019 11:00:00 22.13333 C 16.14 g/m*3 22.13 C 2.94167 km/h
1285 29-08-2019 12:00:00 23.29167 C 16.23 g/m*3 23.29 C 5.075 km/h
1286 29-08-2019 13:00:00 25.45 C 16.23 g/m*3 25.45 C 8.475 km/h
1287 29-08-2019 14:00:00 26.78333 C 16.49 g/m*3 26.78 C 7.925 km/h
1288 29-08-2019 15:00:00 27.53333 C 16.59 g/m*3 27.53 C 9.41667 km/h
1289 29-08-2019 16:00:00 27.875 C 16.18 g/m*3 27.88 C 9.40833 km/h
1290 29-08-2019 17:00:00 27.28333 C 15.75 g/m*3 27.28 C 8.74167 km/h
1291 29-08-2019 18:00:00 26.44167 C 15.18 g/m*3 26.44 C 8.325 km/h
1292 29-08-2019 19:00:00 24.73333 C 14.66 g/m*3 24.73 C 4.675 km/h
1293 29-08-2019 20:00:00 22.80833 C 14.37 g/m*3 22.81 C 1.2 km/h
1294 29-08-2019 21:00:00 20.89167 C 13.97 g/m*3 20.89 C 0.4 km/h
1295 29-08-2019 22:00:00 20.525 C 14.05 g/m*3 20.53 C 0.13333 km/h
1296 29-08-2019 23:00:00 20.48333 C 14.15 g/m*3 20.48 C 0.26667 km/h
1297 30-08-2019 00:00:00 20.30833 C 13.9 g/m*3 20.31 C 2.4 km/h
1298 30-08-2019 01:00:00 19.18333 C 13.66 g/m*3 19.18 C 0 km/h
1299 30-08-2019 02:00:00 18.2 C 13.38 g/m*3 18.2 C 0 km/h
1300 30-08-2019 03:00:00 17.48333 C 13.17 g/m*3 17.48 C 0 km/h
Sensor: Nr:Datum:Temp:Abs-Feuchte:Windchill:Wind:
Aussen-T/F 1301 30-08-2019 04:00:00 16.65833 C 12.77 g/m*3 16.66 C 0 km/h
1302 30-08-2019 05:00:00 15.975 C 12.62 g/m*3 15.98 C 0.13333 km/h
1303 30-08-2019 06:00:00 15.91667 C 12.64 g/m*3 15.92 C 0.13333 km/h
1304 30-08-2019 07:00:00 15.41667 C 12.32 g/m*3 15.42 C 0 km/h
1305 30-08-2019 08:00:00 16.09167 C 12.94 g/m*3 16.09 C 0.26667 km/h
1306 30-08-2019 09:00:00 17.96667 C 13.59 g/m*3 17.97 C 1.06667 km/h
1307 30-08-2019 10:00:00 19.41667 C 13.65 g/m*3 19.42 C 1.2 km/h
1308 30-08-2019 11:00:00 20.825 C 13.78 g/m*3 20.83 C 1.46667 km/h
1309 30-08-2019 12:00:00 22.16667 C 14.24 g/m*3 22.17 C 3.86667 km/h
1310 30-08-2019 13:00:00 23.59167 C 14.51 g/m*3 23.59 C 4.84167 km/h
1311 30-08-2019 14:00:00 25 C 14 g/m*3 25 C 6.01667 km/h
1312 30-08-2019 15:00:00 26.16667 C 12.59 g/m*3 26.17 C 5.75833 km/h
1313 30-08-2019 16:00:00 27.98333 C 12.41 g/m*3 27.98 C 5.49167 km/h
1314 30-08-2019 17:00:00 29.66667 C 11.27 g/m*3 29.67 C 3.73333 km/h
1315 30-08-2019 18:00:00 29.54167 C 11.12 g/m*3 29.54 C 6.29167 km/h
1316 30-08-2019 19:00:00 27.175 C 12.24 g/m*3 27.18 C 2.13333 km/h
1317 30-08-2019 20:00:00 23 C 11.42 g/m*3 23 C 0.26667 km/h
1318 30-08-2019 21:00:00 20.38333 C 11.5 g/m*3 20.38 C 0 km/h
1319 30-08-2019 22:00:00 18.64167 C 11.58 g/m*3 18.64 C 0 km/h
1320 30-08-2019 23:00:00 17.38333 C 11.44 g/m*3 17.38 C 0 km/h
1321 31-08-2019 00:00:00 16.65 C 11.48 g/m*3 16.65 C 0 km/h
1322 31-08-2019 01:00:00 15.825 C 11.35 g/m*3 15.83 C 0 km/h
1323 31-08-2019 02:00:00 15.21667 C 11.21 g/m*3 15.22 C 0 km/h
1324 31-08-2019 03:00:00 14.75 C 11.18 g/m*3 14.75 C 0 km/h
1325 31-08-2019 04:00:00 14.31667 C 11.09 g/m*3 14.32 C 0 km/h
Sensor: Nr:Datum:Temp:Abs-Feuchte:Windchill:Wind:
Aussen-T/F 1326 31-08-2019 05:00:00 14.15 C 11.15 g/m*3 14.15 C 0 km/h
1327 31-08-2019 06:00:00 14.1 C 11.17 g/m*3 14.1 C 0 km/h
1328 31-08-2019 07:00:00 14.10833 C 11.25 g/m*3 14.11 C 0 km/h
1329 31-08-2019 08:00:00 14.76667 C 11.71 g/m*3 14.77 C 0 km/h
1330 31-08-2019 09:00:00 15.89167 C 12.49 g/m*3 15.89 C 0 km/h
1331 31-08-2019 10:00:00 17.8 C 13.51 g/m*3 17.8 C 0 km/h
1332 31-08-2019 11:00:00 20.6 C 14.54 g/m*3 20.6 C 0 km/h
1333 31-08-2019 12:00:00 23.625 C 15.57 g/m*3 23.63 C 0.675 km/h
1334 31-08-2019 13:00:00 28.49167 C 15.25 g/m*3 28.49 C 7.24167 km/h
1335 31-08-2019 14:00:00 30.36667 C 14.64 g/m*3 30.37 C 6.83333 km/h
1336 31-08-2019 15:00:00 31.43333 C 14.19 g/m*3 31.43 C 8.2 km/h
1337 31-08-2019 16:00:00 32.48333 C 14.66 g/m*3 32.48 C 6.16667 km/h
1338 31-08-2019 17:00:00 33.89167 C 14.86 g/m*3 33.89 C 8.05 km/h
1339 31-08-2019 18:00:00 33.71667 C 14.79 g/m*3 33.72 C 6.43333 km/h
1340 31-08-2019 19:00:00 31.13333 C 15.74 g/m*3 31.13 C 0.8 km/h
1341 31-08-2019 20:00:00 25.89167 C 14.52 g/m*3 25.89 C 0.4 km/h
1342 31-08-2019 21:00:00 24.875 C 14.17 g/m*3 24.88 C 4.95833 km/h
1343 31-08-2019 22:00:00 24.58333 C 15.85 g/m*3 24.58 C 4.81667 km/h
1344 31-08-2019 23:00:00 20.69167 C 15.76 g/m*3 20.69 C 1.73333 km/h
1345 01-09-2019 00:00:00 19.66667 C 15.46 g/m*3 19.67 C 0.66667 km/h
1346 01-09-2019 01:00:00 19.34167 C 15.12 g/m*3 19.34 C 0.53333 km/h
1347 01-09-2019 02:00:00 19.10833 C 14.09 g/m*3 19.11 C 0 km/h
1348 01-09-2019 03:00:00 18.325 C 13.17 g/m*3 18.33 C 1.33333 km/h
1349 01-09-2019 04:00:00 17.88333 C 12.23 g/m*3 17.88 C 2.66667 km/h
1350 01-09-2019 05:00:00 17.84167 C 12.03 g/m*3 17.84 C 4.81667 km/h
Sensor: Nr:Datum:Temp:Abs-Feuchte:Windchill:Wind:
Aussen-T/F 1351 01-09-2019 06:00:00 17.30833 C 11.73 g/m*3 17.31 C 2.80833 km/h
1352 01-09-2019 07:00:00 16.1 C 11.74 g/m*3 16.1 C 0.53333 km/h
1353 01-09-2019 08:00:00 17.48333 C 12.3 g/m*3 17.48 C 4.28333 km/h
1354 01-09-2019 09:00:00 18.13333 C 12.46 g/m*3 18.13 C 5.75 km/h
1355 01-09-2019 10:00:00 19.10833 C 12.55 g/m*3 19.11 C 7.65 km/h
1356 01-09-2019 11:00:00 20.025 C 12.85 g/m*3 20.02 C 8.05833 km/h
1357 01-09-2019 12:00:00 20.05 C 12.97 g/m*3 20.05 C 10.08333 km/h
1358 01-09-2019 13:00:00 19.69167 C 13.22 g/m*3 19.69 C 11.29167 km/h
1359 01-09-2019 14:00:00 20.075 C 13.13 g/m*3 20.08 C 8.04167 km/h
1360 01-09-2019 15:00:00 20.61667 C 12.84 g/m*3 20.62 C 8.05 km/h
1361 01-09-2019 16:00:00 20.38333 C 12.02 g/m*3 20.38 C 11.01667 km/h
1362 01-09-2019 17:00:00 19.975 C 11.29 g/m*3 19.98 C 10.49167 km/h
1363 01-09-2019 18:00:00 20.75833 C 10.94 g/m*3 20.76 C 10.1 km/h
1364 01-09-2019 19:00:00 20.60833 C 10.37 g/m*3 20.61 C 6.725 km/h
1365 01-09-2019 20:00:00 18.38333 C 10.45 g/m*3 18.38 C 1.475 km/h
1366 01-09-2019 21:00:00 16.68333 C 10.27 g/m*3 16.68 C 0 km/h
1367 01-09-2019 22:00:00 16.39167 C 9.96 g/m*3 16.39 C 0 km/h
1368 01-09-2019 23:00:00 15.59167 C 9.97 g/m*3 15.59 C 0 km/h
1369 02-09-2019 00:00:00 14.44167 C 9.36 g/m*3 14.44 C 0 km/h
1370 02-09-2019 01:00:00 13.29167 C 8.99 g/m*3 13.29 C 0 km/h
1371 02-09-2019 02:00:00 13.3 C 9.27 g/m*3 13.3 C 0 km/h
1372 02-09-2019 03:00:00 13.025 C 9.37 g/m*3 13.03 C 0 km/h
1373 02-09-2019 04:00:00 12 C 8.94 g/m*3 12 C 0.4 km/h
1374 02-09-2019 05:00:00 11.21667 C 8.72 g/m*3 11.22 C 0 km/h
1375 02-09-2019 06:00:00 10.15 C 8.45 g/m*3 10.15 C 0 km/h
Sensor: Nr:Datum:Temp:Abs-Feuchte:Windchill:Wind:
Aussen-T/F 1376 02-09-2019 07:00:00 9.73333 C 8.47 g/m*3 9.73 C 0.53333 km/h
1377 02-09-2019 08:00:00 10.03333 C 8.75 g/m*3 10.03 C 0 km/h
1378 02-09-2019 09:00:00 10.83333 C 9.17 g/m*3 10.83 C 0 km/h
1379 02-09-2019 10:00:00 12.85833 C 9.9 g/m*3 12.86 C 0.8 km/h
1380 02-09-2019 11:00:00 16.2 C 9.16 g/m*3 16.2 C 7.93333 km/h
1381 02-09-2019 12:00:00 17.53333 C 8.44 g/m*3 17.53 C 8.74167 km/h
1382 02-09-2019 13:00:00 18.70833 C 7.96 g/m*3 18.71 C 9.95833 km/h
1383 02-09-2019 14:00:00 19.83333 C 7.92 g/m*3 19.83 C 9.28333 km/h
1384 02-09-2019 15:00:00 20.175 C 7.9 g/m*3 20.18 C 7.90833 km/h
1385 02-09-2019 16:00:00 21.80833 C 7.98 g/m*3 21.81 C 9.68333 km/h
1386 02-09-2019 17:00:00 23.09167 C 7.83 g/m*3 23.09 C 6.70833 km/h
1387 02-09-2019 18:00:00 22.99167 C 7.67 g/m*3 22.99 C 5.48333 km/h
1388 02-09-2019 19:00:00 20.575 C 8.35 g/m*3 20.58 C 1.2 km/h
1389 02-09-2019 20:00:00 16.9 C 8.1 g/m*3 16.9 C 0.93333 km/h
1390 02-09-2019 21:00:00 15.39167 C 7.97 g/m*3 15.39 C 0.26667 km/h
1391 02-09-2019 22:00:00 13.475 C 8.19 g/m*3 13.48 C 0 km/h
1392 02-09-2019 23:00:00 12.98333 C 8.24 g/m*3 12.98 C 0 km/h
1393 03-09-2019 00:00:00 12.39167 C 8.17 g/m*3 12.39 C 0 km/h
1394 03-09-2019 01:00:00 12.125 C 8.22 g/m*3 12.13 C 0 km/h
1395 03-09-2019 02:00:00 10.89167 C 7.86 g/m*3 10.89 C 0 km/h
1396 03-09-2019 03:00:00 10.175 C 7.75 g/m*3 10.18 C 0 km/h
1397 03-09-2019 04:00:00 10.08333 C 7.92 g/m*3 10.08 C 0 km/h
1398 03-09-2019 05:00:00 9.45 C 7.72 g/m*3 9.45 C 0 km/h
1399 03-09-2019 06:00:00 8.91667 C 7.64 g/m*3 8.92 C 0 km/h
1400 03-09-2019 07:00:00 8.65833 C 7.66 g/m*3 8.66 C 0.13333 km/h
Sensor: Nr:Datum:Temp:Abs-Feuchte:Windchill:Wind:
Aussen-T/F 1401 03-09-2019 08:00:00 9.08333 C 7.95 g/m*3 9.08 C 0 km/h
1402 03-09-2019 09:00:00 10.375 C 8.56 g/m*3 10.38 C 0.26667 km/h
1403 03-09-2019 10:00:00 13.225 C 9.38 g/m*3 13.23 C 1.46667 km/h
1404 03-09-2019 11:00:00 17.34167 C 9.34 g/m*3 17.34 C 5.90833 km/h
1405 03-09-2019 12:00:00 19.95833 C 9.22 g/m*3 19.96 C 8.18333 km/h
1406 03-09-2019 13:00:00 21.25 C 9.23 g/m*3 21.25 C 11.55833 km/h
1407 03-09-2019 14:00:00 22.64167 C 9.16 g/m*3 22.64 C 10.35 km/h
1408 03-09-2019 15:00:00 23.75 C 9.83 g/m*3 23.75 C 10.20833 km/h
1409 03-09-2019 16:00:00 23.58333 C 10.59 g/m*3 23.58 C 10.75 km/h
1410 03-09-2019 17:00:00 23.65 C 10.86 g/m*3 23.65 C 11.7 km/h
1411 03-09-2019 18:00:00 23.225 C 10.95 g/m*3 23.23 C 10.63333 km/h
1412 03-09-2019 19:00:00 21.11667 C 10.84 g/m*3 21.12 C 7.91667 km/h
1413 03-09-2019 20:00:00 18.86667 C 10.66 g/m*3 18.87 C 2.40833 km/h
1414 03-09-2019 21:00:00 16.325 C 10.42 g/m*3 16.33 C 0 km/h
1415 03-09-2019 22:00:00 15.33333 C 10.37 g/m*3 15.33 C 0.13333 km/h
1416 03-09-2019 23:00:00 14.05 C 10.08 g/m*3 14.05 C 0 km/h
1417 04-09-2019 00:00:00 13.05 C 9.9 g/m*3 13.05 C 0 km/h
1418 04-09-2019 01:00:00 12.35 C 9.74 g/m*3 12.35 C 0 km/h
1419 04-09-2019 02:00:00 11.85833 C 9.58 g/m*3 11.86 C 0 km/h
1420 04-09-2019 03:00:00 11.325 C 9.39 g/m*3 11.33 C 0 km/h
1421 04-09-2019 04:00:00 10.74167 C 9.12 g/m*3 10.74 C 0 km/h
1422 04-09-2019 05:00:00 10.36667 C 9 g/m*3 10.37 C 0 km/h
1423 04-09-2019 06:00:00 10.15833 C 8.95 g/m*3 10.16 C 0 km/h
1424 04-09-2019 07:00:00 10.09167 C 8.96 g/m*3 10.09 C 0 km/h
1425 04-09-2019 08:00:00 10.675 C 9.35 g/m*3 10.68 C 0.4 km/h
Sensor: Nr:Datum:Temp:Abs-Feuchte:Windchill:Wind:
Aussen-T/F 1426 04-09-2019 09:00:00 13.11667 C 10.54 g/m*3 13.12 C 4.26667 km/h
1427 04-09-2019 10:00:00 14.875 C 10.87 g/m*3 14.88 C 3.73333 km/h
1428 04-09-2019 11:00:00 18.09167 C 11.22 g/m*3 18.09 C 11.68333 km/h
1429 04-09-2019 12:00:00 19.78333 C 11.25 g/m*3 19.78 C 12.1 km/h
1430 04-09-2019 13:00:00 21.16667 C 11.47 g/m*3 21.17 C 12.63333 km/h
1431 04-09-2019 14:00:00 22.59167 C 11.56 g/m*3 22.59 C 14.63333 km/h
1432 04-09-2019 15:00:00 23.85 C 11.54 g/m*3 23.85 C 11.01667 km/h
1433 04-09-2019 16:00:00 25.11667 C 11.74 g/m*3 25.12 C 11.825 km/h
1434 04-09-2019 17:00:00 26.875 C 11.46 g/m*3 26.88 C 10.35 km/h
1435 04-09-2019 18:00:00 25.04167 C 10.84 g/m*3 25.04 C 14.49167 km/h
1436 04-09-2019 19:00:00 23.58333 C 11.1 g/m*3 23.58 C 9.65833 km/h
1437 04-09-2019 20:00:00 19.81667 C 11.87 g/m*3 19.82 C 9.50833 km/h
1438 04-09-2019 21:00:00 17.625 C 12.77 g/m*3 17.63 C 0.53333 km/h
1439 04-09-2019 22:00:00 16.28333 C 12.52 g/m*3 16.28 C 0.53333 km/h
1440 04-09-2019 23:00:00 15.64167 C 12.12 g/m*3 15.64 C 0.4 km/h
1441 05-09-2019 00:00:00 15.6 C 12.1 g/m*3 15.6 C 0 km/h
1442 05-09-2019 01:00:00 15.41667 C 11.73 g/m*3 15.42 C 1.33333 km/h
1443 05-09-2019 02:00:00 14.29167 C 10.66 g/m*3 14.29 C 1.06667 km/h
1444 05-09-2019 03:00:00 13.975 C 10.44 g/m*3 13.98 C 1.6 km/h
1445 05-09-2019 04:00:00 14.075 C 10.3 g/m*3 14.08 C 3.06667 km/h
1446 05-09-2019 05:00:00 13.48333 C 9.83 g/m*3 13.48 C 3.875 km/h
1447 05-09-2019 06:00:00 12.56667 C 9.49 g/m*3 12.57 C 4.13333 km/h
1448 05-09-2019 07:00:00 12.20833 C 9.38 g/m*3 12.21 C 5.49167 km/h
1449 05-09-2019 08:00:00 12.58333 C 9.44 g/m*3 12.58 C 8.75833 km/h
1450 05-09-2019 09:00:00 13.59167 C 9.67 g/m*3 13.59 C 7.65833 km/h
Sensor: Nr:Datum:Temp:Abs-Feuchte:Windchill:Wind:
Aussen-T/F 1451 05-09-2019 10:00:00 15.475 C 10.21 g/m*3 15.48 C 9.95 km/h
1452 05-09-2019 11:00:00 16.775 C 10.05 g/m*3 16.77 C 14.24167 km/h
1453 05-09-2019 12:00:00 17.09167 C 9.8 g/m*3 17.09 C 10.48333 km/h
1454 05-09-2019 13:00:00 18.1 C 9.41 g/m*3 18.1 C 10.225 km/h
1455 05-09-2019 14:00:00 18.09167 C 9.72 g/m*3 18.09 C 13.03333 km/h
1456 05-09-2019 15:00:00 18.5 C 9.11 g/m*3 18.5 C 11.15833 km/h
1457 05-09-2019 16:00:00 18.91667 C 9.07 g/m*3 18.92 C 13.16667 km/h
1458 05-09-2019 17:00:00 17.225 C 9.36 g/m*3 17.23 C 15.43333 km/h
1459 05-09-2019 18:00:00 16.4 C 9.44 g/m*3 16.4 C 8.59167 km/h
1460 05-09-2019 19:00:00 16.46667 C 9.02 g/m*3 16.47 C 6.325 km/h
1461 05-09-2019 20:00:00 15.70833 C 9.25 g/m*3 15.71 C 6.71667 km/h
1462 05-09-2019 21:00:00 14.93333 C 8.97 g/m*3 14.93 C 5.35833 km/h
1463 05-09-2019 22:00:00 14.49167 C 9.01 g/m*3 14.49 C 2.53333 km/h
1464 05-09-2019 23:00:00 13.94167 C 8.89 g/m*3 13.94 C 1.875 km/h
1465 06-09-2019 00:00:00 12.025 C 8.52 g/m*3 12.03 C 0.4 km/h
1466 06-09-2019 01:00:00 11.23333 C 8.41 g/m*3 11.23 C 1.73333 km/h
1467 06-09-2019 02:00:00 10.40833 C 8.34 g/m*3 10.41 C 0 km/h
1468 06-09-2019 03:00:00 9.875 C 8.21 g/m*3 9.88 C 0.13333 km/h
1469 06-09-2019 04:00:00 9.00833 C 7.89 g/m*3 9.01 C 0 km/h
1470 06-09-2019 05:00:00 8.075 C 7.6 g/m*3 8.07 C 0 km/h
1471 06-09-2019 06:00:00 7.56667 C 7.46 g/m*3 7.57 C 0 km/h
1472 06-09-2019 07:00:00 7.31667 C 7.41 g/m*3 7.32 C 0 km/h
1473 06-09-2019 08:00:00 7.85 C 7.77 g/m*3 7.85 C 0 km/h
1474 06-09-2019 09:00:00 8.75 C 8.25 g/m*3 8.75 C 0 km/h
1475 06-09-2019 10:00:00 10.175 C 9.03 g/m*3 10.18 C 0.13333 km/h
Sensor: Nr:Datum:Temp:Abs-Feuchte:Windchill:Wind:
Aussen-T/F 1476 06-09-2019 11:00:00 12.55833 C 9.18 g/m*3 12.56 C 1.73333 km/h
1477 06-09-2019 12:00:00 15.03333 C 8.28 g/m*3 15.03 C 4.00833 km/h
1478 06-09-2019 13:00:00 16.51667 C 8.14 g/m*3 16.52 C 4.4 km/h
1479 06-09-2019 14:00:00 18.3 C 7.75 g/m*3 18.3 C 8.325 km/h
1480 06-09-2019 15:00:00 19.475 C 7.53 g/m*3 19.48 C 9.26667 km/h
1481 06-09-2019 16:00:00 20.7 C 7.17 g/m*3 20.7 C 7.24167 km/h
1482 06-09-2019 17:00:00 22.36667 C 7.38 g/m*3 22.37 C 7.79167 km/h
1483 06-09-2019 18:00:00 22.25 C 7.74 g/m*3 22.25 C 6.975 km/h
1484 06-09-2019 19:00:00 19.41667 C 8.07 g/m*3 19.42 C 0.8 km/h
1485 06-09-2019 20:00:00 16.04167 C 7.71 g/m*3 16.04 C 0 km/h
1486 06-09-2019 21:00:00 14.65 C 7.6 g/m*3 14.65 C 0 km/h
1487 06-09-2019 22:00:00 12.74167 C 7.65 g/m*3 12.74 C 0.26667 km/h
1488 06-09-2019 23:00:00 12.69167 C 7.95 g/m*3 12.69 C 2 km/h
1489 07-09-2019 00:00:00 12.25833 C 7.99 g/m*3 12.26 C 0.93333 km/h
1490 07-09-2019 01:00:00 12.41667 C 8.06 g/m*3 12.42 C 1.73333 km/h
1491 07-09-2019 02:00:00 12.19167 C 8.09 g/m*3 12.19 C 1.73333 km/h
1492 07-09-2019 03:00:00 12.375 C 8.15 g/m*3 12.38 C 3.33333 km/h
1493 07-09-2019 04:00:00 12.69167 C 8.26 g/m*3 12.69 C 3.89167 km/h
1494 07-09-2019 05:00:00 12.64167 C 8.27 g/m*3 12.64 C 1.075 km/h
1495 07-09-2019 06:00:00 12.29167 C 8.35 g/m*3 12.29 C 0 km/h
1496 07-09-2019 07:00:00 11.96667 C 9.01 g/m*3 11.97 C 0.13333 km/h
1497 07-09-2019 08:00:00 11.78333 C 9.52 g/m*3 11.78 C 0.13333 km/h
1498 07-09-2019 09:00:00 11.80833 C 9.78 g/m*3 11.81 C 0 km/h
1499 07-09-2019 10:00:00 12.225 C 10.16 g/m*3 12.23 C 0 km/h
1500 07-09-2019 11:00:00 12.80833 C 10.52 g/m*3 12.81 C 0.4 km/h
Sensor: Nr:Datum:Temp:Abs-Feuchte:Windchill:Wind:
Aussen-T/F 1501 07-09-2019 12:00:00 13.475 C 10.93 g/m*3 13.48 C 1.06667 km/h
1502 07-09-2019 13:00:00 14.19167 C 11.31 g/m*3 14.19 C 1.06667 km/h
1503 07-09-2019 14:00:00 14.46667 C 11.38 g/m*3 14.47 C 1.73333 km/h
1504 07-09-2019 15:00:00 14.93333 C 11.53 g/m*3 14.93 C 3.73333 km/h
1505 07-09-2019 16:00:00 15.25 C 11.63 g/m*3 15.25 C 0.93333 km/h
1506 07-09-2019 17:00:00 15.30833 C 11.66 g/m*3 15.31 C 3.21667 km/h
1507 07-09-2019 18:00:00 14.29167 C 11.14 g/m*3 14.29 C 0.93333 km/h
1508 07-09-2019 19:00:00 13.34167 C 10.59 g/m*3 13.34 C 0.66667 km/h
1509 07-09-2019 20:00:00 12.64167 C 10.32 g/m*3 12.64 C 0.13333 km/h
1510 07-09-2019 21:00:00 12.00833 C 9.95 g/m*3 12.01 C 0 km/h
1511 07-09-2019 22:00:00 11.8 C 9.94 g/m*3 11.8 C 0 km/h
1512 07-09-2019 23:00:00 11.725 C 9.95 g/m*3 11.73 C 0 km/h
1513 08-09-2019 00:00:00 11.7 C 9.94 g/m*3 11.7 C 0 km/h
1514 08-09-2019 01:00:00 11.75833 C 10.04 g/m*3 11.76 C 0 km/h
1515 08-09-2019 02:00:00 11.29167 C 9.74 g/m*3 11.29 C 0 km/h
1516 08-09-2019 03:00:00 11.3 C 9.79 g/m*3 11.3 C 0 km/h
1517 08-09-2019 04:00:00 11.7 C 10.08 g/m*3 11.7 C 0 km/h
1518 08-09-2019 05:00:00 11.90833 C 10.17 g/m*3 11.91 C 0 km/h
1519 08-09-2019 06:00:00 12.075 C 10.36 g/m*3 12.08 C 0.13333 km/h
1520 08-09-2019 07:00:00 12.20833 C 10.41 g/m*3 12.21 C 0.4 km/h
1521 08-09-2019 08:00:00 12.31667 C 10.43 g/m*3 12.32 C 1.46667 km/h
1522 08-09-2019 09:00:00 12.325 C 10.38 g/m*3 12.33 C 4.13333 km/h
1523 08-09-2019 10:00:00 12.575 C 10.57 g/m*3 12.58 C 0 km/h
1524 08-09-2019 11:00:00 12.625 C 10.64 g/m*3 12.63 C 0.4 km/h
1525 08-09-2019 12:00:00 12.81667 C 10.75 g/m*3 12.82 C 2.53333 km/h
Sensor: Nr:Datum:Temp:Abs-Feuchte:Windchill:Wind:
Aussen-T/F 1526 08-09-2019 13:00:00 13.94167 C 11.24 g/m*3 13.94 C 1.6 km/h
1527 08-09-2019 14:00:00 14.875 C 11.24 g/m*3 14.88 C 3.6 km/h
1528 08-09-2019 15:00:00 15.73333 C 11.27 g/m*3 15.73 C 1.6 km/h
1529 08-09-2019 16:00:00 15.65833 C 11.32 g/m*3 15.66 C 1.46667 km/h
1530 08-09-2019 17:00:00 13.49167 C 10.83 g/m*3 13.49 C 2.53333 km/h
1531 08-09-2019 18:00:00 12.8 C 10.56 g/m*3 12.8 C 0.8 km/h
1532 08-09-2019 19:00:00 12.96667 C 10.8 g/m*3 12.97 C 0 km/h
1533 08-09-2019 20:00:00 12.56667 C 10.5 g/m*3 12.57 C 3.35 km/h
1534 08-09-2019 21:00:00 12.1 C 10.23 g/m*3 12.1 C 0.53333 km/h
1535 08-09-2019 22:00:00 11.81667 C 10.11 g/m*3 11.82 C 0 km/h
1536 08-09-2019 23:00:00 11.71667 C 10.05 g/m*3 11.72 C 0 km/h
1537 09-09-2019 00:00:00 11.45 C 9.88 g/m*3 11.45 C 0 km/h
1538 09-09-2019 01:00:00 11.26667 C 9.78 g/m*3 11.27 C 0.26667 km/h
1539 09-09-2019 02:00:00 11.29167 C 9.87 g/m*3 11.29 C 0 km/h
1540 09-09-2019 03:00:00 11.36667 C 9.94 g/m*3 11.37 C 0 km/h
1541 09-09-2019 04:00:00 11.36667 C 9.94 g/m*3 11.37 C 0 km/h
1542 09-09-2019 05:00:00 11.29167 C 9.89 g/m*3 11.29 C 0 km/h
1543 09-09-2019 06:00:00 11.3 C 9.89 g/m*3 11.3 C 0 km/h
1544 09-09-2019 07:00:00 11.275 C 9.88 g/m*3 11.28 C 0 km/h
1545 09-09-2019 08:00:00 11.39167 C 9.95 g/m*3 11.39 C 0 km/h
1546 09-09-2019 09:00:00 12.01667 C 10.35 g/m*3 12.02 C 0.26667 km/h
1547 09-09-2019 10:00:00 12.23333 C 10.49 g/m*3 12.23 C 0.13333 km/h
1548 09-09-2019 11:00:00 12.55833 C 10.62 g/m*3 12.56 C 2.66667 km/h
1549 09-09-2019 12:00:00 13.15 C 10.48 g/m*3 13.15 C 1.73333 km/h
1550 09-09-2019 13:00:00 14.2 C 10.57 g/m*3 14.2 C 2.4 km/h
Sensor: Nr:Datum:Temp:Abs-Feuchte:Windchill:Wind:
Aussen-T/F 1551 09-09-2019 14:00:00 14.81667 C 10.11 g/m*3 14.82 C 1.73333 km/h
1552 09-09-2019 15:00:00 15.175 C 10.39 g/m*3 15.18 C 0.8 km/h
1553 09-09-2019 16:00:00 15.475 C 10.21 g/m*3 15.48 C 1.06667 km/h
1554 09-09-2019 17:00:00 15.74167 C 9.89 g/m*3 15.74 C 1.33333 km/h
1555 09-09-2019 18:00:00 16.33333 C 10.25 g/m*3 16.33 C 1.46667 km/h
1556 09-09-2019 19:00:00 14.35 C 10.11 g/m*3 14.35 C 0.53333 km/h
1557 09-09-2019 20:00:00 12.00833 C 9.36 g/m*3 12.01 C 0.4 km/h
1558 09-09-2019 21:00:00 10.79167 C 8.96 g/m*3 10.79 C 0.13333 km/h
1559 09-09-2019 22:00:00 10.05 C 8.74 g/m*3 10.05 C 0 km/h
1560 09-09-2019 23:00:00 9.30833 C 8.44 g/m*3 9.31 C 0 km/h
1561 10-09-2019 00:00:00 8.75833 C 8.22 g/m*3 8.76 C 0 km/h
1562 10-09-2019 01:00:00 8.44167 C 8.09 g/m*3 8.44 C 0 km/h
1563 10-09-2019 02:00:00 8.3 C 8.07 g/m*3 8.3 C 0 km/h
1564 10-09-2019 03:00:00 8.625 C 8.26 g/m*3 8.63 C 0.53333 km/h
1565 10-09-2019 04:00:00 8.65 C 8.28 g/m*3 8.65 C 0.66667 km/h
1566 10-09-2019 05:00:00 8.55833 C 8.24 g/m*3 8.56 C 0.26667 km/h
1567 10-09-2019 06:00:00 8.2 C 8.1 g/m*3 8.2 C 0.8 km/h
1568 10-09-2019 07:00:00 8.225 C 8.14 g/m*3 8.23 C 0.13333 km/h
1569 10-09-2019 08:00:00 8.21667 C 8.13 g/m*3 8.22 C 2.26667 km/h
1570 10-09-2019 09:00:00 8.45833 C 8.26 g/m*3 8.46 C 2.13333 km/h
1571 10-09-2019 10:00:00 9.05 C 8.58 g/m*3 9.05 C 1.33333 km/h
1572 10-09-2019 11:00:00 9.94167 C 9.08 g/m*3 9.94 C 2.26667 km/h
1573 10-09-2019 12:00:00 11.78333 C 9.92 g/m*3 11.78 C 0.4 km/h
1574 10-09-2019 13:00:00 14.85833 C 9.92 g/m*3 14.86 C 1.6 km/h
1575 10-09-2019 14:00:00 17.25 C 9.44 g/m*3 17.25 C 3.60833 km/h
Sensor: Nr:Datum:Temp:Abs-Feuchte:Windchill:Wind:
Aussen-T/F 1576 10-09-2019 15:00:00 18.43333 C 9.19 g/m*3 18.43 C 5.36667 km/h
1577 10-09-2019 16:00:00 19.65 C 8.8 g/m*3 19.65 C 8.20833 km/h
1578 10-09-2019 17:00:00 18.38333 C 10.55 g/m*3 18.38 C 0.8 km/h
1579 10-09-2019 18:00:00 18.33333 C 10.97 g/m*3 18.33 C 0 km/h
1580 10-09-2019 19:00:00 16.4 C 10.1 g/m*3 16.4 C 0.13333 km/h
1581 10-09-2019 20:00:00 13.775 C 8.93 g/m*3 13.78 C 0 km/h
1582 10-09-2019 21:00:00 12.03333 C 8.86 g/m*3 12.03 C 0 km/h
1583 10-09-2019 22:00:00 10.66667 C 8.52 g/m*3 10.67 C 0 km/h
1584 10-09-2019 23:00:00 9.78333 C 8.23 g/m*3 9.78 C 0 km/h
1585 11-09-2019 00:00:00 9.2 C 8.04 g/m*3 9.2 C 0 km/h
1586 11-09-2019 01:00:00 8.61667 C 7.86 g/m*3 8.62 C 0 km/h
1587 11-09-2019 02:00:00 8.04167 C 7.69 g/m*3 8.04 C 0.13333 km/h
1588 11-09-2019 03:00:00 7.64167 C 7.55 g/m*3 7.64 C 0 km/h
1589 11-09-2019 04:00:00 7.26667 C 7.41 g/m*3 7.27 C 0 km/h
1590 11-09-2019 05:00:00 6.90833 C 7.3 g/m*3 6.91 C 0 km/h
1591 11-09-2019 06:00:00 6.65833 C 7.2 g/m*3 6.66 C 0 km/h
1592 11-09-2019 07:00:00 6.55 C 7.2 g/m*3 6.55 C 0.675 km/h
1593 11-09-2019 08:00:00 7.99167 C 7.97 g/m*3 7.99 C 1.60833 km/h
1594 11-09-2019 09:00:00 9.51667 C 8.59 g/m*3 9.52 C 2.8 km/h
1595 11-09-2019 10:00:00 10.85 C 9.29 g/m*3 10.85 C 0 km/h
1596 11-09-2019 11:00:00 13.10833 C 10.13 g/m*3 13.11 C 1.6 km/h
1597 11-09-2019 12:00:00 17.29167 C 9.85 g/m*3 17.29 C 9.41667 km/h
1598 11-09-2019 13:00:00 19.9 C 9.95 g/m*3 19.9 C 12.75833 km/h
1599 11-09-2019 14:00:00 20.58333 C 9.88 g/m*3 20.58 C 16.5 km/h
1600 11-09-2019 15:00:00 20.53333 C 10.07 g/m*3 20.53 C 10.225 km/h
Sensor: Nr:Datum:Temp:Abs-Feuchte:Windchill:Wind:
Aussen-T/F 1601 11-09-2019 16:00:00 20.03333 C 11.17 g/m*3 20.03 C 4.825 km/h
1602 11-09-2019 17:00:00 19.16667 C 10.86 g/m*3 19.17 C 8.45833 km/h
1603 11-09-2019 18:00:00 18.35833 C 10.7 g/m*3 18.36 C 3.75833 km/h
1604 11-09-2019 19:00:00 17.26667 C 10.41 g/m*3 17.27 C 3.20833 km/h
1605 11-09-2019 20:00:00 16.50833 C 10.64 g/m*3 16.51 C 0.93333 km/h
1606 11-09-2019 21:00:00 16.275 C 10.82 g/m*3 16.27 C 0.93333 km/h
1607 11-09-2019 22:00:00 16.41667 C 11.06 g/m*3 16.42 C 0.93333 km/h
1608 11-09-2019 23:00:00 15.7 C 11.15 g/m*3 15.7 C 0.93333 km/h
1609 12-09-2019 00:00:00 15.51667 C 10.97 g/m*3 15.52 C 1.86667 km/h
1610 12-09-2019 01:00:00 16.14167 C 11.09 g/m*3 16.14 C 1.74167 km/h
1611 12-09-2019 02:00:00 17.23333 C 10.81 g/m*3 17.23 C 6.975 km/h
1612 12-09-2019 03:00:00 17.24167 C 11 g/m*3 17.24 C 6.70833 km/h
1613 12-09-2019 04:00:00 17.05 C 11.08 g/m*3 17.05 C 2.93333 km/h
1614 12-09-2019 05:00:00 16.975 C 11.25 g/m*3 16.98 C 8.31667 km/h
1615 12-09-2019 06:00:00 16.9 C 11.4 g/m*3 16.9 C 5.75833 km/h
1616 12-09-2019 07:00:00 16.24167 C 11.53 g/m*3 16.24 C 0.8 km/h
1617 12-09-2019 08:00:00 16.83333 C 12.06 g/m*3 16.83 C 5.76667 km/h
1618 12-09-2019 09:00:00 17.40833 C 12.53 g/m*3 17.41 C 9.025 km/h
1619 12-09-2019 10:00:00 18.21667 C 13.08 g/m*3 18.22 C 11.15833 km/h
1620 12-09-2019 11:00:00 19.21667 C 13.52 g/m*3 19.22 C 9.01667 km/h
1621 12-09-2019 12:00:00 20.25833 C 13.93 g/m*3 20.26 C 10.34167 km/h
1622 12-09-2019 13:00:00 20.9 C 14.27 g/m*3 20.9 C 7.79167 km/h
1623 12-09-2019 14:00:00 21.38333 C 14.69 g/m*3 21.38 C 1.6 km/h
1624 12-09-2019 15:00:00 22.25833 C 14.77 g/m*3 22.26 C 4.025 km/h
1625 12-09-2019 16:00:00 22.95 C 14.67 g/m*3 22.95 C 7.91667 km/h
Sensor: Nr:Datum:Temp:Abs-Feuchte:Windchill:Wind:
Aussen-T/F 1626 12-09-2019 17:00:00 24.44167 C 14.46 g/m*3 24.44 C 11.83333 km/h
1627 12-09-2019 18:00:00 24.95833 C 14.66 g/m*3 24.96 C 6.56667 km/h
1628 12-09-2019 19:00:00 22.86667 C 14.23 g/m*3 22.87 C 0.53333 km/h
1629 12-09-2019 20:00:00 19.11667 C 13.29 g/m*3 19.12 C 0.4 km/h
1630 12-09-2019 21:00:00 18.225 C 13.19 g/m*3 18.23 C 0.26667 km/h
1631 12-09-2019 22:00:00 18.35 C 13.17 g/m*3 18.35 C 0.4 km/h
1632 12-09-2019 23:00:00 17.06667 C 12.6 g/m*3 17.07 C 0 km/h
1633 13-09-2019 00:00:00 15.98333 C 12.26 g/m*3 15.98 C 0.93333 km/h
1634 13-09-2019 01:00:00 15.55 C 12.18 g/m*3 15.55 C 3.6 km/h
1635 13-09-2019 02:00:00 15.25 C 12.05 g/m*3 15.25 C 1.46667 km/h
1636 13-09-2019 03:00:00 15.1 C 12.07 g/m*3 15.1 C 1.06667 km/h
1637 13-09-2019 04:00:00 15.575 C 12.4 g/m*3 15.58 C 2.93333 km/h
1638 13-09-2019 05:00:00 16.19167 C 12.55 g/m*3 16.19 C 6.84167 km/h
1639 13-09-2019 06:00:00 16.25833 C 12.58 g/m*3 16.26 C 4.3 km/h
1640 13-09-2019 07:00:00 16.64167 C 12.75 g/m*3 16.64 C 2.94167 km/h
1641 13-09-2019 08:00:00 16.85833 C 13.01 g/m*3 16.86 C 0.8 km/h
1642 13-09-2019 09:00:00 17.49167 C 13.31 g/m*3 17.49 C 2 km/h
1643 13-09-2019 10:00:00 18.51667 C 13.63 g/m*3 18.52 C 0.8 km/h
1644 13-09-2019 11:00:00 19.6 C 13.91 g/m*3 19.6 C 2.8 km/h
1645 13-09-2019 12:00:00 20.35 C 14.02 g/m*3 20.35 C 1.2 km/h
1646 13-09-2019 13:00:00 20.60833 C 13.82 g/m*3 20.61 C 4.675 km/h
1647 13-09-2019 14:00:00 21.16667 C 14.03 g/m*3 21.17 C 6.15833 km/h
1648 13-09-2019 15:00:00 20.85833 C 14.13 g/m*3 20.86 C 12.76667 km/h
1649 13-09-2019 16:00:00 19.325 C 14.49 g/m*3 19.33 C 5.90833 km/h
1650 13-09-2019 17:00:00 19.20833 C 14.74 g/m*3 19.21 C 0 km/h
Sensor: Nr:Datum:Temp:Abs-Feuchte:Windchill:Wind:
Aussen-T/F 1651 13-09-2019 18:00:00 20 C 15.42 g/m*3 20 C 0 km/h
1652 13-09-2019 19:00:00 19.48333 C 14.46 g/m*3 19.48 C 0 km/h
1653 13-09-2019 20:00:00 17.60833 C 13.73 g/m*3 17.61 C 0.26667 km/h
1654 13-09-2019 21:00:00 16.95 C 13.39 g/m*3 16.95 C 0 km/h
1655 13-09-2019 22:00:00 16.25833 C 12.87 g/m*3 16.26 C 0 km/h
1656 13-09-2019 23:00:00 15.48333 C 12.38 g/m*3 15.48 C 0 km/h
1657 14-09-2019 00:00:00 15.39167 C 12.41 g/m*3 15.39 C 0 km/h
1658 14-09-2019 01:00:00 14.63333 C 11.86 g/m*3 14.63 C 0 km/h
1659 14-09-2019 02:00:00 13.525 C 11.07 g/m*3 13.53 C 0 km/h
1660 14-09-2019 03:00:00 12.70833 C 10.58 g/m*3 12.71 C 0 km/h
1661 14-09-2019 04:00:00 12.00833 C 10.18 g/m*3 12.01 C 0 km/h
1662 14-09-2019 05:00:00 11.31667 C 9.79 g/m*3 11.32 C 0 km/h
1663 14-09-2019 06:00:00 10.78333 C 9.48 g/m*3 10.78 C 0 km/h
1664 14-09-2019 07:00:00 10.4 C 9.25 g/m*3 10.4 C 0 km/h
1665 14-09-2019 08:00:00 10.40833 C 9.26 g/m*3 10.41 C 0 km/h
1666 14-09-2019 09:00:00 11.00833 C 9.71 g/m*3 11.01 C 0.13333 km/h
1667 14-09-2019 10:00:00 12.25833 C 10.51 g/m*3 12.26 C 0.26667 km/h
1668 14-09-2019 11:00:00 13.69167 C 11.26 g/m*3 13.69 C 0.26667 km/h
1669 14-09-2019 12:00:00 16.14167 C 11.54 g/m*3 16.14 C 0.8 km/h
1670 14-09-2019 13:00:00 18.675 C 11.2 g/m*3 18.68 C 3.74167 km/h
1671 14-09-2019 14:00:00 20.43333 C 11.02 g/m*3 20.43 C 4.95 km/h
1672 14-09-2019 15:00:00 21.74167 C 10.66 g/m*3 21.74 C 5.35833 km/h
1673 14-09-2019 16:00:00 22.44167 C 10.43 g/m*3 22.44 C 4.3 km/h
1674 14-09-2019 17:00:00 24.14167 C 10.29 g/m*3 24.14 C 4.81667 km/h
1675 14-09-2019 18:00:00 23.6 C 11.63 g/m*3 23.6 C 0 km/h
Sensor: Nr:Datum:Temp:Abs-Feuchte:Windchill:Wind:
Aussen-T/F 1676 14-09-2019 19:00:00 19.45833 C 10.87 g/m*3 19.46 C 0.13333 km/h
1677 14-09-2019 20:00:00 16.95833 C 10.12 g/m*3 16.96 C 0 km/h
1678 14-09-2019 21:00:00 15.96667 C 10.01 g/m*3 15.97 C 0 km/h
1679 14-09-2019 22:00:00 13.8 C 9.68 g/m*3 13.8 C 0 km/h
1680 14-09-2019 23:00:00 12.48333 C 9.38 g/m*3 12.48 C 0 km/h
1681 15-09-2019 00:00:00 11.65 C 9.12 g/m*3 11.65 C 0 km/h
1682 15-09-2019 01:00:00 10.825 C 8.89 g/m*3 10.83 C 0 km/h
1683 15-09-2019 02:00:00 10.375 C 8.83 g/m*3 10.38 C 0 km/h
1684 15-09-2019 03:00:00 10.16667 C 8.79 g/m*3 10.17 C 0.13333 km/h
1685 15-09-2019 04:00:00 9.75833 C 8.61 g/m*3 9.76 C 0.13333 km/h
1686 15-09-2019 05:00:00 9.31667 C 8.46 g/m*3 9.32 C 0 km/h
1687 15-09-2019 06:00:00 8.76667 C 8.17 g/m*3 8.77 C 0 km/h
1688 15-09-2019 07:00:00 8.775 C 8.26 g/m*3 8.78 C 0.53333 km/h
1689 15-09-2019 08:00:00 9.29167 C 8.62 g/m*3 9.29 C 0.53333 km/h
1690 15-09-2019 09:00:00 10.03333 C 9.04 g/m*3 10.03 C 0 km/h
1691 15-09-2019 10:00:00 11.35833 C 9.83 g/m*3 11.36 C 0 km/h
1692 15-09-2019 11:00:00 13.71667 C 11.23 g/m*3 13.72 C 0 km/h
1693 15-09-2019 12:00:00 16.96667 C 12.32 g/m*3 16.97 C 0 km/h
1694 15-09-2019 13:00:00 20.45833 C 12.4 g/m*3 20.46 C 0 km/h
1695 15-09-2019 14:00:00 22.79167 C 12.41 g/m*3 22.79 C 0.53333 km/h
1696 15-09-2019 15:00:00 24.05 C 12.35 g/m*3 24.05 C 0.53333 km/h
1697 15-09-2019 16:00:00 24.65833 C 11.93 g/m*3 24.66 C 2.66667 km/h
1698 15-09-2019 17:00:00 25.84167 C 11.52 g/m*3 25.84 C 1.6 km/h
1699 15-09-2019 18:00:00 26.43333 C 11.47 g/m*3 26.43 C 0.4 km/h
1700 15-09-2019 19:00:00 21.96667 C 11.11 g/m*3 21.97 C 0 km/h
Sensor: Nr:Datum:Temp:Abs-Feuchte:Windchill:Wind:
Aussen-T/F 1701 15-09-2019 20:00:00 18.225 C 9.86 g/m*3 18.23 C 0 km/h
1702 15-09-2019 21:00:00 16.76667 C 9.56 g/m*3 16.77 C 0 km/h
1703 15-09-2019 22:00:00 14.475 C 9.48 g/m*3 14.48 C 0 km/h
1704 15-09-2019 23:00:00 12.99167 C 9.21 g/m*3 12.99 C 0 km/h
1705 16-09-2019 00:00:00 12.55 C 9.24 g/m*3 12.55 C 0 km/h
1706 16-09-2019 01:00:00 12.25833 C 9.26 g/m*3 12.26 C 0.53333 km/h
1707 16-09-2019 02:00:00 11.41667 C 9.02 g/m*3 11.42 C 0.26667 km/h
1708 16-09-2019 03:00:00 11.11667 C 9.09 g/m*3 11.12 C 0.4 km/h
1709 16-09-2019 04:00:00 11.45833 C 9.31 g/m*3 11.46 C 0.66667 km/h
1710 16-09-2019 05:00:00 11.51667 C 9.27 g/m*3 11.52 C 0.4 km/h
1711 16-09-2019 06:00:00 11.23333 C 9.22 g/m*3 11.23 C 0 km/h
1712 16-09-2019 07:00:00 11.31667 C 9.35 g/m*3 11.32 C 0.13333 km/h
1713 16-09-2019 08:00:00 12.075 C 9.65 g/m*3 12.08 C 1.2 km/h
1714 16-09-2019 09:00:00 13.4 C 10.02 g/m*3 13.4 C 1.06667 km/h
1715 16-09-2019 10:00:00 14.99167 C 10.52 g/m*3 14.99 C 0.93333 km/h
1716 16-09-2019 11:00:00 17.41667 C 11.29 g/m*3 17.42 C 1.33333 km/h
1717 16-09-2019 12:00:00 19.64167 C 11.69 g/m*3 19.64 C 4.40833 km/h
1718 16-09-2019 13:00:00 21.18333 C 11.4 g/m*3 21.18 C 5.9 km/h
1719 16-09-2019 14:00:00 22.05 C 11.19 g/m*3 22.05 C 4.26667 km/h
1720 16-09-2019 15:00:00 22.075 C 11.53 g/m*3 22.08 C 4.275 km/h
1721 16-09-2019 16:00:00 22.10833 C 10.87 g/m*3 22.11 C 7.65 km/h
1722 16-09-2019 17:00:00 21.8 C 11.67 g/m*3 21.8 C 7.525 km/h
1723 16-09-2019 18:00:00 20.725 C 11.4 g/m*3 20.73 C 4.95 km/h
1724 16-09-2019 19:00:00 19.71667 C 11.57 g/m*3 19.72 C 8.46667 km/h
1725 16-09-2019 20:00:00 17.64167 C 12.45 g/m*3 17.64 C 2.275 km/h
Sensor: Nr:Datum:Temp:Abs-Feuchte:Windchill:Wind:
Aussen-T/F 1726 16-09-2019 21:00:00 16.74167 C 12.53 g/m*3 16.74 C 1.46667 km/h
1727 16-09-2019 22:00:00 16.43333 C 12.39 g/m*3 16.43 C 4.825 km/h
1728 16-09-2019 23:00:00 15.4 C 12.03 g/m*3 15.4 C 4.14167 km/h
1729 17-09-2019 00:00:00 15.05833 C 11.74 g/m*3 15.06 C 1.73333 km/h
1730 17-09-2019 01:00:00 14.81667 C 11.42 g/m*3 14.82 C 4 km/h
1731 17-09-2019 02:00:00 14.66667 C 11.26 g/m*3 14.67 C 3.475 km/h
1732 17-09-2019 03:00:00 14.54167 C 11.1 g/m*3 14.54 C 1.46667 km/h
1733 17-09-2019 04:00:00 14.30833 C 11.03 g/m*3 14.31 C 0.4 km/h
1734 17-09-2019 05:00:00 14.16667 C 11 g/m*3 14.17 C 0.53333 km/h
1735 17-09-2019 06:00:00 14.1 C 10.95 g/m*3 14.1 C 3.74167 km/h
1736 17-09-2019 07:00:00 14.01667 C 10.81 g/m*3 14.02 C 1.86667 km/h
1737 17-09-2019 08:00:00 14 C 10.57 g/m*3 14 C 4.00833 km/h
1738 17-09-2019 09:00:00 14.04167 C 10.08 g/m*3 14.04 C 8.33333 km/h
1739 17-09-2019 10:00:00 14.925 C 9.51 g/m*3 14.93 C 11.29167 km/h
1740 17-09-2019 11:00:00 15.73333 C 9.52 g/m*3 15.73 C 11.56667 km/h
1741 17-09-2019 12:00:00 16.125 C 9.35 g/m*3 16.13 C 13.83333 km/h
1742 17-09-2019 13:00:00 16.625 C 9.11 g/m*3 16.63 C 13.43333 km/h
1743 17-09-2019 14:00:00 17.44167 C 9.01 g/m*3 17.44 C 13.43333 km/h
1744 17-09-2019 15:00:00 17.66667 C 8.72 g/m*3 17.67 C 12.1 km/h
1745 17-09-2019 16:00:00 18.05833 C 8.61 g/m*3 18.06 C 12.76667 km/h
1746 17-09-2019 17:00:00 18.125 C 8.63 g/m*3 18.13 C 11.41667 km/h
1747 17-09-2019 18:00:00 18.45 C 8.52 g/m*3 18.45 C 13.43333 km/h
1748 17-09-2019 19:00:00 17.3 C 8.79 g/m*3 17.3 C 5.775 km/h
1749 17-09-2019 20:00:00 16.71667 C 8.94 g/m*3 16.72 C 6.03333 km/h
1750 17-09-2019 21:00:00 16.00833 C 8.74 g/m*3 16.01 C 12.36667 km/h
Sensor: Nr:Datum:Temp:Abs-Feuchte:Windchill:Wind:
Aussen-T/F 1751 17-09-2019 22:00:00 14.55833 C 7.86 g/m*3 14.56 C 11.7 km/h
1752 17-09-2019 23:00:00 13.40833 C 7.65 g/m*3 13.41 C 6.45 km/h
1753 18-09-2019 00:00:00 11.80833 C 7.43 g/m*3 11.81 C 3.86667 km/h
1754 18-09-2019 01:00:00 10.83333 C 7.47 g/m*3 10.83 C 2.8 km/h
1755 18-09-2019 02:00:00 9.26667 C 7.32 g/m*3 9.27 C 0 km/h
1756 18-09-2019 03:00:00 8.25 C 7.19 g/m*3 8.25 C 0 km/h
1757 18-09-2019 04:00:00 7.425 C 7.05 g/m*3 7.43 C 0 km/h
1758 18-09-2019 05:00:00 6.76667 C 6.89 g/m*3 6.77 C 0 km/h
1759 18-09-2019 06:00:00 6.08333 C 6.7 g/m*3 6.08 C 0 km/h
1760 18-09-2019 07:00:00 5.8 C 6.67 g/m*3 5.8 C 0 km/h
1761 18-09-2019 08:00:00 6.10833 C 6.87 g/m*3 6.11 C 0 km/h
1762 18-09-2019 09:00:00 7.01667 C 7.37 g/m*3 7.02 C 0 km/h
1763 18-09-2019 10:00:00 8.375 C 8.05 g/m*3 8.38 C 0 km/h
1764 18-09-2019 11:00:00 10.625 C 8.65 g/m*3 10.63 C 1.33333 km/h
1765 18-09-2019 12:00:00 13.6 C 8.4 g/m*3 13.6 C 5.61667 km/h
1766 18-09-2019 13:00:00 15.1 C 7.76 g/m*3 15.1 C 9 km/h
1767 18-09-2019 14:00:00 16.25 C 7.43 g/m*3 16.25 C 9.54167 km/h
1768 18-09-2019 15:00:00 17.00833 C 7.27 g/m*3 17.01 C 8.86667 km/h
1769 18-09-2019 16:00:00 17.225 C 7.48 g/m*3 17.23 C 9.95 km/h
1770 18-09-2019 17:00:00 18.14167 C 7.1 g/m*3 18.14 C 11.56667 km/h
1771 18-09-2019 18:00:00 18.08333 C 6.92 g/m*3 18.08 C 8.58333 km/h
1772 18-09-2019 19:00:00 15.75 C 7.28 g/m*3 15.75 C 1.06667 km/h
1773 18-09-2019 20:00:00 12.30833 C 7.28 g/m*3 12.31 C 0 km/h
1774 18-09-2019 21:00:00 11.525 C 7.45 g/m*3 11.53 C 0 km/h
1775 18-09-2019 22:00:00 10.68333 C 7.43 g/m*3 10.68 C 0 km/h
Sensor: Nr:Datum:Temp:Abs-Feuchte:Windchill:Wind:
Aussen-T/F 1776 18-09-2019 23:00:00 9.85833 C 7.44 g/m*3 9.86 C 0 km/h
1777 19-09-2019 00:00:00 9.16667 C 7.4 g/m*3 9.17 C 0 km/h
1778 19-09-2019 01:00:00 8.5 C 7.23 g/m*3 8.5 C 0 km/h
1779 19-09-2019 02:00:00 7.20833 C 6.97 g/m*3 7.21 C 0 km/h
1780 19-09-2019 03:00:00 6.58333 C 6.86 g/m*3 6.58 C 0 km/h
1781 19-09-2019 04:00:00 6.08333 C 6.73 g/m*3 6.08 C 0 km/h
1782 19-09-2019 05:00:00 5.65833 C 6.6 g/m*3 5.66 C 0 km/h
1783 19-09-2019 06:00:00 5.26667 C 6.48 g/m*3 5.27 C 0 km/h
1784 19-09-2019 07:00:00 5.14167 C 6.45 g/m*3 5.14 C 0 km/h
1785 19-09-2019 08:00:00 5.33333 C 6.59 g/m*3 5.33 C 0 km/h
1786 19-09-2019 09:00:00 6.31667 C 7.08 g/m*3 6.32 C 0 km/h
1787 19-09-2019 10:00:00 7.725 C 7.8 g/m*3 7.73 C 0 km/h
1788 19-09-2019 11:00:00 9.70833 C 8.42 g/m*3 9.71 C 0.4 km/h
1789 19-09-2019 12:00:00 13.33333 C 7.53 g/m*3 13.33 C 10.35833 km/h
1790 19-09-2019 13:00:00 14.46667 C 7.05 g/m*3 14.47 C 6.3 km/h
1791 19-09-2019 14:00:00 15.7 C 6.76 g/m*3 15.7 C 7.38333 km/h
1792 19-09-2019 15:00:00 16.48333 C 6.7 g/m*3 16.48 C 9.54167 km/h
1793 19-09-2019 16:00:00 17.08333 C 6.67 g/m*3 17.08 C 9.28333 km/h
1794 19-09-2019 17:00:00 18.04167 C 6.51 g/m*3 18.04 C 8.59167 km/h
1795 19-09-2019 18:00:00 18.01667 C 6.64 g/m*3 18.02 C 4.96667 km/h
1796 19-09-2019 19:00:00 15.00833 C 7.05 g/m*3 15.01 C 0 km/h
1797 19-09-2019 20:00:00 11.975 C 6.78 g/m*3 11.98 C 0 km/h
1798 19-09-2019 21:00:00 10.525 C 6.78 g/m*3 10.53 C 0 km/h
1799 19-09-2019 22:00:00 9.59167 C 6.78 g/m*3 9.59 C 0 km/h
1800 19-09-2019 23:00:00 8.45 C 6.65 g/m*3 8.45 C 0 km/h
Sensor: Nr:Datum:Temp:Abs-Feuchte:Windchill:Wind:
Aussen-T/F 1801 20-09-2019 00:00:00 7.625 C 6.46 g/m*3 7.63 C 0 km/h
1802 20-09-2019 01:00:00 7.05 C 6.42 g/m*3 7.05 C 0 km/h
1803 20-09-2019 02:00:00 6.21667 C 6.27 g/m*3 6.22 C 0 km/h
1804 20-09-2019 03:00:00 5.75 C 6.19 g/m*3 5.75 C 0 km/h
1805 20-09-2019 04:00:00 5.15 C 6.09 g/m*3 5.15 C 0 km/h
1806 20-09-2019 05:00:00 4.69167 C 6.03 g/m*3 4.69 C 0 km/h
1807 20-09-2019 06:00:00 4.325 C 5.97 g/m*3 4.33 C 0 km/h
1808 20-09-2019 07:00:00 4.125 C 5.96 g/m*3 4.13 C 0 km/h
1809 20-09-2019 08:00:00 4.65 C 6.24 g/m*3 4.65 C 0 km/h
1810 20-09-2019 09:00:00 5.625 C 6.69 g/m*3 5.63 C 0 km/h
1811 20-09-2019 10:00:00 7.39167 C 7.47 g/m*3 7.39 C 0 km/h
1812 20-09-2019 11:00:00 10 C 8.1 g/m*3 10 C 0 km/h
1813 20-09-2019 12:00:00 13.41667 C 7.68 g/m*3 13.42 C 4.95833 km/h
1814 20-09-2019 13:00:00 15.83333 C 7.25 g/m*3 15.83 C 5.21667 km/h
1815 20-09-2019 14:00:00 17.63333 C 7.14 g/m*3 17.63 C 7.11667 km/h
1816 20-09-2019 15:00:00 18.525 C 6.89 g/m*3 18.52 C 7.925 km/h
1817 20-09-2019 16:00:00 19.26667 C 7.01 g/m*3 19.27 C 9.28333 km/h
1818 20-09-2019 17:00:00 20.33333 C 7.02 g/m*3 20.33 C 8.59167 km/h
1819 20-09-2019 18:00:00 20.525 C 7.17 g/m*3 20.53 C 4.55 km/h
1820 20-09-2019 19:00:00 15.85 C 7.09 g/m*3 15.85 C 0.8 km/h
1821 20-09-2019 20:00:00 13.7 C 6.96 g/m*3 13.7 C 1.33333 km/h
1822 20-09-2019 21:00:00 11.68333 C 7.14 g/m*3 11.68 C 0 km/h
1823 20-09-2019 22:00:00 9.525 C 6.97 g/m*3 9.53 C 0 km/h
1824 20-09-2019 23:00:00 8.425 C 6.87 g/m*3 8.43 C 0 km/h
1825 21-09-2019 00:00:00 7.44167 C 6.69 g/m*3 7.44 C 0 km/h
Sensor: Nr:Datum:Temp:Abs-Feuchte:Windchill:Wind:
Aussen-T/F 1826 21-09-2019 01:00:00 6.85 C 6.55 g/m*3 6.85 C 0 km/h
1827 21-09-2019 02:00:00 6.34167 C 6.4 g/m*3 6.34 C 0 km/h
1828 21-09-2019 03:00:00 5.80833 C 6.27 g/m*3 5.81 C 0 km/h
1829 21-09-2019 04:00:00 5.45833 C 6.24 g/m*3 5.46 C 0 km/h
1830 21-09-2019 05:00:00 5.275 C 6.25 g/m*3 5.28 C 0 km/h
1831 21-09-2019 06:00:00 4.80833 C 6.1 g/m*3 4.81 C 0 km/h
1832 21-09-2019 07:00:00 4.60833 C 6.09 g/m*3 4.61 C 0 km/h
1833 21-09-2019 08:00:00 4.725 C 6.21 g/m*3 4.72 C 0 km/h
1834 21-09-2019 09:00:00 5.79167 C 6.72 g/m*3 5.79 C 0 km/h
1835 21-09-2019 10:00:00 8.225 C 7.58 g/m*3 8.23 C 0 km/h
1836 21-09-2019 11:00:00 11.40833 C 8.4 g/m*3 11.41 C 0 km/h
1837 21-09-2019 12:00:00 14.95 C 8.6 g/m*3 14.95 C 0.66667 km/h
1838 21-09-2019 13:00:00 18.2 C 7.78 g/m*3 18.2 C 4 km/h
1839 21-09-2019 14:00:00 21.43333 C 6.23 g/m*3 21.43 C 7.24167 km/h
1840 21-09-2019 15:00:00 22.63333 C 6.11 g/m*3 22.63 C 7.925 km/h
1841 21-09-2019 16:00:00 23.23333 C 6.53 g/m*3 23.23 C 7.375 km/h
1842 21-09-2019 17:00:00 24.65833 C 7.13 g/m*3 24.66 C 5.09167 km/h
1843 21-09-2019 18:00:00 22.74167 C 7.97 g/m*3 22.74 C 0.66667 km/h
1844 21-09-2019 19:00:00 18.49167 C 7.54 g/m*3 18.49 C 1.6 km/h
1845 21-09-2019 20:00:00 16.16667 C 7.62 g/m*3 16.17 C 0.66667 km/h
1846 21-09-2019 21:00:00 13.66667 C 7.8 g/m*3 13.67 C 0 km/h
1847 21-09-2019 22:00:00 11.99167 C 7.62 g/m*3 11.99 C 0 km/h
1848 21-09-2019 23:00:00 10.88333 C 7.52 g/m*3 10.88 C 0 km/h
1849 22-09-2019 00:00:00 9.825 C 7.43 g/m*3 9.82 C 0 km/h
1850 22-09-2019 01:00:00 9.08333 C 7.39 g/m*3 9.08 C 0 km/h
Sensor: Nr:Datum:Temp:Abs-Feuchte:Windchill:Wind:
Aussen-T/F 1851 22-09-2019 02:00:00 8.425 C 7.24 g/m*3 8.43 C 0 km/h
1852 22-09-2019 03:00:00 7.96667 C 7.23 g/m*3 7.97 C 0 km/h
1853 22-09-2019 04:00:00 7.39167 C 7.07 g/m*3 7.39 C 0 km/h
1854 22-09-2019 05:00:00 7.06667 C 7.06 g/m*3 7.07 C 0 km/h
1855 22-09-2019 06:00:00 6.99167 C 7.12 g/m*3 6.99 C 0 km/h
1856 22-09-2019 07:00:00 6.93333 C 7.14 g/m*3 6.93 C 0 km/h
1857 22-09-2019 08:00:00 7.55833 C 7.47 g/m*3 7.56 C 0 km/h
1858 22-09-2019 09:00:00 8.63333 C 8.02 g/m*3 8.63 C 0 km/h
1859 22-09-2019 10:00:00 11.05 C 9.19 g/m*3 11.05 C 0 km/h
1860 22-09-2019 11:00:00 14.83333 C 10.13 g/m*3 14.83 C 0 km/h
1861 22-09-2019 12:00:00 17.68333 C 10.99 g/m*3 17.68 C 0 km/h
1862 22-09-2019 13:00:00 20.70833 C 11.63 g/m*3 20.71 C 0.26667 km/h
1863 22-09-2019 14:00:00 24.05 C 11.64 g/m*3 24.05 C 2.93333 km/h
1864 22-09-2019 15:00:00 24.85 C 11.36 g/m*3 24.85 C 3.86667 km/h
1865 22-09-2019 16:00:00 24.73333 C 12.25 g/m*3 24.73 C 0.8 km/h
1866 22-09-2019 17:00:00 23.48333 C 12.59 g/m*3 23.48 C 0 km/h
1867 22-09-2019 18:00:00 21.74167 C 12.24 g/m*3 21.74 C 0 km/h
1868 22-09-2019 19:00:00 20.33333 C 11.45 g/m*3 20.33 C 0 km/h
1869 22-09-2019 20:00:00 19.075 C 10.9 g/m*3 19.08 C 2 km/h
1870 22-09-2019 21:00:00 18.175 C 10.66 g/m*3 18.18 C 1.46667 km/h
1871 22-09-2019 22:00:00 18.3 C 10.92 g/m*3 18.3 C 0.13333 km/h
1872 22-09-2019 23:00:00 17.80833 C 11.4 g/m*3 17.81 C 0 km/h
1873 23-09-2019 00:00:00 17.55833 C 12.04 g/m*3 17.56 C 2.80833 km/h
1874 23-09-2019 01:00:00 18.375 C 12.81 g/m*3 18.38 C 3.33333 km/h
1875 23-09-2019 02:00:00 18.10833 C 12.21 g/m*3 18.11 C 9.26667 km/h
Sensor: Nr:Datum:Temp:Abs-Feuchte:Windchill:Wind:
Aussen-T/F 1876 23-09-2019 03:00:00 17.2 C 12.06 g/m*3 17.2 C 4.95 km/h
1877 23-09-2019 04:00:00 16.05833 C 11.82 g/m*3 16.06 C 0.93333 km/h
1878 23-09-2019 05:00:00 15.14167 C 11.8 g/m*3 15.14 C 1.86667 km/h
1879 23-09-2019 06:00:00 14.43333 C 11.53 g/m*3 14.43 C 0.26667 km/h
1880 23-09-2019 07:00:00 14.23333 C 11.52 g/m*3 14.23 C 0 km/h
1881 23-09-2019 08:00:00 14.25 C 11.64 g/m*3 14.25 C 0 km/h
1882 23-09-2019 09:00:00 14.74167 C 12.1 g/m*3 14.74 C 0 km/h
1883 23-09-2019 10:00:00 15.425 C 12.63 g/m*3 15.43 C 0.4 km/h
1884 23-09-2019 11:00:00 16.26667 C 13.08 g/m*3 16.27 C 2.8 km/h
1885 23-09-2019 12:00:00 17.06667 C 13.18 g/m*3 17.07 C 8.06667 km/h
1886 23-09-2019 13:00:00 18.2 C 12.67 g/m*3 18.2 C 10.49167 km/h
1887 23-09-2019 14:00:00 19.425 C 11.89 g/m*3 19.43 C 13.3 km/h
1888 23-09-2019 15:00:00 19.61667 C 11.63 g/m*3 19.62 C 12.36667 km/h
1889 23-09-2019 16:00:00 19.94167 C 11.61 g/m*3 19.94 C 14.36667 km/h
1890 23-09-2019 17:00:00 20.24167 C 11.57 g/m*3 20.24 C 12.49167 km/h
1891 23-09-2019 18:00:00 18.46667 C 11.71 g/m*3 18.47 C 1.2 km/h
1892 23-09-2019 19:00:00 16 C 11.16 g/m*3 16 C 0.13333 km/h
1893 23-09-2019 20:00:00 14.34167 C 10.75 g/m*3 14.34 C 0 km/h
1894 23-09-2019 21:00:00 13.96667 C 10.85 g/m*3 13.97 C 0 km/h
1895 23-09-2019 22:00:00 13.9 C 11.03 g/m*3 13.9 C 0 km/h
1896 23-09-2019 23:00:00 14.11667 C 11.21 g/m*3 14.12 C 0 km/h
1897 24-09-2019 00:00:00 14.33333 C 11.37 g/m*3 14.33 C 0 km/h
1898 24-09-2019 01:00:00 13.95 C 11.01 g/m*3 13.95 C 0 km/h
1899 24-09-2019 02:00:00 12.66667 C 10.28 g/m*3 12.67 C 0 km/h
1900 24-09-2019 03:00:00 11.96667 C 9.98 g/m*3 11.97 C 0 km/h
Sensor: Nr:Datum:Temp:Abs-Feuchte:Windchill:Wind:
Aussen-T/F 1901 24-09-2019 04:00:00 11.50833 C 9.77 g/m*3 11.51 C 0 km/h
1902 24-09-2019 05:00:00 10.675 C 9.31 g/m*3 10.68 C 0 km/h
1903 24-09-2019 06:00:00 10.25 C 9.1 g/m*3 10.25 C 0 km/h
1904 24-09-2019 07:00:00 9.89167 C 8.94 g/m*3 9.89 C 0 km/h
1905 24-09-2019 08:00:00 10.65 C 9.44 g/m*3 10.65 C 0 km/h
1906 24-09-2019 09:00:00 11.35833 C 9.93 g/m*3 11.36 C 0.8 km/h
1907 24-09-2019 10:00:00 12.49167 C 10.66 g/m*3 12.49 C 0 km/h
1908 24-09-2019 11:00:00 14.48333 C 11.78 g/m*3 14.48 C 0.93333 km/h
1909 24-09-2019 12:00:00 17.53333 C 12.03 g/m*3 17.53 C 3.88333 km/h
1910 24-09-2019 13:00:00 18.59167 C 11.6 g/m*3 18.59 C 6.44167 km/h
1911 24-09-2019 14:00:00 19.21667 C 11.33 g/m*3 19.22 C 1.60833 km/h
1912 24-09-2019 15:00:00 18.63333 C 11.3 g/m*3 18.63 C 0.66667 km/h
1913 24-09-2019 16:00:00 17.70833 C 12.37 g/m*3 17.71 C 0.93333 km/h
1914 24-09-2019 17:00:00 16.95 C 12.96 g/m*3 16.95 C 0 km/h
1915 24-09-2019 18:00:00 16.125 C 12.64 g/m*3 16.13 C 0 km/h
1916 24-09-2019 19:00:00 15.1 C 12.01 g/m*3 15.1 C 0 km/h
1917 24-09-2019 20:00:00 14.01667 C 11.37 g/m*3 14.02 C 0 km/h
1918 24-09-2019 21:00:00 13.65 C 11.21 g/m*3 13.65 C 0 km/h
1919 24-09-2019 22:00:00 13.64167 C 11.29 g/m*3 13.64 C 0 km/h
1920 24-09-2019 23:00:00 13.775 C 11.42 g/m*3 13.78 C 0 km/h
1921 25-09-2019 00:00:00 13.99167 C 11.57 g/m*3 13.99 C 0.13333 km/h
1922 25-09-2019 01:00:00 14.13333 C 11.72 g/m*3 14.13 C 1.34167 km/h
1923 25-09-2019 02:00:00 14.49167 C 11.93 g/m*3 14.49 C 3.35 km/h
1924 25-09-2019 03:00:00 14.6 C 12.01 g/m*3 14.6 C 0.4 km/h
1925 25-09-2019 04:00:00 14.55833 C 11.98 g/m*3 14.56 C 0.53333 km/h
Sensor: Nr:Datum:Temp:Abs-Feuchte:Windchill:Wind:
Aussen-T/F 1926 25-09-2019 05:00:00 14.01667 C 11.59 g/m*3 14.02 C 1.33333 km/h
1927 25-09-2019 06:00:00 13.64167 C 11.33 g/m*3 13.64 C 0.93333 km/h
1928 25-09-2019 07:00:00 13.61667 C 11.33 g/m*3 13.62 C 0.8 km/h
1929 25-09-2019 08:00:00 13.75 C 11.51 g/m*3 13.75 C 0 km/h
1930 25-09-2019 09:00:00 14.33333 C 11.94 g/m*3 14.33 C 1.33333 km/h
1931 25-09-2019 10:00:00 14.90833 C 12.03 g/m*3 14.91 C 8.475 km/h
1932 25-09-2019 11:00:00 16.225 C 11.94 g/m*3 16.23 C 13.69167 km/h
1933 25-09-2019 12:00:00 16.875 C 11.57 g/m*3 16.88 C 10.35833 km/h
1934 25-09-2019 13:00:00 17.38333 C 11.46 g/m*3 17.38 C 11.81667 km/h
1935 25-09-2019 14:00:00 17.38333 C 11.57 g/m*3 17.38 C 10.35833 km/h
1936 25-09-2019 15:00:00 16.325 C 12.4 g/m*3 16.33 C 4.8 km/h
1937 25-09-2019 16:00:00 17.08333 C 12.36 g/m*3 17.08 C 7.38333 km/h
1938 25-09-2019 17:00:00 17.53333 C 12.19 g/m*3 17.53 C 7.24167 km/h
1939 25-09-2019 18:00:00 16.775 C 11.91 g/m*3 16.77 C 2.54167 km/h
1940 25-09-2019 19:00:00 15.625 C 11.72 g/m*3 15.63 C 0.53333 km/h
1941 25-09-2019 20:00:00 15.10833 C 11.76 g/m*3 15.11 C 0 km/h
1942 25-09-2019 21:00:00 14.71667 C 11.69 g/m*3 14.72 C 0.13333 km/h
1943 25-09-2019 22:00:00 14.7 C 11.8 g/m*3 14.7 C 0 km/h
1944 25-09-2019 23:00:00 14.65833 C 11.93 g/m*3 14.66 C 0 km/h
1945 26-09-2019 00:00:00 14.55833 C 11.86 g/m*3 14.56 C 0.26667 km/h
1946 26-09-2019 01:00:00 14.23333 C 11.65 g/m*3 14.23 C 0 km/h
1947 26-09-2019 02:00:00 14.13333 C 11.67 g/m*3 14.13 C 0 km/h
1948 26-09-2019 03:00:00 13.60833 C 11.29 g/m*3 13.61 C 0 km/h
1949 26-09-2019 04:00:00 13.25833 C 11.08 g/m*3 13.26 C 0 km/h
1950 26-09-2019 05:00:00 13.90833 C 11.6 g/m*3 13.91 C 2.01667 km/h
Sensor: Nr:Datum:Temp:Abs-Feuchte:Windchill:Wind:
Aussen-T/F 1951 26-09-2019 06:00:00 14.125 C 11.78 g/m*3 14.13 C 0.53333 km/h
1952 26-09-2019 07:00:00 14.35833 C 11.84 g/m*3 14.36 C 0.13333 km/h
1953 26-09-2019 08:00:00 14.74167 C 12.12 g/m*3 14.74 C 0.26667 km/h
1954 26-09-2019 09:00:00 15.10833 C 12.35 g/m*3 15.11 C 0.4 km/h
1955 26-09-2019 10:00:00 15.86667 C 12.91 g/m*3 15.87 C 0.13333 km/h
1956 26-09-2019 11:00:00 16.59167 C 13.37 g/m*3 16.59 C 0.93333 km/h
1957 26-09-2019 12:00:00 17.61667 C 13.75 g/m*3 17.62 C 5.225 km/h
1958 26-09-2019 13:00:00 17.775 C 13.9 g/m*3 17.77 C 1.06667 km/h
1959 26-09-2019 14:00:00 17.51667 C 13.84 g/m*3 17.52 C 0.93333 km/h
1960 26-09-2019 15:00:00 18.05833 C 14.13 g/m*3 18.06 C 1.2 km/h
1961 26-09-2019 16:00:00 18.83333 C 14.32 g/m*3 18.83 C 4.15 km/h
1962 26-09-2019 17:00:00 18.91667 C 14.2 g/m*3 18.92 C 4.675 km/h
1963 26-09-2019 18:00:00 18.71667 C 14.24 g/m*3 18.72 C 2.68333 km/h
1964 26-09-2019 19:00:00 18.04167 C 13.99 g/m*3 18.04 C 2.01667 km/h
1965 26-09-2019 20:00:00 17.39167 C 13.29 g/m*3 17.39 C 6.03333 km/h
1966 26-09-2019 21:00:00 17.36667 C 13.16 g/m*3 17.37 C 5.5 km/h
1967 26-09-2019 22:00:00 17.725 C 13.08 g/m*3 17.73 C 10.23333 km/h
1968 26-09-2019 23:00:00 17.81667 C 12.99 g/m*3 17.82 C 7.5 km/h
1969 27-09-2019 00:00:00 17.98333 C 12.86 g/m*3 17.98 C 6.975 km/h
1970 27-09-2019 01:00:00 18.05 C 12.68 g/m*3 18.05 C 10.20833 km/h
1971 27-09-2019 02:00:00 17.96667 C 12.58 g/m*3 17.97 C 9.68333 km/h
1972 27-09-2019 03:00:00 16.71667 C 12.82 g/m*3 16.72 C 6.18333 km/h
1973 27-09-2019 04:00:00 16.29167 C 12.83 g/m*3 16.29 C 2.95 km/h
1974 27-09-2019 05:00:00 16.16667 C 12.81 g/m*3 16.17 C 2.13333 km/h
1975 27-09-2019 06:00:00 15.78333 C 12.67 g/m*3 15.78 C 2.15 km/h
Sensor: Nr:Datum:Temp:Abs-Feuchte:Windchill:Wind:
Aussen-T/F 1976 27-09-2019 07:00:00 14.41667 C 11.71 g/m*3 14.42 C 2.28333 km/h
1977 27-09-2019 08:00:00 14.1 C 11.62 g/m*3 14.1 C 0.66667 km/h
1978 27-09-2019 09:00:00 13.99167 C 11.57 g/m*3 13.99 C 3.75 km/h
1979 27-09-2019 10:00:00 14.69167 C 12.02 g/m*3 14.69 C 6.58333 km/h
1980 27-09-2019 11:00:00 15.35 C 12.16 g/m*3 15.35 C 6.7 km/h
1981 27-09-2019 12:00:00 15.96667 C 12.11 g/m*3 15.97 C 11.29167 km/h
1982 27-09-2019 13:00:00 17.29167 C 11.95 g/m*3 17.29 C 12.9 km/h
1983 27-09-2019 14:00:00 18.15833 C 11.77 g/m*3 18.16 C 14.9 km/h
1984 27-09-2019 15:00:00 18.21667 C 11.79 g/m*3 18.22 C 13.83333 km/h
1985 27-09-2019 16:00:00 17.96667 C 11.79 g/m*3 17.97 C 12.1 km/h
1986 27-09-2019 17:00:00 18.98333 C 11.78 g/m*3 18.98 C 12.36667 km/h
1987 27-09-2019 18:00:00 18.01667 C 11.54 g/m*3 18.02 C 10.75833 km/h
1988 27-09-2019 19:00:00 16.05833 C 11.25 g/m*3 16.06 C 3.75833 km/h
1989 27-09-2019 20:00:00 15.13333 C 11.37 g/m*3 15.13 C 0.26667 km/h
1990 27-09-2019 21:00:00 14.275 C 11.06 g/m*3 14.28 C 0.26667 km/h
1991 27-09-2019 22:00:00 13.83333 C 11.04 g/m*3 13.83 C 0 km/h
1992 27-09-2019 23:00:00 13.5 C 10.98 g/m*3 13.5 C 0 km/h
1993 28-09-2019 00:00:00 12.875 C 10.64 g/m*3 12.88 C 0.66667 km/h
1994 28-09-2019 01:00:00 12.90833 C 10.72 g/m*3 12.91 C 3.21667 km/h
1995 28-09-2019 02:00:00 14.21667 C 11.16 g/m*3 14.22 C 9.13333 km/h
1996 28-09-2019 03:00:00 14.825 C 11.33 g/m*3 14.83 C 6.45 km/h
1997 28-09-2019 04:00:00 14.04167 C 11.17 g/m*3 14.04 C 5.63333 km/h
1998 28-09-2019 05:00:00 13.95 C 11.05 g/m*3 13.95 C 6.84167 km/h
1999 28-09-2019 06:00:00 14.4 C 11.21 g/m*3 14.4 C 9.4 km/h
2000 28-09-2019 07:00:00 14.1 C 11.28 g/m*3 14.1 C 1.875 km/h
Sensor: Nr:Datum:Temp:Abs-Feuchte:Windchill:Wind:
Aussen-T/F 2001 28-09-2019 08:00:00 13.89167 C 11.18 g/m*3 13.89 C 7.94167 km/h
2002 28-09-2019 09:00:00 14.35833 C 11.11 g/m*3 14.36 C 12.225 km/h
2003 28-09-2019 10:00:00 15.4 C 11.21 g/m*3 15.4 C 12.75833 km/h
2004 28-09-2019 11:00:00 16.30833 C 11.15 g/m*3 16.31 C 17.43333 km/h
2005 28-09-2019 12:00:00 16.85 C 11.27 g/m*3 16.85 C 13.16667 km/h
2006 28-09-2019 13:00:00 17.21667 C 11.3 g/m*3 17.22 C 17.3 km/h
2007 28-09-2019 14:00:00 17.49167 C 11.4 g/m*3 17.49 C 17.3 km/h
2008 28-09-2019 15:00:00 17.16667 C 11.3 g/m*3 17.17 C 15.43333 km/h
2009 28-09-2019 16:00:00 17.35833 C 11.48 g/m*3 17.36 C 14.23333 km/h
2010 28-09-2019 17:00:00 17.71667 C 11.43 g/m*3 17.72 C 15.96667 km/h
2011 28-09-2019 18:00:00 17.14167 C 11.18 g/m*3 17.14 C 11.025 km/h
2012 28-09-2019 19:00:00 15.7 C 10.78 g/m*3 15.7 C 8.99167 km/h
2013 28-09-2019 20:00:00 15.24167 C 10.7 g/m*3 15.24 C 5.89167 km/h
2014 28-09-2019 21:00:00 14.975 C 10.58 g/m*3 14.98 C 7.79167 km/h
2015 28-09-2019 22:00:00 15.13333 C 10.51 g/m*3 15.13 C 9.53333 km/h
2016 28-09-2019 23:00:00 14.15 C 10.33 g/m*3 14.15 C 4.55 km/h
2017 29-09-2019 00:00:00 13.875 C 10.33 g/m*3 13.88 C 2.81667 km/h
2018 29-09-2019 01:00:00 13.95 C 10.4 g/m*3 13.95 C 0.66667 km/h
2019 29-09-2019 02:00:00 13.65 C 10.49 g/m*3 13.65 C 0 km/h
2020 29-09-2019 03:00:00 13.48333 C 10.54 g/m*3 13.48 C 0 km/h
2021 29-09-2019 04:00:00 13.525 C 10.66 g/m*3 13.53 C 0 km/h
2022 29-09-2019 05:00:00 13.81667 C 10.66 g/m*3 13.82 C 0.26667 km/h
2023 29-09-2019 06:00:00 13.94167 C 10.43 g/m*3 13.94 C 0.93333 km/h
2024 29-09-2019 07:00:00 14.025 C 10.46 g/m*3 14.03 C 1.33333 km/h
2025 29-09-2019 08:00:00 14.95833 C 10.59 g/m*3 14.96 C 5.75833 km/h
Sensor: Nr:Datum:Temp:Abs-Feuchte:Windchill:Wind:
Aussen-T/F 2026 29-09-2019 09:00:00 16.53333 C 10.83 g/m*3 16.53 C 13.69167 km/h
2027 29-09-2019 10:00:00 17.45833 C 10.94 g/m*3 17.46 C 19.175 km/h
2028 29-09-2019 11:00:00 17.74167 C 11 g/m*3 17.74 C 17.84167 km/h
2029 29-09-2019 12:00:00 18.25833 C 11.19 g/m*3 18.26 C 17.16667 km/h
2030 29-09-2019 13:00:00 18.1 C 11.15 g/m*3 18.1 C 13.03333 km/h
2031 29-09-2019 14:00:00 18.61667 C 10.9 g/m*3 18.62 C 21.325 km/h
2032 29-09-2019 15:00:00 18.21667 C 11.38 g/m*3 18.22 C 17.44167 km/h
2033 29-09-2019 16:00:00 17.10833 C 11.91 g/m*3 17.11 C 13.025 km/h
2034 29-09-2019 17:00:00 17 C 11.93 g/m*3 17 C 12.35833 km/h
2035 29-09-2019 18:00:00 17.5 C 12.36 g/m*3 17.5 C 12.1 km/h
2036 29-09-2019 19:00:00 17.70833 C 12.54 g/m*3 17.71 C 15.56667 km/h
2037 29-09-2019 20:00:00 17.275 C 12.96 g/m*3 17.27 C 5.9 km/h
2038 29-09-2019 21:00:00 16.79167 C 13.17 g/m*3 16.79 C 5.63333 km/h
2039 29-09-2019 22:00:00 16.91667 C 13.29 g/m*3 16.92 C 12.08333 km/h
2040 29-09-2019 23:00:00 16.61667 C 13 g/m*3 16.62 C 14.49167 km/h
2041 30-09-2019 00:00:00 15.65 C 11.66 g/m*3 15.65 C 18.11667 km/h
2042 30-09-2019 01:00:00 15.34167 C 11.27 g/m*3 15.34 C 18.225 km/h
2043 30-09-2019 02:00:00 15.15833 C 11.2 g/m*3 15.16 C 17.03333 km/h
2044 30-09-2019 03:00:00 15.25833 C 11.31 g/m*3 15.26 C 15.3 km/h
2045 30-09-2019 04:00:00 15.04167 C 11.38 g/m*3 15.04 C 11.95 km/h
2046 30-09-2019 05:00:00 13.75833 C 10.95 g/m*3 13.76 C 9.925 km/h
2047 30-09-2019 06:00:00 13.19167 C 10.65 g/m*3 13.19 C 9.93333 km/h
2048 30-09-2019 07:00:00 13.08333 C 10.34 g/m*3 13.08 C 10.08333 km/h
2049 30-09-2019 08:00:00 13.29167 C 10.07 g/m*3 13.29 C 12.1 km/h
2050 30-09-2019 09:00:00 13.94167 C 10 g/m*3 13.94 C 13.3 km/h
Sensor: Nr:Datum:Temp:Abs-Feuchte:Windchill:Wind:
Aussen-T/F 2051 30-09-2019 10:00:00 14.45 C 10.08 g/m*3 14.45 C 14.5 km/h
2052 30-09-2019 11:00:00 15.13333 C 10.09 g/m*3 15.13 C 15.16667 km/h
2053 30-09-2019 12:00:00 15.71667 C 9.81 g/m*3 15.72 C 16.76667 km/h
2054 30-09-2019 13:00:00 16.40833 C 9.68 g/m*3 16.41 C 15.56667 km/h
2055 30-09-2019 14:00:00 17.10833 C 9.71 g/m*3 17.11 C 14.23333 km/h
2056 30-09-2019 15:00:00 17.75833 C 9.83 g/m*3 17.76 C 14.63333 km/h
2057 30-09-2019 16:00:00 18.45833 C 9.85 g/m*3 18.46 C 14.36667 km/h
2058 30-09-2019 17:00:00 18.45 C 9.54 g/m*3 18.45 C 12.1 km/h
2059 30-09-2019 18:00:00 17.69167 C 10.24 g/m*3 17.69 C 3.34167 km/h
2060 30-09-2019 19:00:00 14.83333 C 10.22 g/m*3 14.83 C 0.4 km/h
2061 30-09-2019 20:00:00 14.20833 C 10.42 g/m*3 14.21 C 3.34167 km/h
2062 30-09-2019 21:00:00 14.69167 C 10.71 g/m*3 14.69 C 3.74167 km/h
2063 30-09-2019 22:00:00 14.68333 C 10.7 g/m*3 14.68 C 3.6 km/h
2064 30-09-2019 23:00:00 14.23333 C 10.44 g/m*3 14.23 C 1.06667 km/h
2065 01-10-2019 00:00:00 14.33333 C 10.41 g/m*3 14.33 C 0.4 km/h
2066 01-10-2019 01:00:00 14.025 C 10.47 g/m*3 14.03 C 1.2 km/h
2067 01-10-2019 02:00:00 13.60833 C 10.24 g/m*3 13.61 C 0 km/h
2068 01-10-2019 03:00:00 12.65 C 9.88 g/m*3 12.65 C 0 km/h
2069 01-10-2019 04:00:00 13.275 C 10.3 g/m*3 13.28 C 3.48333 km/h
2070 01-10-2019 05:00:00 14.40833 C 10.55 g/m*3 14.41 C 7.8 km/h
2071 01-10-2019 06:00:00 15.00833 C 10.98 g/m*3 15.01 C 11.55833 km/h
2072 01-10-2019 07:00:00 15.375 C 11.38 g/m*3 15.38 C 15.56667 km/h
2073 01-10-2019 08:00:00 15.5 C 11.54 g/m*3 15.5 C 14.1 km/h
2074 01-10-2019 09:00:00 16.125 C 11.82 g/m*3 16.13 C 13.7 km/h
2075 01-10-2019 10:00:00 17.09167 C 12.35 g/m*3 17.09 C 14.9 km/h
Sensor: Nr:Datum:Temp:Abs-Feuchte:Windchill:Wind:
Aussen-T/F 2076 01-10-2019 11:00:00 17.53333 C 12.69 g/m*3 17.53 C 14.63333 km/h
2077 01-10-2019 12:00:00 17.36667 C 13.11 g/m*3 17.37 C 12.225 km/h
2078 01-10-2019 13:00:00 18.575 C 12.46 g/m*3 18.58 C 9.41667 km/h
2079 01-10-2019 14:00:00 18.35833 C 13.01 g/m*3 18.36 C 8.34167 km/h
2080 01-10-2019 15:00:00 19.08333 C 13.57 g/m*3 19.08 C 11.425 km/h
2081 01-10-2019 16:00:00 18.26667 C 13.78 g/m*3 18.27 C 5.775 km/h
2082 01-10-2019 17:00:00 17.6 C 13.95 g/m*3 17.6 C 0.66667 km/h
2083 01-10-2019 18:00:00 16.725 C 13.21 g/m*3 16.73 C 1.2 km/h
2084 01-10-2019 19:00:00 16.19167 C 12.98 g/m*3 16.19 C 0 km/h
2085 01-10-2019 20:00:00 15.875 C 12.82 g/m*3 15.88 C 0.66667 km/h
2086 01-10-2019 21:00:00 15.85 C 12.85 g/m*3 15.85 C 1.46667 km/h
2087 01-10-2019 22:00:00 15.5 C 12.56 g/m*3 15.5 C 1.60833 km/h
2088 01-10-2019 23:00:00 15.225 C 12.35 g/m*3 15.23 C 3.06667 km/h
2089 02-10-2019 00:00:00 15.15833 C 12.3 g/m*3 15.16 C 3.35833 km/h
2090 02-10-2019 01:00:00 15.20833 C 12.24 g/m*3 15.21 C 4.14167 km/h
2091 02-10-2019 02:00:00 14.975 C 12 g/m*3 14.98 C 1.2 km/h
2092 02-10-2019 03:00:00 14.95833 C 11.96 g/m*3 14.96 C 7.26667 km/h
2093 02-10-2019 04:00:00 15.08333 C 11.86 g/m*3 15.08 C 4.55 km/h
2094 02-10-2019 05:00:00 14.69167 C 11.66 g/m*3 14.69 C 3.48333 km/h
2095 02-10-2019 06:00:00 13.59167 C 10.82 g/m*3 13.59 C 10.2 km/h
2096 02-10-2019 07:00:00 11.80833 C 9.71 g/m*3 11.81 C 11.3 km/h
2097 02-10-2019 08:00:00 10.74167 C 9.16 g/m*3 9.02 C 13.43333 km/h
2098 02-10-2019 09:00:00 10.46667 C 8.8 g/m*3 9.65 C 7.51667 km/h
2099 02-10-2019 10:00:00 10.86667 C 8.73 g/m*3 10.04 C 7.91667 km/h
2100 02-10-2019 11:00:00 11.33333 C 8.56 g/m*3 11.33 C 11.01667 km/h
Sensor: Nr:Datum:Temp:Abs-Feuchte:Windchill:Wind:
Aussen-T/F 2101 02-10-2019 12:00:00 11.86667 C 8.52 g/m*3 11.87 C 9.125 km/h
2102 02-10-2019 13:00:00 12.65833 C 8.48 g/m*3 12.66 C 9.54167 km/h
2103 02-10-2019 14:00:00 13.49167 C 8.19 g/m*3 13.49 C 9.55833 km/h
2104 02-10-2019 15:00:00 13.66667 C 7.87 g/m*3 13.67 C 11.825 km/h
2105 02-10-2019 16:00:00 13.8 C 7.37 g/m*3 13.8 C 14.1 km/h
2106 02-10-2019 17:00:00 14.26667 C 7.55 g/m*3 14.27 C 12.21667 km/h
2107 02-10-2019 18:00:00 12.9 C 7.68 g/m*3 12.9 C 10.89167 km/h
2108 02-10-2019 19:00:00 11.325 C 7.61 g/m*3 11.33 C 5.76667 km/h
2109 02-10-2019 20:00:00 10.04167 C 7.5 g/m*3 10.04 C 4.825 km/h
2110 02-10-2019 21:00:00 9.875 C 7.51 g/m*3 9.88 C 3.20833 km/h
2111 02-10-2019 22:00:00 8.61667 C 7.37 g/m*3 8.62 C 0.66667 km/h
2112 02-10-2019 23:00:00 8.48333 C 7.43 g/m*3 8.48 C 3.875 km/h
2113 03-10-2019 00:00:00 9.33333 C 7.66 g/m*3 9.33 C 4.41667 km/h
2114 03-10-2019 01:00:00 9.25833 C 7.75 g/m*3 9.26 C 4.68333 km/h
2115 03-10-2019 02:00:00 9.21667 C 7.73 g/m*3 9.22 C 3.73333 km/h
2116 03-10-2019 03:00:00 8.525 C 7.52 g/m*3 8.53 C 1.86667 km/h
2117 03-10-2019 04:00:00 7.63333 C 7.29 g/m*3 7.63 C 1.33333 km/h
2118 03-10-2019 05:00:00 7.94167 C 7.49 g/m*3 7.94 C 4.41667 km/h
2119 03-10-2019 06:00:00 7.45 C 7.26 g/m*3 7.45 C 1.2 km/h
2120 03-10-2019 07:00:00 7.2 C 7.29 g/m*3 7.2 C 1.6 km/h
2121 03-10-2019 08:00:00 7.74167 C 7.49 g/m*3 7.74 C 4.96667 km/h
2122 03-10-2019 09:00:00 9.34167 C 7.9 g/m*3 8.53 C 6.70833 km/h
2123 03-10-2019 10:00:00 10.36667 C 8.23 g/m*3 9.45 C 7.925 km/h
2124 03-10-2019 11:00:00 12.23333 C 8.75 g/m*3 12.23 C 8.725 km/h
2125 03-10-2019 12:00:00 12.55833 C 9.02 g/m*3 12.56 C 6.16667 km/h
Sensor: Nr:Datum:Temp:Abs-Feuchte:Windchill:Wind:
Aussen-T/F 2126 03-10-2019 13:00:00 12.225 C 9.57 g/m*3 12.23 C 0.13333 km/h
2127 03-10-2019 14:00:00 11.68333 C 9.65 g/m*3 11.68 C 0.8 km/h
2128 03-10-2019 15:00:00 11.88333 C 10.01 g/m*3 11.88 C 0.8 km/h
2129 03-10-2019 16:00:00 12.15833 C 10.02 g/m*3 12.16 C 2.41667 km/h
2130 03-10-2019 17:00:00 11.75833 C 9.81 g/m*3 11.76 C 0 km/h
2131 03-10-2019 18:00:00 10.81667 C 9.3 g/m*3 10.82 C 1.06667 km/h
2132 03-10-2019 19:00:00 9.90833 C 8.84 g/m*3 9.91 C 0.8 km/h
2133 03-10-2019 20:00:00 9.36667 C 8.58 g/m*3 9.37 C 0 km/h
2134 03-10-2019 21:00:00 9.00833 C 8.45 g/m*3 9.01 C 0 km/h
2135 03-10-2019 22:00:00 8.625 C 8.26 g/m*3 8.63 C 0 km/h
2136 03-10-2019 23:00:00 8.375 C 8.13 g/m*3 8.38 C 0 km/h
2137 04-10-2019 00:00:00 8.38333 C 8.14 g/m*3 8.38 C 0 km/h
2138 04-10-2019 01:00:00 8.21667 C 8.07 g/m*3 8.22 C 0.13333 km/h
2139 04-10-2019 02:00:00 8.19167 C 8.08 g/m*3 8.19 C 0 km/h
2140 04-10-2019 03:00:00 8.05833 C 8.04 g/m*3 8.06 C 0 km/h
2141 04-10-2019 04:00:00 7.71667 C 7.86 g/m*3 7.72 C 0 km/h
2142 04-10-2019 05:00:00 7.90833 C 7.97 g/m*3 7.91 C 0 km/h
2143 04-10-2019 06:00:00 7.96667 C 8 g/m*3 7.97 C 0.93333 km/h
2144 04-10-2019 07:00:00 8.13333 C 8.09 g/m*3 8.13 C 2.68333 km/h
2145 04-10-2019 08:00:00 8.45833 C 8.26 g/m*3 8.46 C 1.06667 km/h
2146 04-10-2019 09:00:00 8.70833 C 8.39 g/m*3 8.71 C 0.8 km/h
2147 04-10-2019 10:00:00 9.125 C 8.61 g/m*3 9.13 C 3.875 km/h
2148 04-10-2019 11:00:00 9.75833 C 8.88 g/m*3 9.26 C 5.75833 km/h
2149 04-10-2019 12:00:00 10.65 C 9.33 g/m*3 10.65 C 3.06667 km/h
2150 04-10-2019 13:00:00 11.25833 C 9.61 g/m*3 11.26 C 2 km/h
Sensor: Nr:Datum:Temp:Abs-Feuchte:Windchill:Wind:
Aussen-T/F 2151 04-10-2019 14:00:00 13.03333 C 10.33 g/m*3 13.03 C 7.53333 km/h
2152 04-10-2019 15:00:00 13.81667 C 10.48 g/m*3 13.82 C 6.98333 km/h
2153 04-10-2019 16:00:00 14.05833 C 10.83 g/m*3 14.06 C 1.875 km/h
2154 04-10-2019 17:00:00 13.36667 C 10.78 g/m*3 13.37 C 2.13333 km/h
2155 04-10-2019 18:00:00 12.35833 C 10.26 g/m*3 12.36 C 1.46667 km/h
2156 04-10-2019 19:00:00 11.70833 C 9.98 g/m*3 11.71 C 1.06667 km/h
2157 04-10-2019 20:00:00 11.63333 C 10 g/m*3 11.63 C 2.53333 km/h
2158 04-10-2019 21:00:00 11.65833 C 10.01 g/m*3 11.66 C 5.775 km/h
2159 04-10-2019 22:00:00 11.69167 C 9.97 g/m*3 11.69 C 4.29167 km/h
2160 04-10-2019 23:00:00 11.71667 C 9.99 g/m*3 11.72 C 5.9 km/h
2161 05-10-2019 00:00:00 11.96667 C 9.86 g/m*3 11.97 C 7.10833 km/h
2162 05-10-2019 01:00:00 12.09167 C 9.86 g/m*3 12.09 C 6.85833 km/h
2163 05-10-2019 02:00:00 12.225 C 9.8 g/m*3 12.23 C 7.64167 km/h
2164 05-10-2019 03:00:00 12.3 C 9.94 g/m*3 12.3 C 3.20833 km/h
2165 05-10-2019 04:00:00 11.55 C 9.64 g/m*3 11.55 C 5.90833 km/h
2166 05-10-2019 05:00:00 10.75833 C 9.21 g/m*3 10.24 C 6.44167 km/h
2167 05-10-2019 06:00:00 10.20833 C 8.93 g/m*3 10.21 C 2.275 km/h
2168 05-10-2019 07:00:00 9.98333 C 8.77 g/m*3 9.98 C 3.6 km/h
2169 05-10-2019 08:00:00 9.81667 C 8.54 g/m*3 9.82 C 2.26667 km/h
2170 05-10-2019 09:00:00 10.18333 C 8.62 g/m*3 10.18 C 4.94167 km/h
2171 05-10-2019 10:00:00 10.55833 C 8.61 g/m*3 9.6 C 8.325 km/h
2172 05-10-2019 11:00:00 10.70833 C 8.11 g/m*3 9.72 C 8.60833 km/h
2173 05-10-2019 12:00:00 11.2 C 8.17 g/m*3 11.2 C 6.575 km/h
2174 05-10-2019 13:00:00 11.9 C 8.22 g/m*3 11.9 C 4.26667 km/h
2175 05-10-2019 14:00:00 11.89167 C 8.27 g/m*3 11.89 C 2.40833 km/h
Sensor: Nr:Datum:Temp:Abs-Feuchte:Windchill:Wind:
Aussen-T/F 2176 05-10-2019 15:00:00 12.23333 C 8.36 g/m*3 12.23 C 0.93333 km/h
2177 05-10-2019 16:00:00 12.3 C 8.75 g/m*3 12.3 C 0.66667 km/h
2178 05-10-2019 17:00:00 12.06667 C 9 g/m*3 12.07 C 0.13333 km/h
2179 05-10-2019 18:00:00 11.125 C 8.64 g/m*3 11.13 C 0 km/h
2180 05-10-2019 19:00:00 9.50833 C 7.87 g/m*3 9.51 C 0.4 km/h
2181 05-10-2019 20:00:00 8.35833 C 7.46 g/m*3 8.36 C 1.33333 km/h
2182 05-10-2019 21:00:00 7.875 C 7.44 g/m*3 7.88 C 0 km/h
2183 05-10-2019 22:00:00 7.43333 C 7.44 g/m*3 7.43 C 0 km/h
2184 05-10-2019 23:00:00 7.35 C 7.45 g/m*3 7.35 C 0 km/h
2185 06-10-2019 00:00:00 7.13333 C 7.36 g/m*3 7.13 C 0 km/h
2186 06-10-2019 01:00:00 6.55 C 7.11 g/m*3 6.55 C 0 km/h
2187 06-10-2019 02:00:00 6.7 C 7.26 g/m*3 6.7 C 0 km/h
2188 06-10-2019 03:00:00 7.05833 C 7.47 g/m*3 7.06 C 0 km/h
2189 06-10-2019 04:00:00 7.2 C 7.54 g/m*3 7.2 C 0 km/h
2190 06-10-2019 05:00:00 7.18333 C 7.53 g/m*3 7.18 C 0 km/h
2191 06-10-2019 06:00:00 7.38333 C 7.63 g/m*3 7.38 C 0 km/h
2192 06-10-2019 07:00:00 7.65833 C 7.76 g/m*3 7.66 C 0 km/h
2193 06-10-2019 08:00:00 7.84167 C 7.86 g/m*3 7.84 C 0 km/h
2194 06-10-2019 09:00:00 8.31667 C 8.1 g/m*3 8.32 C 0 km/h
2195 06-10-2019 10:00:00 8.63333 C 8.22 g/m*3 8.63 C 0.8 km/h
2196 06-10-2019 11:00:00 8.55833 C 8.21 g/m*3 8.56 C 3.6 km/h
2197 06-10-2019 12:00:00 8.78333 C 8.35 g/m*3 8.78 C 0.26667 km/h
2198 06-10-2019 13:00:00 9.06667 C 8.5 g/m*3 9.07 C 0.66667 km/h
2199 06-10-2019 14:00:00 9.25 C 8.6 g/m*3 9.25 C 1.06667 km/h
2200 06-10-2019 15:00:00 9.45833 C 8.72 g/m*3 9.46 C 0.53333 km/h
Sensor: Nr:Datum:Temp:Abs-Feuchte:Windchill:Wind:
Aussen-T/F 2201 06-10-2019 16:00:00 9.61667 C 8.8 g/m*3 9.62 C 1.86667 km/h
2202 06-10-2019 17:00:00 9.51667 C 8.75 g/m*3 9.52 C 0.53333 km/h
2203 06-10-2019 18:00:00 9.325 C 8.64 g/m*3 9.32 C 3.225 km/h
2204 06-10-2019 19:00:00 9.15 C 8.57 g/m*3 9.15 C 3.60833 km/h
2205 06-10-2019 20:00:00 9.1 C 8.61 g/m*3 9.1 C 0.4 km/h
2206 06-10-2019 21:00:00 9.04167 C 8.57 g/m*3 9.04 C 1.74167 km/h
2207 06-10-2019 22:00:00 8.81667 C 8.45 g/m*3 8.82 C 1.875 km/h
2208 06-10-2019 23:00:00 8.83333 C 8.46 g/m*3 8.83 C 0 km/h
2209 07-10-2019 00:00:00 8.9 C 8.5 g/m*3 8.9 C 0.26667 km/h
2210 07-10-2019 01:00:00 8.725 C 8.4 g/m*3 8.73 C 2.95 km/h
2211 07-10-2019 02:00:00 8.69167 C 8.38 g/m*3 8.69 C 0.13333 km/h
2212 07-10-2019 03:00:00 8.60833 C 8.34 g/m*3 8.61 C 1.33333 km/h
2213 07-10-2019 04:00:00 8.7 C 8.39 g/m*3 8.7 C 0 km/h
2214 07-10-2019 05:00:00 8.64167 C 8.36 g/m*3 8.64 C 1.86667 km/h
2215 07-10-2019 06:00:00 8.6 C 8.34 g/m*3 8.6 C 0.13333 km/h
2216 07-10-2019 07:00:00 8.6 C 8.34 g/m*3 8.6 C 0 km/h
2217 07-10-2019 08:00:00 8.66667 C 8.37 g/m*3 8.67 C 0 km/h
2218 07-10-2019 09:00:00 8.83333 C 8.46 g/m*3 8.83 C 0.26667 km/h
2219 07-10-2019 10:00:00 9.08333 C 8.6 g/m*3 9.08 C 1.06667 km/h
2220 07-10-2019 11:00:00 9.65 C 8.88 g/m*3 9.65 C 3.34167 km/h
2221 07-10-2019 12:00:00 10.51667 C 9.05 g/m*3 10.52 C 2.4 km/h
2222 07-10-2019 13:00:00 10.84167 C 9 g/m*3 10.84 C 2.675 km/h
2223 07-10-2019 14:00:00 11.46667 C 9.1 g/m*3 11.47 C 5.89167 km/h
2224 07-10-2019 15:00:00 12.225 C 9.43 g/m*3 12.23 C 1.86667 km/h
2225 07-10-2019 16:00:00 12.29167 C 9.53 g/m*3 12.29 C 1.33333 km/h
Sensor: Nr:Datum:Temp:Abs-Feuchte:Windchill:Wind:
Aussen-T/F 2226 07-10-2019 17:00:00 12.3 C 9.56 g/m*3 12.3 C 2.4 km/h
2227 07-10-2019 18:00:00 11.86667 C 9.56 g/m*3 11.87 C 0.53333 km/h
2228 07-10-2019 19:00:00 11.09167 C 9.35 g/m*3 11.09 C 0 km/h
2229 07-10-2019 20:00:00 10.725 C 9.32 g/m*3 10.73 C 0 km/h
2230 07-10-2019 21:00:00 10.975 C 9.58 g/m*3 10.98 C 0 km/h
2231 07-10-2019 22:00:00 11.1 C 9.67 g/m*3 11.1 C 0.26667 km/h
2232 07-10-2019 23:00:00 11.1 C 9.67 g/m*3 11.1 C 0.26667 km/h
2233 08-10-2019 00:00:00 11.11667 C 9.75 g/m*3 11.12 C 0.53333 km/h
2234 08-10-2019 01:00:00 11.25 C 9.79 g/m*3 11.25 C 1.33333 km/h
2235 08-10-2019 02:00:00 11.44167 C 9.88 g/m*3 11.44 C 0.93333 km/h
2236 08-10-2019 03:00:00 11.75833 C 10.05 g/m*3 11.76 C 3.75833 km/h
2237 08-10-2019 04:00:00 11.9 C 10.03 g/m*3 11.9 C 3.61667 km/h
2238 08-10-2019 05:00:00 12.31667 C 10 g/m*3 12.32 C 8.46667 km/h
2239 08-10-2019 06:00:00 12.18333 C 9.96 g/m*3 12.18 C 4.3 km/h
2240 08-10-2019 07:00:00 11.79167 C 9.97 g/m*3 11.79 C 2.53333 km/h
2241 08-10-2019 08:00:00 11.825 C 10.1 g/m*3 11.83 C 5.775 km/h
2242 08-10-2019 09:00:00 12.03333 C 10.25 g/m*3 12.03 C 10.05833 km/h
2243 08-10-2019 10:00:00 12.49167 C 10.45 g/m*3 12.49 C 12.76667 km/h
2244 08-10-2019 11:00:00 13.5 C 10.89 g/m*3 13.5 C 13.7 km/h
2245 08-10-2019 12:00:00 13.85833 C 10.95 g/m*3 13.86 C 14.36667 km/h
2246 08-10-2019 13:00:00 14.225 C 11.19 g/m*3 14.23 C 9.93333 km/h
2247 08-10-2019 14:00:00 14.6 C 11.43 g/m*3 14.6 C 10.075 km/h
2248 08-10-2019 15:00:00 14.48333 C 11.47 g/m*3 14.48 C 9.55 km/h
2249 08-10-2019 16:00:00 14.225 C 11.56 g/m*3 14.23 C 6.70833 km/h
2250 08-10-2019 17:00:00 14.05833 C 11.55 g/m*3 14.06 C 3.61667 km/h
Sensor: Nr:Datum:Temp:Abs-Feuchte:Windchill:Wind:
Aussen-T/F 2251 08-10-2019 18:00:00 13.86667 C 11.49 g/m*3 13.87 C 3.09167 km/h
2252 08-10-2019 19:00:00 13.79167 C 11.43 g/m*3 13.79 C 1.875 km/h
2253 08-10-2019 20:00:00 13.55 C 11.3 g/m*3 13.55 C 0.53333 km/h
2254 08-10-2019 21:00:00 13.225 C 11.14 g/m*3 13.23 C 0.13333 km/h
2255 08-10-2019 22:00:00 12.825 C 10.88 g/m*3 12.83 C 0 km/h
2256 08-10-2019 23:00:00 11.68333 C 10.05 g/m*3 11.68 C 0.53333 km/h
2257 09-10-2019 00:00:00 10.78333 C 9.56 g/m*3 10.78 C 0.13333 km/h
2258 09-10-2019 01:00:00 10.34167 C 9.31 g/m*3 10.34 C 0.13333 km/h
2259 09-10-2019 02:00:00 10.35 C 9.33 g/m*3 10.35 C 1.2 km/h
2260 09-10-2019 03:00:00 10.625 C 9.52 g/m*3 10.63 C 3.35833 km/h
2261 09-10-2019 04:00:00 10.98333 C 9.72 g/m*3 10.77 C 5.36667 km/h
2262 09-10-2019 05:00:00 10.79167 C 9.58 g/m*3 10.59 C 5.225 km/h
2263 09-10-2019 06:00:00 10.925 C 9.66 g/m*3 10.37 C 6.69167 km/h
2264 09-10-2019 07:00:00 10.64167 C 9.4 g/m*3 10.64 C 4.54167 km/h
2265 09-10-2019 08:00:00 10.73333 C 9.48 g/m*3 10.73 C 4.95833 km/h
2266 09-10-2019 09:00:00 11.2 C 9.76 g/m*3 11.2 C 5.36667 km/h
2267 09-10-2019 10:00:00 12.55 C 10.19 g/m*3 12.55 C 7.38333 km/h
2268 09-10-2019 11:00:00 13.55833 C 10.43 g/m*3 13.56 C 3.46667 km/h
2269 09-10-2019 12:00:00 13.90833 C 10.64 g/m*3 13.91 C 5.225 km/h
2270 09-10-2019 13:00:00 13.59167 C 10.87 g/m*3 13.59 C 1.34167 km/h
2271 09-10-2019 14:00:00 12.925 C 10.43 g/m*3 12.93 C 3.74167 km/h
2272 09-10-2019 15:00:00 12.28333 C 10.09 g/m*3 12.28 C 9.01667 km/h
2273 09-10-2019 16:00:00 12.775 C 10.02 g/m*3 12.78 C 8.86667 km/h
2274 09-10-2019 17:00:00 12.975 C 9.81 g/m*3 12.98 C 10.20833 km/h
2275 09-10-2019 18:00:00 12.525 C 9.54 g/m*3 12.53 C 11.28333 km/h
Sensor: Nr:Datum:Temp:Abs-Feuchte:Windchill:Wind:
Aussen-T/F 2276 09-10-2019 19:00:00 11.84167 C 9.37 g/m*3 11.84 C 9.675 km/h
2277 09-10-2019 20:00:00 11.20833 C 9.09 g/m*3 11.21 C 6.3 km/h
2278 09-10-2019 21:00:00 11.06667 C 9.07 g/m*3 11.07 C 8.2 km/h
2279 09-10-2019 22:00:00 11.10833 C 8.69 g/m*3 11.11 C 14.23333 km/h
2280 09-10-2019 23:00:00 10.8 C 8.53 g/m*3 9.33 C 11.7 km/h
2281 10-10-2019 00:00:00 10.375 C 8.45 g/m*3 8.64 C 12.89167 km/h
2282 10-10-2019 01:00:00 10.15833 C 8.49 g/m*3 9.61 C 6.15833 km/h
2283 10-10-2019 02:00:00 10.39167 C 8.71 g/m*3 10.39 C 4.825 km/h
2284 10-10-2019 03:00:00 10.68333 C 8.93 g/m*3 10.68 C 4.81667 km/h
2285 10-10-2019 04:00:00 10.56667 C 8.95 g/m*3 9.64 C 8.18333 km/h
2286 10-10-2019 05:00:00 10.40833 C 9.02 g/m*3 10.41 C 3.2 km/h
2287 10-10-2019 06:00:00 10.44167 C 9.05 g/m*3 10.11 C 5.49167 km/h
2288 10-10-2019 07:00:00 10.09167 C 8.79 g/m*3 9.37 C 6.84167 km/h
2289 10-10-2019 08:00:00 9.81667 C 8.56 g/m*3 8.93 C 7.375 km/h
2290 10-10-2019 09:00:00 10.675 C 8.79 g/m*3 9.59 C 9.13333 km/h
2291 10-10-2019 10:00:00 11.29167 C 8.88 g/m*3 11.29 C 11.825 km/h
2292 10-10-2019 11:00:00 12.33333 C 9.13 g/m*3 12.33 C 12.89167 km/h
2293 10-10-2019 12:00:00 13.35 C 9.1 g/m*3 13.35 C 14.1 km/h
2294 10-10-2019 13:00:00 14.28333 C 8.73 g/m*3 14.28 C 16.5 km/h
2295 10-10-2019 14:00:00 14.53333 C 9.12 g/m*3 14.53 C 12.20833 km/h
2296 10-10-2019 15:00:00 15.09167 C 9.33 g/m*3 15.09 C 12.76667 km/h
2297 10-10-2019 16:00:00 15.37778 C 9.32 g/m*3 15.38 C 12.01111 km/h
2298 10-10-2019 17:00:00 13.83333 C 9.62 g/m*3 13.83 C 9.675 km/h
2299 10-10-2019 18:00:00 13.18333 C 9.53 g/m*3 13.18 C 4.15 km/h
2300 10-10-2019 19:00:00 11.68333 C 9.19 g/m*3 11.68 C 3.475 km/h
Sensor: Nr:Datum:Temp:Abs-Feuchte:Windchill:Wind:
Aussen-T/F 2301 10-10-2019 20:00:00 11.69167 C 9.23 g/m*3 11.69 C 4.95 km/h
2302 10-10-2019 21:00:00 10.88333 C 9 g/m*3 10.88 C 0.26667 km/h
2303 10-10-2019 22:00:00 10.18333 C 8.9 g/m*3 10.18 C 0.13333 km/h
2304 10-10-2019 23:00:00 9.8 C 8.77 g/m*3 9.8 C 0.93333 km/h
2305 11-10-2019 00:00:00 9.575 C 8.73 g/m*3 9.57 C 1.06667 km/h
2306 11-10-2019 01:00:00 9.19167 C 8.52 g/m*3 9.19 C 0.8 km/h
2307 11-10-2019 02:00:00 8.83333 C 8.36 g/m*3 8.83 C 0 km/h
2308 11-10-2019 03:00:00 8.98333 C 8.48 g/m*3 8.98 C 1.74167 km/h
2309 11-10-2019 04:00:00 9.49167 C 8.72 g/m*3 9.49 C 3.86667 km/h
2310 11-10-2019 05:00:00 9.45833 C 8.62 g/m*3 9.46 C 2.40833 km/h
2311 11-10-2019 06:00:00 9.43333 C 8.6 g/m*3 9.43 C 0.4 km/h
2312 11-10-2019 07:00:00 9.91667 C 8.89 g/m*3 9.92 C 1.60833 km/h
2313 11-10-2019 08:00:00 10.98333 C 9.5 g/m*3 10.98 C 2.80833 km/h
2314 11-10-2019 09:00:00 12.425 C 10.21 g/m*3 12.43 C 3.21667 km/h
2315 11-10-2019 10:00:00 13.35833 C 10.58 g/m*3 13.36 C 3.34167 km/h
2316 11-10-2019 11:00:00 14.85833 C 10.83 g/m*3 14.86 C 11.68333 km/h
2317 11-10-2019 12:00:00 15.85 C 10.72 g/m*3 15.85 C 16.1 km/h
2318 11-10-2019 13:00:00 16.39167 C 10.82 g/m*3 16.39 C 11.15 km/h
2319 11-10-2019 14:00:00 16.29167 C 10.86 g/m*3 16.29 C 11.275 km/h
2320 11-10-2019 15:00:00 16.56667 C 10.9 g/m*3 16.57 C 11.03333 km/h
2321 11-10-2019 16:00:00 16.6 C 11.02 g/m*3 16.6 C 10.61667 km/h
2322 11-10-2019 17:00:00 16.66667 C 11.09 g/m*3 16.67 C 9 km/h
2323 11-10-2019 18:00:00 16.04167 C 11.1 g/m*3 16.04 C 4.03333 km/h
2324 11-10-2019 19:00:00 14.19167 C 10.81 g/m*3 14.19 C 0.4 km/h
2325 11-10-2019 20:00:00 13.55833 C 10.81 g/m*3 13.56 C 0 km/h
Sensor: Nr:Datum:Temp:Abs-Feuchte:Windchill:Wind:
Aussen-T/F 2326 11-10-2019 21:00:00 12.80833 C 10.44 g/m*3 12.81 C 0 km/h
2327 11-10-2019 22:00:00 12.075 C 10.11 g/m*3 12.08 C 0 km/h
2328 11-10-2019 23:00:00 11.81667 C 10.03 g/m*3 11.82 C 0 km/h
2329 12-10-2019 00:00:00 11.11667 C 9.59 g/m*3 11.12 C 0 km/h
2330 12-10-2019 01:00:00 10.63333 C 9.39 g/m*3 10.63 C 0 km/h
2331 12-10-2019 02:00:00 10.30833 C 9.2 g/m*3 10.31 C 0.13333 km/h
2332 12-10-2019 03:00:00 9.95833 C 9 g/m*3 9.96 C 0 km/h
2333 12-10-2019 04:00:00 10.01667 C 9.12 g/m*3 10.02 C 0 km/h
2334 12-10-2019 05:00:00 9.58333 C 8.84 g/m*3 9.58 C 0 km/h
2335 12-10-2019 06:00:00 8.89167 C 8.49 g/m*3 8.89 C 0 km/h
2336 12-10-2019 07:00:00 8.74167 C 8.41 g/m*3 8.74 C 0 km/h
2337 12-10-2019 08:00:00 8.86667 C 8.48 g/m*3 8.87 C 0 km/h
2338 12-10-2019 09:00:00 9.28333 C 8.73 g/m*3 9.28 C 0.93333 km/h
2339 12-10-2019 10:00:00 11.75 C 10.28 g/m*3 11.75 C 5.225 km/h
2340 12-10-2019 11:00:00 14.25 C 11.36 g/m*3 14.25 C 9.80833 km/h
2341 12-10-2019 12:00:00 16.45 C 11.47 g/m*3 16.45 C 7.79167 km/h
2342 12-10-2019 13:00:00 17.975 C 11.63 g/m*3 17.98 C 11.825 km/h
2343 12-10-2019 14:00:00 19.40833 C 11.8 g/m*3 19.41 C 13.56667 km/h
2344 12-10-2019 15:00:00 19.93333 C 11.86 g/m*3 19.93 C 14.76667 km/h
2345 12-10-2019 16:00:00 19.6 C 12.11 g/m*3 19.6 C 13.7 km/h
2346 12-10-2019 17:00:00 18.85 C 12.1 g/m*3 18.85 C 9.26667 km/h
2347 12-10-2019 18:00:00 17.225 C 12.21 g/m*3 17.23 C 0.26667 km/h
2348 12-10-2019 19:00:00 15.61667 C 11.8 g/m*3 15.62 C 0 km/h
2349 12-10-2019 20:00:00 14.93333 C 11.5 g/m*3 14.93 C 0 km/h
2350 12-10-2019 21:00:00 14.51667 C 11.56 g/m*3 14.52 C 1.6 km/h
Sensor: Nr:Datum:Temp:Abs-Feuchte:Windchill:Wind:
Aussen-T/F 2351 12-10-2019 22:00:00 14.925 C 11.72 g/m*3 14.93 C 0.26667 km/h
2352 12-10-2019 23:00:00 14.375 C 11.54 g/m*3 14.38 C 0 km/h
2353 13-10-2019 00:00:00 13.65 C 11.13 g/m*3 13.65 C 0.13333 km/h
2354 13-10-2019 01:00:00 13.11667 C 10.87 g/m*3 13.12 C 0 km/h
2355 13-10-2019 02:00:00 13.30833 C 11.14 g/m*3 13.31 C 0 km/h
2356 13-10-2019 03:00:00 13.40833 C 11.18 g/m*3 13.41 C 0 km/h
2357 13-10-2019 04:00:00 13 C 10.94 g/m*3 13 C 0.26667 km/h
2358 13-10-2019 05:00:00 13.54167 C 11.37 g/m*3 13.54 C 0 km/h
2359 13-10-2019 06:00:00 13.79167 C 11.55 g/m*3 13.79 C 0 km/h
2360 13-10-2019 07:00:00 13.76667 C 11.53 g/m*3 13.77 C 0 km/h
2361 13-10-2019 08:00:00 13.11667 C 11.08 g/m*3 13.12 C 0.4 km/h
2362 13-10-2019 09:00:00 13.46667 C 11.38 g/m*3 13.47 C 0 km/h
2363 13-10-2019 10:00:00 14.23333 C 11.98 g/m*3 14.23 C 0 km/h
2364 13-10-2019 11:00:00 15.63333 C 13.06 g/m*3 15.63 C 1.2 km/h
2365 13-10-2019 12:00:00 17.325 C 14.43 g/m*3 17.33 C 2.14167 km/h
2366 13-10-2019 13:00:00 19.45833 C 15.3 g/m*3 19.46 C 2.00833 km/h
2367 13-10-2019 14:00:00 21.65833 C 14.76 g/m*3 21.66 C 4.54167 km/h
2368 13-10-2019 15:00:00 22.03333 C 14.76 g/m*3 22.03 C 4.025 km/h
2369 13-10-2019 16:00:00 21.96667 C 14.92 g/m*3 21.97 C 2.54167 km/h
2370 13-10-2019 17:00:00 21.125 C 14.87 g/m*3 21.13 C 0.93333 km/h
2371 13-10-2019 18:00:00 19.51667 C 14.41 g/m*3 19.52 C 0.8 km/h
2372 13-10-2019 19:00:00 18.45 C 13.93 g/m*3 18.45 C 0.4 km/h
2373 13-10-2019 20:00:00 18.11667 C 13.66 g/m*3 18.12 C 0.26667 km/h
2374 13-10-2019 21:00:00 17.41667 C 13.24 g/m*3 17.42 C 0.26667 km/h
2375 13-10-2019 22:00:00 17.06667 C 12.86 g/m*3 17.07 C 0.13333 km/h
Sensor: Nr:Datum:Temp:Abs-Feuchte:Windchill:Wind:
Aussen-T/F 2376 13-10-2019 23:00:00 16.56667 C 12.52 g/m*3 16.57 C 0.26667 km/h
2377 14-10-2019 00:00:00 15.825 C 12.14 g/m*3 15.83 C 0 km/h
2378 14-10-2019 01:00:00 15.41667 C 11.97 g/m*3 15.42 C 0 km/h
2379 14-10-2019 02:00:00 14.91667 C 11.73 g/m*3 14.92 C 0 km/h
2380 14-10-2019 03:00:00 14.14167 C 11.33 g/m*3 14.14 C 0.26667 km/h
2381 14-10-2019 04:00:00 13.45833 C 11 g/m*3 13.46 C 0 km/h
2382 14-10-2019 05:00:00 13.36667 C 11.08 g/m*3 13.37 C 0.26667 km/h
2383 14-10-2019 06:00:00 12.9 C 10.73 g/m*3 12.9 C 0 km/h
2384 14-10-2019 07:00:00 12.75 C 10.7 g/m*3 12.75 C 1.2 km/h
2385 14-10-2019 08:00:00 12.88333 C 10.81 g/m*3 12.88 C 0 km/h
2386 14-10-2019 09:00:00 13.24167 C 11.07 g/m*3 13.24 C 0 km/h
2387 14-10-2019 10:00:00 13.64167 C 11.39 g/m*3 13.64 C 0 km/h
2388 14-10-2019 11:00:00 14.90833 C 12.37 g/m*3 14.91 C 0 km/h
2389 14-10-2019 12:00:00 16.49167 C 13.51 g/m*3 16.49 C 0 km/h
2390 14-10-2019 13:00:00 18.55833 C 14.17 g/m*3 18.56 C 1.73333 km/h
2391 14-10-2019 14:00:00 21.1 C 14.13 g/m*3 21.1 C 3.75 km/h
2392 14-10-2019 15:00:00 21.11667 C 13.92 g/m*3 21.12 C 2.675 km/h
2393 14-10-2019 16:00:00 20.775 C 13.38 g/m*3 20.78 C 2.81667 km/h
2394 14-10-2019 17:00:00 19.81667 C 13.44 g/m*3 19.82 C 0 km/h
2395 14-10-2019 18:00:00 18.93333 C 13.13 g/m*3 18.93 C 0.26667 km/h
2396 14-10-2019 19:00:00 17.43333 C 12.92 g/m*3 17.43 C 0.26667 km/h
2397 14-10-2019 20:00:00 16.71667 C 12.54 g/m*3 16.72 C 0.13333 km/h
2398 14-10-2019 21:00:00 15.88333 C 12.05 g/m*3 15.88 C 0 km/h
2399 14-10-2019 22:00:00 14.875 C 11.7 g/m*3 14.88 C 0.26667 km/h
2400 14-10-2019 23:00:00 15.075 C 11.86 g/m*3 15.08 C 0.26667 km/h
Sensor: Nr:Datum:Temp:Abs-Feuchte:Windchill:Wind:
Aussen-T/F 2401 15-10-2019 00:00:00 15.08333 C 11.86 g/m*3 15.08 C 0.13333 km/h
2402 15-10-2019 01:00:00 14.4 C 11.41 g/m*3 14.4 C 0.13333 km/h
2403 15-10-2019 02:00:00 13.43333 C 10.9 g/m*3 13.43 C 0 km/h
2404 15-10-2019 03:00:00 12.725 C 10.54 g/m*3 12.73 C 0 km/h
2405 15-10-2019 04:00:00 12.38333 C 10.41 g/m*3 12.38 C 0.8 km/h
2406 15-10-2019 05:00:00 11.95833 C 10.18 g/m*3 11.96 C 0 km/h
2407 15-10-2019 06:00:00 12.09167 C 10.35 g/m*3 12.09 C 0.26667 km/h
2408 15-10-2019 07:00:00 11.96667 C 10.24 g/m*3 11.97 C 0 km/h
2409 15-10-2019 08:00:00 11.79167 C 10.19 g/m*3 11.79 C 0 km/h
2410 15-10-2019 09:00:00 12.36667 C 10.58 g/m*3 12.37 C 0 km/h
2411 15-10-2019 10:00:00 13.25833 C 11.18 g/m*3 13.26 C 0.8 km/h
2412 15-10-2019 11:00:00 15.375 C 12.54 g/m*3 15.38 C 2.54167 km/h
2413 15-10-2019 12:00:00 17.68333 C 12.87 g/m*3 17.68 C 6.58333 km/h
2414 15-10-2019 13:00:00 18.10833 C 12.43 g/m*3 18.11 C 9 km/h
2415 15-10-2019 14:00:00 17.73333 C 12.25 g/m*3 17.73 C 7.11667 km/h
2416 15-10-2019 15:00:00 17.21667 C 12.02 g/m*3 17.22 C 5.625 km/h
2417 15-10-2019 16:00:00 16.65833 C 12.09 g/m*3 16.66 C 1.86667 km/h
2418 15-10-2019 17:00:00 16.28333 C 12.2 g/m*3 16.28 C 0.13333 km/h
2419 15-10-2019 18:00:00 15.11667 C 11.88 g/m*3 15.12 C 0.66667 km/h
2420 15-10-2019 19:00:00 14.29167 C 11.58 g/m*3 14.29 C 0 km/h
2421 15-10-2019 20:00:00 13.925 C 11.41 g/m*3 13.93 C 0 km/h
2422 15-10-2019 21:00:00 13.65 C 11.27 g/m*3 13.65 C 0 km/h
2423 15-10-2019 22:00:00 13.41667 C 11.17 g/m*3 13.42 C 2.275 km/h
2424 15-10-2019 23:00:00 12.925 C 10.73 g/m*3 12.93 C 7.39167 km/h
2425 16-10-2019 00:00:00 12.10833 C 10.18 g/m*3 12.11 C 3.48333 km/h
Sensor: Nr:Datum:Temp:Abs-Feuchte:Windchill:Wind:
Aussen-T/F 2426 16-10-2019 01:00:00 11.85833 C 10.11 g/m*3 11.86 C 0.13333 km/h
2427 16-10-2019 02:00:00 11.8 C 10.1 g/m*3 11.8 C 0.26667 km/h
2428 16-10-2019 03:00:00 11.775 C 10.09 g/m*3 11.78 C 4.425 km/h
2429 16-10-2019 04:00:00 11.625 C 9.99 g/m*3 11.63 C 2.675 km/h
2430 16-10-2019 05:00:00 11.425 C 9.87 g/m*3 11.43 C 1.33333 km/h
2431 16-10-2019 06:00:00 11.18333 C 9.63 g/m*3 11.18 C 6.975 km/h
2432 16-10-2019 07:00:00 10.95833 C 9.38 g/m*3 10.96 C 2.26667 km/h
2433 16-10-2019 08:00:00 10.65 C 9.2 g/m*3 10.65 C 2.81667 km/h
2434 16-10-2019 09:00:00 10.925 C 9.44 g/m*3 10.93 C 1.6 km/h
2435 16-10-2019 10:00:00 12.44167 C 9.99 g/m*3 12.44 C 3.2 km/h
2436 16-10-2019 11:00:00 13.79167 C 10.29 g/m*3 13.79 C 5.9 km/h
2437 16-10-2019 12:00:00 14.55 C 10.54 g/m*3 14.55 C 5.64167 km/h
2438 16-10-2019 13:00:00 14.08333 C 11.05 g/m*3 14.08 C 0.53333 km/h
2439 16-10-2019 14:00:00 13.51667 C 11.02 g/m*3 13.52 C 2.275 km/h
2440 16-10-2019 15:00:00 13.91667 C 11.37 g/m*3 13.92 C 1.73333 km/h
2441 16-10-2019 16:00:00 14.34167 C 11.6 g/m*3 14.34 C 2.4 km/h
2442 16-10-2019 17:00:00 14.36667 C 11.66 g/m*3 14.37 C 0.26667 km/h
2443 16-10-2019 18:00:00 13.90833 C 11.39 g/m*3 13.91 C 0.13333 km/h
2444 16-10-2019 19:00:00 13.53333 C 11.25 g/m*3 13.53 C 0 km/h
2445 16-10-2019 20:00:00 13.25 C 11.06 g/m*3 13.25 C 0.26667 km/h
2446 16-10-2019 21:00:00 12.71667 C 10.7 g/m*3 12.72 C 0.26667 km/h
2447 16-10-2019 22:00:00 12.55833 C 10.59 g/m*3 12.56 C 0.26667 km/h
2448 16-10-2019 23:00:00 12.4 C 10.53 g/m*3 12.4 C 0.66667 km/h
2449 17-10-2019 00:00:00 12.64167 C 10.65 g/m*3 12.64 C 0.26667 km/h
2450 17-10-2019 01:00:00 12.61667 C 10.63 g/m*3 12.62 C 0.26667 km/h
Sensor: Nr:Datum:Temp:Abs-Feuchte:Windchill:Wind:
Aussen-T/F 2451 17-10-2019 02:00:00 12.375 C 10.47 g/m*3 12.38 C 0.26667 km/h
2452 17-10-2019 03:00:00 12.76667 C 10.67 g/m*3 12.77 C 1.2 km/h
2453 17-10-2019 04:00:00 13.575 C 10.86 g/m*3 13.58 C 1.6 km/h
2454 17-10-2019 05:00:00 14.19167 C 10.9 g/m*3 14.19 C 3.20833 km/h
2455 17-10-2019 06:00:00 14.23333 C 10.88 g/m*3 14.23 C 4.00833 km/h
2456 17-10-2019 07:00:00 14.24167 C 10.97 g/m*3 14.24 C 2.68333 km/h
2457 17-10-2019 08:00:00 14.58333 C 10.96 g/m*3 14.58 C 6.85 km/h
2458 17-10-2019 09:00:00 15.36667 C 11.12 g/m*3 15.37 C 7.39167 km/h
2459 17-10-2019 10:00:00 15.86667 C 11.24 g/m*3 15.87 C 9.39167 km/h
2460 17-10-2019 11:00:00 16.65833 C 11.61 g/m*3 16.66 C 3.88333 km/h
2461 17-10-2019 12:00:00 16.65833 C 11.92 g/m*3 16.66 C 2.26667 km/h
2462 17-10-2019 13:00:00 16.81667 C 11.88 g/m*3 16.82 C 5.50833 km/h
2463 17-10-2019 14:00:00 16.84167 C 12.29 g/m*3 16.84 C 0.93333 km/h
2464 17-10-2019 15:00:00 16.63333 C 12.31 g/m*3 16.63 C 0.8 km/h
2465 17-10-2019 16:00:00 15.85 C 12.31 g/m*3 15.85 C 0.26667 km/h
2466 17-10-2019 17:00:00 15.14167 C 12.15 g/m*3 15.14 C 0.13333 km/h
2467 17-10-2019 18:00:00 14.61667 C 11.9 g/m*3 14.62 C 0.26667 km/h
2468 17-10-2019 19:00:00 14.15833 C 11.65 g/m*3 14.16 C 0 km/h
2469 17-10-2019 20:00:00 14.08333 C 11.64 g/m*3 14.08 C 0.4 km/h
2470 17-10-2019 21:00:00 13.9 C 11.6 g/m*3 13.9 C 0.53333 km/h
2471 17-10-2019 22:00:00 13.85 C 11.59 g/m*3 13.85 C 0.13333 km/h
2472 17-10-2019 23:00:00 13.89167 C 11.62 g/m*3 13.89 C 0.66667 km/h
2473 18-10-2019 00:00:00 13.825 C 11.58 g/m*3 13.83 C 0.93333 km/h
2474 18-10-2019 01:00:00 12.83333 C 10.88 g/m*3 12.83 C 0.4 km/h
2475 18-10-2019 02:00:00 12.125 C 10.42 g/m*3 12.13 C 0 km/h
Sensor: Nr:Datum:Temp:Abs-Feuchte:Windchill:Wind:
Aussen-T/F 2476 18-10-2019 03:00:00 11.58333 C 10.07 g/m*3 11.58 C 0.4 km/h
2477 18-10-2019 04:00:00 11.49167 C 10.01 g/m*3 11.49 C 0.26667 km/h
2478 18-10-2019 05:00:00 11.80833 C 10.25 g/m*3 11.81 C 0.66667 km/h
2479 18-10-2019 06:00:00 12.7 C 10.91 g/m*3 12.7 C 1.6 km/h
2480 18-10-2019 07:00:00 12.60833 C 10.81 g/m*3 12.61 C 0.13333 km/h
2481 18-10-2019 08:00:00 12.8 C 10.98 g/m*3 12.8 C 0.26667 km/h
2482 18-10-2019 09:00:00 13.4 C 11.39 g/m*3 13.4 C 0 km/h
2483 18-10-2019 10:00:00 14.38333 C 12.1 g/m*3 14.38 C 1.33333 km/h
2484 18-10-2019 11:00:00 14.66667 C 12.23 g/m*3 14.67 C 3.88333 km/h
2485 18-10-2019 12:00:00 15.46667 C 11.78 g/m*3 15.47 C 7.25 km/h
2486 18-10-2019 13:00:00 14.95833 C 10.73 g/m*3 14.96 C 15.175 km/h
2487 18-10-2019 14:00:00 12.91667 C 9.64 g/m*3 12.92 C 16.50833 km/h
2488 18-10-2019 15:00:00 13.8 C 9.6 g/m*3 13.8 C 12.89167 km/h
2489 18-10-2019 16:00:00 14.23333 C 9.29 g/m*3 14.23 C 15.425 km/h
2490 18-10-2019 17:00:00 14.40833 C 9.06 g/m*3 14.41 C 9.8 km/h
2491 18-10-2019 18:00:00 12.64167 C 8.93 g/m*3 12.64 C 2.41667 km/h
2492 18-10-2019 19:00:00 10.63333 C 8.68 g/m*3 10.63 C 0.26667 km/h
2493 18-10-2019 20:00:00 9.75833 C 8.5 g/m*3 9.76 C 0 km/h
2494 18-10-2019 21:00:00 9.20833 C 8.34 g/m*3 9.21 C 0 km/h
2495 18-10-2019 22:00:00 9.23333 C 8.49 g/m*3 9.23 C 0 km/h
2496 18-10-2019 23:00:00 9.14167 C 8.45 g/m*3 9.14 C 0 km/h
2497 19-10-2019 00:00:00 9.14167 C 8.47 g/m*3 9.14 C 0.66667 km/h
2498 19-10-2019 01:00:00 9.64167 C 8.68 g/m*3 9.64 C 0.4 km/h
2499 19-10-2019 02:00:00 9.65833 C 8.67 g/m*3 9.66 C 0 km/h
2500 19-10-2019 03:00:00 9.875 C 8.76 g/m*3 9.88 C 0 km/h
Sensor: Nr:Datum:Temp:Abs-Feuchte:Windchill:Wind:
Aussen-T/F 2501 19-10-2019 04:00:00 10.10833 C 8.89 g/m*3 10.11 C 0.53333 km/h
2502 19-10-2019 05:00:00 10.68333 C 9.21 g/m*3 10.68 C 0.93333 km/h
2503 19-10-2019 06:00:00 10.70833 C 9.19 g/m*3 10.71 C 0 km/h
2504 19-10-2019 07:00:00 10.64167 C 9.23 g/m*3 10.64 C 0 km/h
2505 19-10-2019 08:00:00 11.05 C 9.54 g/m*3 11.05 C 0.26667 km/h
2506 19-10-2019 09:00:00 11.875 C 9.97 g/m*3 11.88 C 0.4 km/h
2507 19-10-2019 10:00:00 13.025 C 10.3 g/m*3 13.03 C 1.2 km/h
2508 19-10-2019 11:00:00 13.825 C 10.9 g/m*3 13.83 C 3.35 km/h
2509 19-10-2019 12:00:00 15.40833 C 11.24 g/m*3 15.41 C 3.34167 km/h
2510 19-10-2019 13:00:00 16.2 C 11.32 g/m*3 16.2 C 4.95833 km/h
2511 19-10-2019 14:00:00 16.9 C 11.41 g/m*3 16.9 C 7.5 km/h
2512 19-10-2019 15:00:00 17.24167 C 11.33 g/m*3 17.24 C 6.30833 km/h
2513 19-10-2019 16:00:00 17.15 C 11.4 g/m*3 17.15 C 1.475 km/h
2514 19-10-2019 17:00:00 16.84167 C 11.6 g/m*3 16.84 C 2.00833 km/h
2515 19-10-2019 18:00:00 15.16364 C 11.61 g/m*3 15.16 C 0.87273 km/h
2516 19-10-2019 19:00:00 14.03333 C 11.32 g/m*3 14.03 C 0 km/h
2517 19-10-2019 20:00:00 13.625 C 11.19 g/m*3 13.63 C 0 km/h
2518 19-10-2019 21:00:00 13.43333 C 11.14 g/m*3 13.43 C 0.53333 km/h
2519 19-10-2019 22:00:00 13.21667 C 11.03 g/m*3 13.22 C 0 km/h
2520 19-10-2019 23:00:00 13.00833 C 10.89 g/m*3 13.01 C 0 km/h
2521 20-10-2019 00:00:00 13 C 10.96 g/m*3 13 C 0 km/h
2522 20-10-2019 01:00:00 13.13333 C 11.09 g/m*3 13.13 C 0 km/h
2523 20-10-2019 02:00:00 13.11667 C 11.08 g/m*3 13.12 C 0 km/h
2524 20-10-2019 03:00:00 13.1 C 11.07 g/m*3 13.1 C 0 km/h
2525 20-10-2019 04:00:00 13.16667 C 11.11 g/m*3 13.17 C 0 km/h
Sensor: Nr:Datum:Temp:Abs-Feuchte:Windchill:Wind:
Aussen-T/F 2526 20-10-2019 05:00:00 12.96667 C 10.98 g/m*3 12.97 C 0.26667 km/h
2527 20-10-2019 06:00:00 12.74167 C 10.83 g/m*3 12.74 C 0 km/h
2528 20-10-2019 07:00:00 12.65 C 10.76 g/m*3 12.65 C 0 km/h
2529 20-10-2019 08:00:00 12.70833 C 10.8 g/m*3 12.71 C 0 km/h
2530 20-10-2019 09:00:00 12.84167 C 10.96 g/m*3 12.84 C 0.13333 km/h
2531 20-10-2019 10:00:00 13.04167 C 11.1 g/m*3 13.04 C 0.13333 km/h
2532 20-10-2019 11:00:00 13.25833 C 11.26 g/m*3 13.26 C 0.53333 km/h
2533 20-10-2019 12:00:00 13.69167 C 11.6 g/m*3 13.69 C 0 km/h
2534 20-10-2019 13:00:00 13.96667 C 11.8 g/m*3 13.97 C 0.13333 km/h
2535 20-10-2019 14:00:00 14.275 C 12.02 g/m*3 14.28 C 0.53333 km/h
2536 20-10-2019 15:00:00 14.525 C 12.21 g/m*3 14.53 C 0 km/h
2537 20-10-2019 16:00:00 14.83333 C 12.44 g/m*3 14.83 C 0.26667 km/h
2538 20-10-2019 17:00:00 14.85 C 12.45 g/m*3 14.85 C 0 km/h
2539 20-10-2019 18:00:00 14.45833 C 12.16 g/m*3 14.46 C 0 km/h
2540 20-10-2019 19:00:00 14.20833 C 11.97 g/m*3 14.21 C 0 km/h
2541 20-10-2019 20:00:00 14.03333 C 11.85 g/m*3 14.03 C 0 km/h
2542 20-10-2019 21:00:00 14.05833 C 11.86 g/m*3 14.06 C 0.26667 km/h
2543 20-10-2019 22:00:00 13.90909 C 11.76 g/m*3 13.91 C 0 km/h
2544 20-10-2019 23:00:00 13.925 C 11.77 g/m*3 13.93 C 0.26667 km/h
2545 21-10-2019 00:00:00 14.24167 C 12 g/m*3 14.24 C 4.95833 km/h
2546 21-10-2019 01:00:00 14.14167 C 11.92 g/m*3 14.14 C 0 km/h
2547 21-10-2019 02:00:00 13.74167 C 11.63 g/m*3 13.74 C 0 km/h
2548 21-10-2019 03:00:00 13.66667 C 11.58 g/m*3 13.67 C 0 km/h
2549 21-10-2019 04:00:00 13.11667 C 11.19 g/m*3 13.12 C 0 km/h
2550 21-10-2019 05:00:00 13.21667 C 11.26 g/m*3 13.22 C 0.13333 km/h
Sensor: Nr:Datum:Temp:Abs-Feuchte:Windchill:Wind:
Aussen-T/F 2551 21-10-2019 06:00:00 13.60833 C 11.54 g/m*3 13.61 C 0 km/h
2552 21-10-2019 07:00:00 13.31667 C 11.33 g/m*3 13.32 C 0 km/h
2553 21-10-2019 08:00:00 12.70833 C 10.91 g/m*3 12.71 C 0 km/h
2554 21-10-2019 09:00:00 12.9 C 11.05 g/m*3 12.9 C 0 km/h
2555 21-10-2019 10:00:00 13.49167 C 11.49 g/m*3 13.49 C 0.4 km/h
2556 21-10-2019 11:00:00 14.00833 C 11.83 g/m*3 14.01 C 2 km/h
2557 21-10-2019 12:00:00 14.60833 C 12.29 g/m*3 14.61 C 3.35 km/h
2558 21-10-2019 13:00:00 15.91667 C 12.04 g/m*3 15.92 C 11.025 km/h
2559 21-10-2019 14:00:00 16.70833 C 11.69 g/m*3 16.71 C 6.31667 km/h
2560 21-10-2019 15:00:00 16.375 C 11.27 g/m*3 16.38 C 6.96667 km/h
2561 21-10-2019 16:00:00 15.86667 C 10.94 g/m*3 15.87 C 4.95 km/h
2562 21-10-2019 17:00:00 14.73333 C 10.79 g/m*3 14.73 C 1.60833 km/h
2563 21-10-2019 18:00:00 13.72727 C 10.33 g/m*3 13.73 C 0.87273 km/h
2564 21-10-2019 19:00:00 12.49167 C 9.92 g/m*3 12.49 C 0 km/h
2565 21-10-2019 20:00:00 11.75 C 9.69 g/m*3 11.75 C 0 km/h
2566 21-10-2019 21:00:00 11.38333 C 9.6 g/m*3 11.38 C 0 km/h
2567 21-10-2019 22:00:00 11.325 C 9.6 g/m*3 11.33 C 0 km/h
2568 21-10-2019 23:00:00 11.21667 C 9.52 g/m*3 11.22 C 0 km/h
2569 22-10-2019 00:00:00 10.825 C 9.36 g/m*3 10.83 C 0 km/h
2570 22-10-2019 01:00:00 11.01667 C 9.52 g/m*3 11.02 C 0.26667 km/h
2571 22-10-2019 02:00:00 10.94167 C 9.47 g/m*3 10.94 C 0 km/h
2572 22-10-2019 03:00:00 10.875 C 9.42 g/m*3 10.88 C 0 km/h
2573 22-10-2019 04:00:00 10.66667 C 9.29 g/m*3 10.67 C 0 km/h
2574 22-10-2019 05:00:00 10 C 8.92 g/m*3 10 C 0 km/h
2575 22-10-2019 06:00:00 10.1 C 9.08 g/m*3 10.1 C 0 km/h
Sensor: Nr:Datum:Temp:Abs-Feuchte:Windchill:Wind:
Aussen-T/F 2576 22-10-2019 07:00:00 9.975 C 8.95 g/m*3 9.98 C 0 km/h
2577 22-10-2019 08:00:00 9.875 C 8.95 g/m*3 9.88 C 0 km/h
2578 22-10-2019 09:00:00 10.44167 C 9.25 g/m*3 10.44 C 1.2 km/h
2579 22-10-2019 10:00:00 11.36667 C 9.62 g/m*3 11.37 C 3.6 km/h
2580 22-10-2019 11:00:00 12.78333 C 9.88 g/m*3 12.78 C 4.675 km/h
2581 22-10-2019 12:00:00 13.61667 C 10 g/m*3 13.62 C 1.06667 km/h
2582 22-10-2019 13:00:00 14.35714 C 10.15 g/m*3 14.36 C 1.82857 km/h
2583 22-10-2019 14:00:00 15.08333 C 9.99 g/m*3 15.08 C 3.2 km/h
2584 22-10-2019 15:00:00 14.68333 C 10.31 g/m*3 14.68 C 0.26667 km/h
2585 22-10-2019 16:00:00 13.78333 C 10.36 g/m*3 13.78 C 0 km/h
2586 22-10-2019 17:00:00 13.31667 C 10.17 g/m*3 13.32 C 0.13333 km/h
2587 22-10-2019 18:00:00 12.55 C 9.64 g/m*3 12.55 C 1.33333 km/h
2588 22-10-2019 19:00:00 11.74167 C 9.48 g/m*3 11.74 C 0 km/h
2589 22-10-2019 20:00:00 10.70833 C 9.16 g/m*3 10.71 C 0 km/h
2590 22-10-2019 21:00:00 10.125 C 8.96 g/m*3 10.13 C 0 km/h
2591 22-10-2019 22:00:00 10.20833 C 9.13 g/m*3 10.21 C 0 km/h
2592 22-10-2019 23:00:00 9.9 C 8.94 g/m*3 9.9 C 0 km/h
2593 23-10-2019 00:00:00 8.98333 C 8.43 g/m*3 8.98 C 0 km/h
2594 23-10-2019 01:00:00 8.61667 C 8.26 g/m*3 8.62 C 0 km/h
2595 23-10-2019 02:00:00 8.20833 C 8.04 g/m*3 8.21 C 0 km/h
2596 23-10-2019 03:00:00 8.00833 C 8 g/m*3 8.01 C 0 km/h
2597 23-10-2019 04:00:00 7.83333 C 7.93 g/m*3 7.83 C 0 km/h
2598 23-10-2019 05:00:00 8.16667 C 8.11 g/m*3 8.17 C 0 km/h
2599 23-10-2019 06:00:00 8.13333 C 8.09 g/m*3 8.13 C 0 km/h
2600 23-10-2019 07:00:00 7.95 C 7.99 g/m*3 7.95 C 0 km/h
Sensor: Nr:Datum:Temp:Abs-Feuchte:Windchill:Wind:
Aussen-T/F 2601 23-10-2019 08:00:00 7.86667 C 7.97 g/m*3 7.87 C 0.13333 km/h
2602 23-10-2019 09:00:00 8.70833 C 8.47 g/m*3 8.71 C 1.06667 km/h
2603 23-10-2019 10:00:00 9.60833 C 8.98 g/m*3 9.61 C 0.13333 km/h
2604 23-10-2019 11:00:00 10.98333 C 9.8 g/m*3 10.98 C 3.20833 km/h
2605 23-10-2019 12:00:00 11.825 C 10.16 g/m*3 11.83 C 7.11667 km/h
2606 23-10-2019 13:00:00 12.95833 C 10.43 g/m*3 12.96 C 5.50833 km/h
2607 23-10-2019 14:00:00 13.84167 C 10.72 g/m*3 13.84 C 6.975 km/h
2608 23-10-2019 15:00:00 14.3 C 10.94 g/m*3 14.3 C 3.34167 km/h
2609 23-10-2019 16:00:00 14.79167 C 11.3 g/m*3 14.79 C 0.93333 km/h
2610 23-10-2019 17:00:00 14.94167 C 11.51 g/m*3 14.94 C 0.13333 km/h
2611 23-10-2019 18:00:00 14.175 C 11.18 g/m*3 14.18 C 0 km/h
2612 23-10-2019 19:00:00 13.39167 C 10.86 g/m*3 13.39 C 0.13333 km/h
2613 23-10-2019 20:00:00 13.24167 C 10.86 g/m*3 13.24 C 0 km/h
2614 23-10-2019 21:00:00 13.19167 C 10.9 g/m*3 13.19 C 0 km/h
2615 23-10-2019 22:00:00 12.94167 C 10.73 g/m*3 12.94 C 0 km/h
2616 23-10-2019 23:00:00 12.76667 C 10.62 g/m*3 12.77 C 0 km/h
2617 24-10-2019 00:00:00 12.39167 C 10.44 g/m*3 12.39 C 0 km/h
2618 24-10-2019 01:00:00 12.15833 C 10.33 g/m*3 12.16 C 0.66667 km/h
2619 24-10-2019 02:00:00 12.25833 C 10.43 g/m*3 12.26 C 0 km/h
2620 24-10-2019 03:00:00 11.81667 C 10.11 g/m*3 11.82 C 0 km/h
2621 24-10-2019 04:00:00 11.59167 C 10.06 g/m*3 11.59 C 0 km/h
2622 24-10-2019 05:00:00 11.85 C 10.24 g/m*3 11.85 C 0.13333 km/h
2623 24-10-2019 06:00:00 11.89167 C 10.28 g/m*3 11.89 C 0.53333 km/h
2624 24-10-2019 07:00:00 12.33333 C 10.56 g/m*3 12.33 C 0.66667 km/h
2625 24-10-2019 08:00:00 12.49167 C 10.66 g/m*3 12.49 C 0.66667 km/h
Sensor: Nr:Datum:Temp:Abs-Feuchte:Windchill:Wind:
Aussen-T/F 2626 24-10-2019 09:00:00 13.01667 C 11.01 g/m*3 13.02 C 0 km/h
2627 24-10-2019 10:00:00 13.58333 C 11.38 g/m*3 13.58 C 0.93333 km/h
2628 24-10-2019 11:00:00 14.51667 C 11.65 g/m*3 14.52 C 0.53333 km/h
2629 24-10-2019 12:00:00 15.175 C 12 g/m*3 15.18 C 0 km/h
2630 24-10-2019 13:00:00 16.45833 C 12.57 g/m*3 16.46 C 1.74167 km/h
2631 24-10-2019 14:00:00 17.46667 C 12.93 g/m*3 17.47 C 0.66667 km/h
2632 24-10-2019 15:00:00 18.525 C 13.34 g/m*3 18.52 C 1.2 km/h
2633 24-10-2019 16:00:00 18.44167 C 12.48 g/m*3 18.44 C 4.01667 km/h
2634 24-10-2019 17:00:00 17.525 C 12.19 g/m*3 17.52 C 2.28333 km/h
2635 24-10-2019 18:00:00 15.70833 C 11.42 g/m*3 15.71 C 1.86667 km/h
2636 24-10-2019 19:00:00 14.69167 C 11.11 g/m*3 14.69 C 1.06667 km/h
2637 24-10-2019 20:00:00 13.85833 C 10.81 g/m*3 13.86 C 0.66667 km/h
2638 24-10-2019 21:00:00 13.54167 C 10.67 g/m*3 13.54 C 0.26667 km/h
2639 24-10-2019 22:00:00 13.075 C 10.53 g/m*3 13.08 C 0 km/h
2640 24-10-2019 23:00:00 13.18333 C 10.74 g/m*3 13.18 C 0 km/h
2641 25-10-2019 00:00:00 12.40833 C 10.23 g/m*3 12.41 C 0 km/h
2642 25-10-2019 01:00:00 11.95 C 10.09 g/m*3 11.95 C 0 km/h
2643 25-10-2019 02:00:00 11.49167 C 9.82 g/m*3 11.49 C 1.075 km/h
2644 25-10-2019 03:00:00 12.34167 C 10.22 g/m*3 12.34 C 1.875 km/h
2645 25-10-2019 04:00:00 12.88333 C 10.32 g/m*3 12.88 C 1.73333 km/h
2646 25-10-2019 05:00:00 12.65833 C 10.09 g/m*3 12.66 C 2.95 km/h
2647 25-10-2019 06:00:00 12.63333 C 10.2 g/m*3 12.63 C 1.86667 km/h
2648 25-10-2019 07:00:00 13.175 C 10.39 g/m*3 13.18 C 2.40833 km/h
2649 25-10-2019 08:00:00 12.68333 C 10.19 g/m*3 12.68 C 1.46667 km/h
2650 25-10-2019 09:00:00 12.93333 C 10.5 g/m*3 12.93 C 1.86667 km/h
Sensor: Nr:Datum:Temp:Abs-Feuchte:Windchill:Wind:
Aussen-T/F 2651 25-10-2019 10:00:00 13.775 C 10.6 g/m*3 13.78 C 6.30833 km/h
2652 25-10-2019 11:00:00 14.90833 C 10.52 g/m*3 14.91 C 9.40833 km/h
2653 25-10-2019 12:00:00 15.275 C 10.34 g/m*3 15.28 C 9.95833 km/h
2654 25-10-2019 13:00:00 16.19167 C 10.17 g/m*3 16.19 C 9.275 km/h
2655 25-10-2019 14:00:00 16.29167 C 10.24 g/m*3 16.29 C 7.525 km/h
2656 25-10-2019 15:00:00 16.43333 C 9.86 g/m*3 16.43 C 9.68333 km/h
2657 25-10-2019 16:00:00 16.05833 C 10 g/m*3 16.06 C 6.575 km/h
2658 25-10-2019 17:00:00 14.56667 C 10.21 g/m*3 14.57 C 0.66667 km/h
2659 25-10-2019 18:00:00 13.01667 C 9.81 g/m*3 13.02 C 0.8 km/h
2660 25-10-2019 19:00:00 11.99167 C 9.58 g/m*3 11.99 C 0.13333 km/h
2661 25-10-2019 20:00:00 11.45 C 9.4 g/m*3 11.45 C 0 km/h
2662 25-10-2019 21:00:00 11.025 C 9.26 g/m*3 11.03 C 0 km/h
2663 25-10-2019 22:00:00 11.3 C 9.56 g/m*3 11.3 C 0.53333 km/h
2664 25-10-2019 23:00:00 12.46667 C 10.12 g/m*3 12.47 C 1.6 km/h
2665 26-10-2019 00:00:00 13.48333 C 10.42 g/m*3 13.48 C 1.46667 km/h
2666 26-10-2019 01:00:00 13.675 C 10.41 g/m*3 13.68 C 1.2 km/h
2667 26-10-2019 02:00:00 13.53333 C 10.28 g/m*3 13.53 C 1.06667 km/h
2668 26-10-2019 03:00:00 12.26667 C 9.88 g/m*3 12.27 C 0.53333 km/h
2669 26-10-2019 04:00:00 11.59167 C 9.73 g/m*3 11.59 C 1.74167 km/h
2670 26-10-2019 05:00:00 12.29167 C 10.1 g/m*3 12.29 C 2.28333 km/h
2671 26-10-2019 06:00:00 11.86667 C 9.86 g/m*3 11.87 C 0.13333 km/h
2672 26-10-2019 07:00:00 11.1 C 9.47 g/m*3 11.1 C 0 km/h
2673 26-10-2019 08:00:00 10.15833 C 8.99 g/m*3 10.16 C 0 km/h
2674 26-10-2019 09:00:00 10.325 C 9.21 g/m*3 10.33 C 0 km/h
2675 26-10-2019 10:00:00 11.26667 C 9.84 g/m*3 11.27 C 0 km/h
Sensor: Nr:Datum:Temp:Abs-Feuchte:Windchill:Wind:
Aussen-T/F 2676 26-10-2019 11:00:00 12.475 C 10.63 g/m*3 12.48 C 0 km/h
2677 26-10-2019 12:00:00 13.81667 C 11.34 g/m*3 13.82 C 1.2 km/h
2678 26-10-2019 13:00:00 15.18333 C 11.66 g/m*3 15.18 C 0.93333 km/h
2679 26-10-2019 14:00:00 16.53333 C 11.97 g/m*3 16.53 C 2.26667 km/h
2680 26-10-2019 15:00:00 16.78333 C 12.09 g/m*3 16.78 C 0.66667 km/h
2681 26-10-2019 16:00:00 16.53333 C 12.06 g/m*3 16.53 C 1.06667 km/h
2682 26-10-2019 17:00:00 15.31667 C 11.43 g/m*3 15.32 C 1.6 km/h
2683 26-10-2019 18:00:00 13.925 C 10.7 g/m*3 13.93 C 0.53333 km/h
2684 26-10-2019 19:00:00 12.975 C 10.3 g/m*3 12.98 C 0.26667 km/h
2685 26-10-2019 20:00:00 12.86667 C 10.42 g/m*3 12.87 C 0.4 km/h
2686 26-10-2019 21:00:00 12.99167 C 10.44 g/m*3 12.99 C 0 km/h
2687 26-10-2019 22:00:00 12.64167 C 10.32 g/m*3 12.64 C 0 km/h
2688 26-10-2019 23:00:00 12.625 C 10.4 g/m*3 12.63 C 0.4 km/h
2689 27-10-2019 00:00:00 13.45833 C 10.54 g/m*3 13.46 C 3.35 km/h
2690 27-10-2019 01:00:00 13.74167 C 10.39 g/m*3 13.74 C 0.8 km/h
2691 27-10-2019 02:00:00 12.98333 C 10.14 g/m*3 12.98 C 2 km/h
2692 27-10-2019 04:00:00 12.17391 C 9.93 g/m*3 12.17 C 1.04348 km/h
2693 27-10-2019 05:00:00 12.87692 C 10.27 g/m*3 12.88 C 0.98462 km/h
2694 27-10-2019 06:00:00 14.125 C 10.45 g/m*3 14.13 C 7.10833 km/h
2695 27-10-2019 07:00:00 14.16667 C 10.64 g/m*3 14.17 C 9.66667 km/h
2696 27-10-2019 08:00:00 11.975 C 9.77 g/m*3 11.98 C 10.89167 km/h
2697 27-10-2019 09:00:00 10.425 C 8.96 g/m*3 9.15 C 9.93333 km/h
2698 27-10-2019 10:00:00 9.44167 C 8.49 g/m*3 9.44 C 1.6 km/h
2699 27-10-2019 11:00:00 9.75833 C 8.74 g/m*3 9.76 C 0.93333 km/h
2700 27-10-2019 12:00:00 10 C 8.87 g/m*3 10 C 0.4 km/h
Sensor: Nr:Datum:Temp:Abs-Feuchte:Windchill:Wind:
Aussen-T/F 2701 27-10-2019 13:00:00 9.9 C 8.84 g/m*3 9.9 C 0 km/h
2702 27-10-2019 14:00:00 9.53333 C 8.6 g/m*3 9.53 C 0.4 km/h
2703 27-10-2019 15:00:00 9.43333 C 8.61 g/m*3 9.43 C 0 km/h
2704 27-10-2019 16:00:00 9.16667 C 8.47 g/m*3 9.17 C 0 km/h
2705 27-10-2019 17:00:00 8.55 C 8.17 g/m*3 8.55 C 0 km/h
2706 27-10-2019 18:00:00 8.35 C 8.12 g/m*3 8.35 C 0 km/h
2707 27-10-2019 19:00:00 8.275 C 8.08 g/m*3 8.28 C 0 km/h
2708 27-10-2019 20:00:00 7.50833 C 7.69 g/m*3 7.51 C 0 km/h
2709 27-10-2019 21:00:00 6.91667 C 7.4 g/m*3 6.92 C 0.4 km/h
2710 27-10-2019 22:00:00 5.925 C 6.93 g/m*3 5.93 C 0 km/h
2711 27-10-2019 23:00:00 5.125 C 6.6 g/m*3 5.13 C 0.26667 km/h
2712 28-10-2019 00:00:00 5.325 C 6.73 g/m*3 5.33 C 0.13333 km/h
2713 28-10-2019 01:00:00 5.8 C 6.95 g/m*3 5.8 C 0.13333 km/h
2714 28-10-2019 02:00:00 5.59167 C 6.85 g/m*3 5.59 C 0 km/h
2715 28-10-2019 03:00:00 5.44167 C 6.79 g/m*3 5.44 C 0.26667 km/h
2716 28-10-2019 04:00:00 5.30833 C 6.73 g/m*3 5.31 C 0 km/h
2717 28-10-2019 05:00:00 5.2 C 6.68 g/m*3 5.2 C 0 km/h
2718 28-10-2019 06:00:00 5.13333 C 6.65 g/m*3 5.13 C 0 km/h
2719 28-10-2019 07:00:00 5.26667 C 6.71 g/m*3 5.27 C 0.8 km/h
2720 28-10-2019 08:00:00 5.51667 C 6.84 g/m*3 5.52 C 2 km/h
2721 28-10-2019 09:00:00 5.8 C 7.02 g/m*3 5.8 C 1.2 km/h
2722 28-10-2019 10:00:00 6.18333 C 7.2 g/m*3 6.18 C 2.26667 km/h
2723 28-10-2019 11:00:00 6.38333 C 7.29 g/m*3 6.38 C 1.6 km/h
2724 28-10-2019 12:00:00 6.5 C 7.33 g/m*3 5.48 C 5.88333 km/h
2725 28-10-2019 13:00:00 6.725 C 7.38 g/m*3 6.73 C 1.86667 km/h
Sensor: Nr:Datum:Temp:Abs-Feuchte:Windchill:Wind:
Aussen-T/F 2726 28-10-2019 14:00:00 7.39167 C 7.68 g/m*3 7.39 C 0.13333 km/h
2727 28-10-2019 15:00:00 8.01667 C 7.88 g/m*3 8.02 C 0.13333 km/h
2728 28-10-2019 16:00:00 7.79167 C 7.74 g/m*3 7.79 C 0 km/h
2729 28-10-2019 17:00:00 7 C 7.39 g/m*3 7 C 0 km/h
2730 28-10-2019 18:00:00 7.175 C 7.52 g/m*3 7.18 C 0 km/h
2731 28-10-2019 19:00:00 7.15833 C 7.52 g/m*3 7.16 C 0 km/h
2732 28-10-2019 20:00:00 6.99167 C 7.47 g/m*3 6.99 C 0 km/h
2733 28-10-2019 21:00:00 6.94167 C 7.46 g/m*3 6.94 C 0 km/h
2734 28-10-2019 22:00:00 6.78333 C 7.41 g/m*3 6.78 C 0.53333 km/h
2735 28-10-2019 23:00:00 6.7 C 7.33 g/m*3 6.7 C 1.73333 km/h
2736 29-10-2019 00:00:00 6.68333 C 7.29 g/m*3 6.68 C 2.4 km/h
2737 29-10-2019 01:00:00 6.41667 C 7.16 g/m*3 6.42 C 3.73333 km/h
2738 29-10-2019 02:00:00 6.3 C 7.11 g/m*3 6.3 C 0.26667 km/h
2739 29-10-2019 03:00:00 6.275 C 7.09 g/m*3 6.28 C 1.2 km/h
2740 29-10-2019 04:00:00 6.2 C 7.06 g/m*3 6.2 C 0.93333 km/h
2741 29-10-2019 05:00:00 6.2 C 7.06 g/m*3 6.2 C 1.46667 km/h
2742 29-10-2019 06:00:00 6.10833 C 7 g/m*3 6.11 C 1.06667 km/h
2743 29-10-2019 07:00:00 5.975 C 6.91 g/m*3 5.98 C 0.8 km/h
2744 29-10-2019 08:00:00 6.225 C 7.04 g/m*3 6.23 C 0.66667 km/h
2745 29-10-2019 09:00:00 6.69167 C 7.2 g/m*3 6.69 C 0 km/h
2746 29-10-2019 10:00:00 7.475 C 7.41 g/m*3 7.48 C 0.53333 km/h
2747 29-10-2019 11:00:00 8.23333 C 7.6 g/m*3 8.23 C 0 km/h
2748 29-10-2019 12:00:00 8.925 C 7.75 g/m*3 8.93 C 0.66667 km/h
2749 29-10-2019 13:00:00 9.74167 C 7.8 g/m*3 9.74 C 3.88333 km/h
2750 29-10-2019 14:00:00 10.59167 C 7.45 g/m*3 9.92 C 6.96667 km/h
Sensor: Nr:Datum:Temp:Abs-Feuchte:Windchill:Wind:
Aussen-T/F 2751 29-10-2019 15:00:00 9.575 C 7.35 g/m*3 9.57 C 1.74167 km/h
2752 29-10-2019 16:00:00 8.275 C 7.43 g/m*3 8.28 C 0.4 km/h
2753 29-10-2019 17:00:00 6.94167 C 6.9 g/m*3 6.94 C 1.86667 km/h
2754 29-10-2019 18:00:00 5.96667 C 6.58 g/m*3 5.97 C 0.66667 km/h
2755 29-10-2019 19:00:00 4.96667 C 6.27 g/m*3 4.97 C 0 km/h
2756 29-10-2019 20:00:00 4.425 C 6.15 g/m*3 4.43 C 0 km/h
2757 29-10-2019 21:00:00 3.63333 C 5.84 g/m*3 3.63 C 0 km/h
2758 29-10-2019 22:00:00 2.99167 C 5.65 g/m*3 2.99 C 0 km/h
2759 29-10-2019 23:00:00 2.775 C 5.61 g/m*3 2.78 C 0 km/h
2760 30-10-2019 00:00:00 2.20833 C 5.4 g/m*3 2.21 C 0 km/h
2761 30-10-2019 01:00:00 1.98333 C 5.33 g/m*3 1.98 C 0 km/h
2762 30-10-2019 02:00:00 1.98333 C 5.33 g/m*3 1.98 C 0 km/h
2763 30-10-2019 03:00:00 1.51667 C 5.16 g/m*3 1.52 C 0 km/h
2764 30-10-2019 04:00:00 1.14167 C 5.05 g/m*3 1.14 C 0 km/h
2765 30-10-2019 05:00:00 1.35 C 5.14 g/m*3 1.35 C 0.26667 km/h
2766 30-10-2019 06:00:00 1.4 C 5.17 g/m*3 1.4 C 0 km/h
2767 30-10-2019 07:00:00 1.45833 C 5.19 g/m*3 1.46 C 0.26667 km/h
2768 30-10-2019 08:00:00 1.85833 C 5.34 g/m*3 1.86 C 0.26667 km/h
2769 30-10-2019 09:00:00 2.4 C 5.54 g/m*3 2.4 C 0.13333 km/h
2770 30-10-2019 10:00:00 3.69167 C 6.09 g/m*3 3.69 C 0 km/h
2771 30-10-2019 11:00:00 4.94167 C 6.63 g/m*3 4.94 C 0.66667 km/h
2772 30-10-2019 12:00:00 5.71667 C 6.9 g/m*3 5.72 C 0.26667 km/h
2773 30-10-2019 13:00:00 6.63333 C 6.88 g/m*3 6.63 C 2.66667 km/h
2774 30-10-2019 14:00:00 7.58333 C 6.8 g/m*3 7.58 C 2.675 km/h
2775 30-10-2019 15:00:00 7.75 C 6.86 g/m*3 7.75 C 0.4 km/h
Sensor: Nr:Datum:Temp:Abs-Feuchte:Windchill:Wind:
Aussen-T/F 2776 30-10-2019 16:00:00 7.01667 C 6.83 g/m*3 7.02 C 0 km/h
2777 30-10-2019 17:00:00 5.76667 C 6.37 g/m*3 5.77 C 0 km/h
2778 30-10-2019 18:00:00 4.46667 C 5.94 g/m*3 4.47 C 0.26667 km/h
2779 30-10-2019 19:00:00 3.8 C 5.77 g/m*3 3.8 C 0 km/h
2780 30-10-2019 20:00:00 3.23333 C 5.64 g/m*3 3.23 C 0.66667 km/h
2781 30-10-2019 21:00:00 2.70833 C 5.5 g/m*3 2.71 C 0.53333 km/h
2782 30-10-2019 22:00:00 2.25 C 5.35 g/m*3 2.25 C 0.13333 km/h
2783 30-10-2019 23:00:00 1.80833 C 5.21 g/m*3 1.81 C 0 km/h
2784 31-10-2019 00:00:00 1.025 C 4.94 g/m*3 1.02 C 0 km/h
2785 31-10-2019 01:00:00 0.89167 C 4.94 g/m*3 0.89 C 0 km/h
2786 31-10-2019 02:00:00 0.53333 C 4.83 g/m*3 0.53 C 0 km/h
2787 31-10-2019 03:00:00 0.28333 C 4.74 g/m*3 0.28 C 0 km/h
2788 31-10-2019 04:00:00 0.06667 C 4.67 g/m*3 0.07 C 0 km/h
2789 31-10-2019 05:00:00 -0.325 C 4.55 g/m*3 -0.33 C 0 km/h
2790 31-10-2019 06:00:00 -0.50833 C 4.49 g/m*3 -0.51 C 0 km/h
2791 31-10-2019 07:00:00 -0.75 C 4.43 g/m*3 -0.75 C 0 km/h
2792 31-10-2019 08:00:00 -0.61667 C 4.48 g/m*3 -0.62 C 0 km/h
2793 31-10-2019 09:00:00 0.05 C 4.72 g/m*3 0.05 C 0 km/h
2794 31-10-2019 10:00:00 1.13333 C 5.09 g/m*3 1.13 C 0.93333 km/h
2795 31-10-2019 11:00:00 2.85833 C 5.76 g/m*3 2.86 C 0.53333 km/h
2796 31-10-2019 12:00:00 4.16667 C 6.28 g/m*3 4.17 C 1.2 km/h
2797 31-10-2019 13:00:00 5.60833 C 6.68 g/m*3 5.61 C 4.55833 km/h
2798 31-10-2019 14:00:00 7.29167 C 6.65 g/m*3 7.29 C 3.875 km/h
2799 31-10-2019 15:00:00 7.44167 C 6.65 g/m*3 7.44 C 2.54167 km/h
2800 31-10-2019 16:00:00 6.125 C 6.4 g/m*3 6.13 C 1.73333 km/h
Sensor: Nr:Datum:Temp:Abs-Feuchte:Windchill:Wind:
Aussen-T/F 2801 31-10-2019 17:00:00 4.63333 C 5.86 g/m*3 4.63 C 0.8 km/h
2802 31-10-2019 18:00:00 3.70833 C 5.55 g/m*3 3.71 C 0 km/h
2803 31-10-2019 19:00:00 3.175 C 5.44 g/m*3 3.18 C 0 km/h
2804 31-10-2019 20:00:00 2.325 C 5.23 g/m*3 2.33 C 0 km/h
2805 31-10-2019 21:00:00 1.71667 C 5.11 g/m*3 1.72 C 0 km/h
2806 31-10-2019 22:00:00 1.48333 C 5.06 g/m*3 1.48 C 0 km/h
2807 31-10-2019 23:00:00 1.30833 C 5.04 g/m*3 1.31 C 0 km/h
2808 01-11-2019 00:00:00 0.88333 C 4.89 g/m*3 0.88 C 0 km/h
2809 01-11-2019 01:00:00 0.6 C 4.81 g/m*3 0.6 C 0 km/h
2810 01-11-2019 02:00:00 0.55833 C 4.83 g/m*3 0.56 C 0 km/h
2811 01-11-2019 03:00:00 0.44167 C 4.8 g/m*3 0.44 C 0 km/h
2812 01-11-2019 04:00:00 1.03333 C 5.02 g/m*3 1.03 C 0 km/h
2813 01-11-2019 05:00:00 2.16667 C 5.45 g/m*3 2.17 C 0 km/h
2814 01-11-2019 06:00:00 2.85833 C 5.71 g/m*3 2.86 C 0 km/h
2815 01-11-2019 07:00:00 3.55 C 5.98 g/m*3 3.55 C 0 km/h
2816 01-11-2019 08:00:00 4.35833 C 6.32 g/m*3 4.36 C 0 km/h
2817 01-11-2019 09:00:00 5.40833 C 6.77 g/m*3 5.41 C 0 km/h
2818 01-11-2019 10:00:00 6.38333 C 7.22 g/m*3 6.38 C 0.8 km/h
2819 01-11-2019 11:00:00 7.29167 C 7.55 g/m*3 7.29 C 1.86667 km/h
2820 01-11-2019 12:00:00 8.09167 C 7.76 g/m*3 8.09 C 3.35 km/h
2821 01-11-2019 13:00:00 8.53333 C 7.96 g/m*3 8.53 C 1.06667 km/h
2822 01-11-2019 14:00:00 8.73333 C 8.2 g/m*3 8.73 C 1.33333 km/h
2823 01-11-2019 15:00:00 8.7 C 8.27 g/m*3 8.7 C 1.46667 km/h
2824 01-11-2019 16:00:00 8.8 C 8.36 g/m*3 8.8 C 0 km/h
2825 01-11-2019 17:00:00 8.85833 C 8.39 g/m*3 8.86 C 1.2 km/h
Sensor: Nr:Datum:Temp:Abs-Feuchte:Windchill:Wind:
Aussen-T/F 2826 01-11-2019 18:00:00 8.86667 C 8.41 g/m*3 8.87 C 0.4 km/h
2827 01-11-2019 19:00:00 8.93333 C 8.52 g/m*3 8.93 C 0 km/h
2828 01-11-2019 20:00:00 9.225 C 8.68 g/m*3 9.23 C 0 km/h
2829 01-11-2019 21:00:00 9.64167 C 8.92 g/m*3 9.64 C 0 km/h
2830 01-11-2019 22:00:00 10.15 C 9.3 g/m*3 10.15 C 0.26667 km/h
2831 01-11-2019 23:00:00 10.525 C 9.52 g/m*3 10.53 C 0 km/h
2832 02-11-2019 00:00:00 11.18333 C 9.92 g/m*3 11.18 C 0 km/h
2833 02-11-2019 01:00:00 11.96667 C 10.42 g/m*3 11.97 C 0.93333 km/h
2834 02-11-2019 02:00:00 12.21667 C 10.59 g/m*3 12.22 C 1.33333 km/h
2835 02-11-2019 03:00:00 12.28333 C 10.63 g/m*3 12.28 C 2.13333 km/h
2836 02-11-2019 04:00:00 12.25 C 10.61 g/m*3 12.25 C 2 km/h
2837 02-11-2019 05:00:00 12.65833 C 10.88 g/m*3 12.66 C 1.46667 km/h
2838 02-11-2019 06:00:00 13.1 C 11.18 g/m*3 13.1 C 2.94167 km/h
2839 02-11-2019 07:00:00 13.48333 C 11.45 g/m*3 13.48 C 0.93333 km/h
2840 02-11-2019 08:00:00 13.84167 C 11.71 g/m*3 13.84 C 2.275 km/h
2841 02-11-2019 09:00:00 14.30833 C 12.03 g/m*3 14.31 C 12.21667 km/h
2842 02-11-2019 10:00:00 14.925 C 11.87 g/m*3 14.93 C 14.625 km/h
2843 02-11-2019 11:00:00 15.74167 C 11.57 g/m*3 15.74 C 16.5 km/h
2844 02-11-2019 12:00:00 16.15833 C 11.05 g/m*3 16.16 C 20.23333 km/h
2845 02-11-2019 13:00:00 16.04167 C 10.29 g/m*3 16.04 C 15.03333 km/h
2846 02-11-2019 14:00:00 15.8 C 10.01 g/m*3 15.8 C 10.35833 km/h
2847 02-11-2019 15:00:00 15.10833 C 9.97 g/m*3 15.11 C 5.35833 km/h
2848 02-11-2019 16:00:00 14.55833 C 9.75 g/m*3 14.56 C 8.06667 km/h
2849 02-11-2019 17:00:00 13.78333 C 9.71 g/m*3 13.78 C 11.28333 km/h
2850 02-11-2019 18:00:00 11.90833 C 9.55 g/m*3 11.91 C 2.66667 km/h
Sensor: Nr:Datum:Temp:Abs-Feuchte:Windchill:Wind:
Aussen-T/F 2851 02-11-2019 19:00:00 11.425 C 9.44 g/m*3 11.43 C 2.13333 km/h
2852 02-11-2019 20:00:00 11.30833 C 9.3 g/m*3 11.31 C 4.01667 km/h
2853 02-11-2019 21:00:00 11.15 C 8.96 g/m*3 11.15 C 4.55 km/h
2854 02-11-2019 22:00:00 10.98333 C 8.84 g/m*3 10.98 C 1.06667 km/h
2855 02-11-2019 23:00:00 10.56667 C 8.68 g/m*3 10.57 C 3.625 km/h
2856 03-11-2019 00:00:00 10.475 C 8.55 g/m*3 10.48 C 0.53333 km/h
2857 03-11-2019 01:00:00 10.41667 C 8.7 g/m*3 10.42 C 0.4 km/h
2858 03-11-2019 02:00:00 10.03333 C 8.62 g/m*3 10.03 C 0.26667 km/h
2859 03-11-2019 03:00:00 10 C 8.75 g/m*3 10 C 0.8 km/h
2860 03-11-2019 04:00:00 10.26667 C 9.02 g/m*3 10.27 C 0.66667 km/h
2861 03-11-2019 05:00:00 10.25 C 9.07 g/m*3 10.25 C 0.8 km/h
2862 03-11-2019 06:00:00 10.3 C 9.19 g/m*3 10.3 C 0 km/h
2863 03-11-2019 07:00:00 10.325 C 9.21 g/m*3 10.33 C 0 km/h
2864 03-11-2019 08:00:00 10.48333 C 9.37 g/m*3 10.48 C 0 km/h
2865 03-11-2019 09:00:00 11.3 C 9.89 g/m*3 11.3 C 0 km/h
2866 03-11-2019 10:00:00 12.26667 C 10.36 g/m*3 12.27 C 0.93333 km/h
2867 03-11-2019 11:00:00 13.53333 C 10.65 g/m*3 13.53 C 2.675 km/h
2868 03-11-2019 12:00:00 14.85 C 10.6 g/m*3 14.85 C 4.55 km/h
2869 03-11-2019 13:00:00 15.39167 C 10.7 g/m*3 15.39 C 6.30833 km/h
2870 03-11-2019 14:00:00 15.46667 C 10.78 g/m*3 15.47 C 5.08333 km/h
2871 03-11-2019 15:00:00 14.81667 C 10.57 g/m*3 14.82 C 6.83333 km/h
2872 03-11-2019 16:00:00 14.00833 C 10.41 g/m*3 14.01 C 2 km/h
2873 03-11-2019 17:00:00 13.00833 C 10.25 g/m*3 13.01 C 0.4 km/h
2874 03-11-2019 18:00:00 12.35833 C 10.22 g/m*3 12.36 C 0.13333 km/h
2875 03-11-2019 19:00:00 11.71667 C 9.95 g/m*3 11.72 C 0.53333 km/h
Sensor: Nr:Datum:Temp:Abs-Feuchte:Windchill:Wind:
Aussen-T/F 2876 03-11-2019 20:00:00 11.075 C 9.63 g/m*3 11.08 C 0.53333 km/h
2877 03-11-2019 21:00:00 10.75833 C 9.46 g/m*3 10.76 C 1.46667 km/h
2878 03-11-2019 22:00:00 10.7 C 9.43 g/m*3 10.7 C 0.8 km/h
2879 03-11-2019 23:00:00 10.60833 C 9.37 g/m*3 10.61 C 4.96667 km/h
2880 04-11-2019 00:00:00 11.075 C 9.31 g/m*3 11.08 C 10.475 km/h
2881 04-11-2019 01:00:00 11.025 C 9.11 g/m*3 11.03 C 6.44167 km/h
2882 04-11-2019 02:00:00 10.15833 C 8.79 g/m*3 10.16 C 2.00833 km/h
2883 04-11-2019 03:00:00 9.9 C 8.78 g/m*3 9.9 C 1.61667 km/h
2884 04-11-2019 04:00:00 10.18333 C 9.03 g/m*3 10.18 C 2.13333 km/h
2885 04-11-2019 05:00:00 10.38333 C 9.12 g/m*3 9.94 C 5.9 km/h
2886 04-11-2019 06:00:00 9.79167 C 8.76 g/m*3 9.79 C 2.8 km/h
2887 04-11-2019 07:00:00 9.26667 C 8.51 g/m*3 9.27 C 2.66667 km/h
2888 04-11-2019 08:00:00 9.5 C 8.69 g/m*3 9.5 C 0.13333 km/h
2889 04-11-2019 09:00:00 10.00833 C 8.83 g/m*3 10.01 C 1.475 km/h
2890 04-11-2019 10:00:00 10.875 C 9.14 g/m*3 10.88 C 1.73333 km/h
2891 04-11-2019 11:00:00 10.91667 C 9.26 g/m*3 10.92 C 1.33333 km/h
2892 04-11-2019 12:00:00 11.25 C 9.46 g/m*3 11.25 C 1.86667 km/h
2893 04-11-2019 13:00:00 12.025 C 9.75 g/m*3 12.03 C 5.23333 km/h
2894 04-11-2019 14:00:00 12.58333 C 9.58 g/m*3 12.58 C 13.56667 km/h
2895 04-11-2019 15:00:00 12.625 C 9.37 g/m*3 12.63 C 6.31667 km/h
2896 04-11-2019 16:00:00 11.44167 C 9.06 g/m*3 11.44 C 0.93333 km/h
2897 04-11-2019 17:00:00 10.275 C 8.76 g/m*3 10.28 C 0.66667 km/h
2898 04-11-2019 18:00:00 9.60833 C 8.5 g/m*3 9.61 C 0 km/h
2899 04-11-2019 19:00:00 9.18333 C 8.43 g/m*3 9.18 C 0.94167 km/h
2900 04-11-2019 20:00:00 9.5 C 8.71 g/m*3 9.5 C 0 km/h
Sensor: Nr:Datum:Temp:Abs-Feuchte:Windchill:Wind:
Aussen-T/F 2901 04-11-2019 21:00:00 9.24167 C 8.58 g/m*3 9.24 C 0.13333 km/h
2902 04-11-2019 22:00:00 8.29167 C 8.07 g/m*3 8.29 C 0.4 km/h
2903 04-11-2019 23:00:00 8.89167 C 8.48 g/m*3 8.42 C 5.24167 km/h
2904 05-11-2019 00:00:00 9.275 C 8.49 g/m*3 9.28 C 4.275 km/h
2905 05-11-2019 01:00:00 9.14167 C 8.29 g/m*3 9.14 C 3.74167 km/h
2906 05-11-2019 02:00:00 9.225 C 8.34 g/m*3 9.23 C 1.875 km/h
2907 05-11-2019 03:00:00 9.40833 C 8.27 g/m*3 8.9 C 5.625 km/h
2908 05-11-2019 04:00:00 9.46667 C 8.14 g/m*3 9.47 C 4.40833 km/h
2909 05-11-2019 05:00:00 9.525 C 8.15 g/m*3 9.53 C 4.95833 km/h
2910 05-11-2019 06:00:00 9.25 C 8.13 g/m*3 9.25 C 4.14167 km/h
2911 05-11-2019 07:00:00 9.15833 C 8.1 g/m*3 9.16 C 1.86667 km/h
2912 05-11-2019 08:00:00 8.95833 C 8.07 g/m*3 8.96 C 2.675 km/h
2913 05-11-2019 09:00:00 9.45833 C 8.15 g/m*3 9.46 C 2.26667 km/h
2914 05-11-2019 10:00:00 10.48333 C 8.33 g/m*3 10.48 C 3.625 km/h
2915 05-11-2019 11:00:00 11.225 C 8.32 g/m*3 11.23 C 5.5 km/h
2916 05-11-2019 12:00:00 11.83333 C 8.23 g/m*3 11.83 C 9.275 km/h
2917 05-11-2019 13:00:00 11.89167 C 8.41 g/m*3 11.89 C 4.68333 km/h
2918 05-11-2019 14:00:00 12.06667 C 8.62 g/m*3 12.07 C 1.86667 km/h
2919 05-11-2019 15:00:00 11.875 C 8.69 g/m*3 11.88 C 2.14167 km/h
2920 05-11-2019 16:00:00 10.85833 C 8.62 g/m*3 10.86 C 0 km/h
2921 05-11-2019 17:00:00 9.85833 C 8.46 g/m*3 9.86 C 0.13333 km/h
2922 05-11-2019 18:00:00 9.025 C 8.18 g/m*3 9.03 C 0 km/h
2923 05-11-2019 19:00:00 8.54167 C 8.03 g/m*3 8.54 C 0.13333 km/h
2924 05-11-2019 20:00:00 8.425 C 8.02 g/m*3 8.43 C 0.13333 km/h
2925 05-11-2019 21:00:00 7.95833 C 7.83 g/m*3 7.96 C 0 km/h
Sensor: Nr:Datum:Temp:Abs-Feuchte:Windchill:Wind:
Aussen-T/F 2926 05-11-2019 22:00:00 8.00833 C 7.88 g/m*3 8.01 C 0 km/h
2927 05-11-2019 23:00:00 8.11667 C 8 g/m*3 8.12 C 0 km/h
2928 06-11-2019 00:00:00 8.2 C 8.04 g/m*3 8.2 C 0 km/h
2929 06-11-2019 01:00:00 8.2 C 8.04 g/m*3 8.2 C 1.06667 km/h
2930 06-11-2019 02:00:00 8.175 C 8.05 g/m*3 8.18 C 0.26667 km/h
2931 06-11-2019 03:00:00 7.79167 C 7.83 g/m*3 7.79 C 0.13333 km/h
2932 06-11-2019 04:00:00 7.45 C 7.7 g/m*3 7.45 C 0 km/h
2933 06-11-2019 05:00:00 7.49167 C 7.76 g/m*3 7.49 C 0.26667 km/h
2934 06-11-2019 06:00:00 7.65 C 7.84 g/m*3 7.65 C 0.4 km/h
2935 06-11-2019 07:00:00 7.65 C 7.84 g/m*3 7.65 C 0.13333 km/h
2936 06-11-2019 08:00:00 7.975 C 8.01 g/m*3 7.98 C 0.53333 km/h
2937 06-11-2019 09:00:00 8.81667 C 8.42 g/m*3 8.82 C 4.15 km/h
2938 06-11-2019 10:00:00 9.68333 C 8.51 g/m*3 8.83 C 7.13333 km/h
2939 06-11-2019 11:00:00 10.15 C 8.71 g/m*3 9.64 C 6.025 km/h
2940 06-11-2019 12:00:00 10.35 C 8.85 g/m*3 9.87 C 6.03333 km/h
2941 06-11-2019 13:00:00 10.6 C 8.84 g/m*3 9.76 C 7.78333 km/h
2942 06-11-2019 14:00:00 10.43333 C 8.83 g/m*3 10.43 C 4.40833 km/h
2943 06-11-2019 15:00:00 10.24167 C 8.91 g/m*3 10.24 C 0.66667 km/h
2944 06-11-2019 16:00:00 10 C 8.84 g/m*3 10 C 0.13333 km/h
2945 06-11-2019 17:00:00 9.68333 C 8.75 g/m*3 9.68 C 0 km/h
2946 06-11-2019 18:00:00 9.6 C 8.77 g/m*3 9.6 C 0 km/h
2947 06-11-2019 19:00:00 9.40833 C 8.69 g/m*3 9.41 C 0 km/h
2948 06-11-2019 20:00:00 9.13333 C 8.54 g/m*3 9.13 C 0 km/h
2949 06-11-2019 21:00:00 8.975 C 8.51 g/m*3 8.98 C 0 km/h
2950 06-11-2019 22:00:00 8.9 C 8.42 g/m*3 8.9 C 0 km/h
Sensor: Nr:Datum:Temp:Abs-Feuchte:Windchill:Wind:
Aussen-T/F 2951 06-11-2019 23:00:00 8.85833 C 8.47 g/m*3 8.86 C 0.53333 km/h
2952 07-11-2019 00:00:00 8.51667 C 8.29 g/m*3 8.52 C 0 km/h
2953 07-11-2019 01:00:00 8.06667 C 8.05 g/m*3 8.07 C 0 km/h
2954 07-11-2019 02:00:00 7.98333 C 8.01 g/m*3 7.98 C 0 km/h
2955 07-11-2019 03:00:00 7.91667 C 7.98 g/m*3 7.92 C 0 km/h
2956 07-11-2019 04:00:00 7.49167 C 7.76 g/m*3 7.49 C 0 km/h
2957 07-11-2019 05:00:00 7.55 C 7.79 g/m*3 7.55 C 0.4 km/h
2958 07-11-2019 06:00:00 7.375 C 7.7 g/m*3 7.38 C 0 km/h
2959 07-11-2019 07:00:00 7.59167 C 7.84 g/m*3 7.59 C 0.4 km/h
2960 07-11-2019 08:00:00 8.24167 C 8.23 g/m*3 8.24 C 0.26667 km/h
2961 07-11-2019 09:00:00 8.875 C 8.57 g/m*3 8.88 C 1.06667 km/h
2962 07-11-2019 10:00:00 9.29167 C 8.77 g/m*3 9.29 C 3.35 km/h
2963 07-11-2019 11:00:00 9.39167 C 8.69 g/m*3 9.39 C 2.8 km/h
2964 07-11-2019 12:00:00 9.31667 C 8.52 g/m*3 9.32 C 2.95 km/h
2965 07-11-2019 13:00:00 9.625 C 8.55 g/m*3 9.63 C 4.00833 km/h
2966 07-11-2019 14:00:00 9.375 C 8.35 g/m*3 9.38 C 4.41667 km/h
2967 07-11-2019 15:00:00 9.76667 C 8.64 g/m*3 9.77 C 4.41667 km/h
2968 07-11-2019 16:00:00 9.65 C 8.24 g/m*3 7.67 C 13.55833 km/h
2969 07-11-2019 17:00:00 8.55833 C 7.73 g/m*3 7.46 C 7.38333 km/h
2970 07-11-2019 18:00:00 7.24167 C 7.22 g/m*3 7.24 C 1.075 km/h
2971 07-11-2019 19:00:00 6.76667 C 7.21 g/m*3 6.77 C 0.8 km/h
2972 07-11-2019 20:00:00 6.18333 C 6.96 g/m*3 6.18 C 0.4 km/h
2973 07-11-2019 21:00:00 5.65833 C 6.77 g/m*3 5.66 C 0.13333 km/h
2974 07-11-2019 22:00:00 5.00833 C 6.51 g/m*3 5.01 C 0 km/h
2975 07-11-2019 23:00:00 5.025 C 6.56 g/m*3 5.03 C 0.26667 km/h
Sensor: Nr:Datum:Temp:Abs-Feuchte:Windchill:Wind:
Aussen-T/F 2976 08-11-2019 00:00:00 4.675 C 6.38 g/m*3 4.68 C 0.26667 km/h
2977 08-11-2019 01:00:00 4.24167 C 6.2 g/m*3 4.24 C 0.26667 km/h
2978 08-11-2019 02:00:00 3.28333 C 5.82 g/m*3 3.28 C 0 km/h
2979 08-11-2019 03:00:00 3.1 C 5.79 g/m*3 3.1 C 0 km/h
2980 08-11-2019 04:00:00 2.75833 C 5.66 g/m*3 2.76 C 0 km/h
2981 08-11-2019 05:00:00 2.34167 C 5.52 g/m*3 2.34 C 0 km/h
2982 08-11-2019 06:00:00 2.31667 C 5.51 g/m*3 2.32 C 0 km/h
2983 08-11-2019 07:00:00 2.35 C 5.52 g/m*3 2.35 C 0 km/h
2984 08-11-2019 08:00:00 3.05 C 5.81 g/m*3 3.05 C 0 km/h
2985 08-11-2019 09:00:00 3.78333 C 6.1 g/m*3 3.78 C 0.53333 km/h
2986 08-11-2019 10:00:00 4.43333 C 6.4 g/m*3 4.43 C 0.4 km/h
2987 08-11-2019 11:00:00 5.15833 C 6.73 g/m*3 5.16 C 0.8 km/h
2988 08-11-2019 12:00:00 6 C 7.11 g/m*3 6 C 0.8 km/h
2989 08-11-2019 13:00:00 6.8 C 7.44 g/m*3 6.8 C 0.13333 km/h
2990 08-11-2019 14:00:00 7.44167 C 7.63 g/m*3 7.44 C 1.86667 km/h
2991 08-11-2019 15:00:00 7.73333 C 7.71 g/m*3 7.73 C 0 km/h
2992 08-11-2019 16:00:00 7.61667 C 7.63 g/m*3 7.62 C 0 km/h
2993 08-11-2019 17:00:00 6.85833 C 7.29 g/m*3 6.86 C 0 km/h
2994 08-11-2019 18:00:00 6.65 C 7.26 g/m*3 6.65 C 0 km/h
2995 08-11-2019 19:00:00 6.475 C 7.19 g/m*3 6.48 C 0 km/h
2996 08-11-2019 20:00:00 6.21667 C 7.07 g/m*3 6.22 C 0 km/h
2997 08-11-2019 21:00:00 5.7 C 6.83 g/m*3 5.7 C 0 km/h
2998 08-11-2019 22:00:00 5.39167 C 6.76 g/m*3 5.39 C 0.26667 km/h
2999 08-11-2019 23:00:00 5.49167 C 6.81 g/m*3 5.49 C 2.53333 km/h
3000 09-11-2019 00:00:00 5.34167 C 6.74 g/m*3 4.34 C 5.35 km/h
Sensor: Nr:Datum:Temp:Abs-Feuchte:Windchill:Wind:
Aussen-T/F 3001 09-11-2019 01:00:00 5.15833 C 6.66 g/m*3 4.18 C 5.225 km/h
3002 09-11-2019 02:00:00 5.1 C 6.63 g/m*3 3.79 C 6.15833 km/h
3003 09-11-2019 03:00:00 5.125 C 6.65 g/m*3 5.13 C 3.33333 km/h
3004 09-11-2019 04:00:00 4.96667 C 6.58 g/m*3 4.97 C 1.46667 km/h
3005 09-11-2019 05:00:00 4.78333 C 6.51 g/m*3 4.78 C 3.075 km/h
3006 09-11-2019 06:00:00 4.45 C 6.32 g/m*3 3.13 C 5.9 km/h
3007 09-11-2019 07:00:00 3.44167 C 5.88 g/m*3 3.44 C 0.8 km/h
3008 09-11-2019 08:00:00 3.29167 C 5.86 g/m*3 3.29 C 0.13333 km/h
3009 09-11-2019 09:00:00 4.53333 C 6.37 g/m*3 3.46 C 5.25 km/h
3010 09-11-2019 10:00:00 5.65833 C 6.55 g/m*3 3.11 C 11.7 km/h
3011 09-11-2019 11:00:00 5.91667 C 6.56 g/m*3 3.82 C 9.68333 km/h
3012 09-11-2019 12:00:00 6.375 C 6.66 g/m*3 4.51 C 9.00833 km/h
3013 09-11-2019 13:00:00 7.04167 C 6.76 g/m*3 5.39 C 8.59167 km/h
3014 09-11-2019 14:00:00 6.93333 C 6.77 g/m*3 5.67 C 6.96667 km/h
3015 09-11-2019 15:00:00 6.68333 C 6.88 g/m*3 6.68 C 3.20833 km/h
3016 09-11-2019 16:00:00 6.56667 C 6.94 g/m*3 6.57 C 1.33333 km/h
3017 09-11-2019 17:00:00 6.175 C 6.83 g/m*3 6.18 C 0.26667 km/h
3018 09-11-2019 18:00:00 5.375 C 6.48 g/m*3 5.38 C 0.13333 km/h
3019 09-11-2019 19:00:00 4.875 C 6.35 g/m*3 4.88 C 2.00833 km/h
3020 09-11-2019 20:00:00 4.03333 C 5.94 g/m*3 4.03 C 0 km/h
3021 09-11-2019 21:00:00 3.25833 C 5.73 g/m*3 3.26 C 0 km/h
3022 09-11-2019 22:00:00 2.725 C 5.56 g/m*3 2.73 C 0 km/h
3023 09-11-2019 23:00:00 1.99167 C 5.28 g/m*3 1.99 C 0 km/h
3024 10-11-2019 00:00:00 1.25833 C 5.05 g/m*3 1.26 C 0 km/h
3025 10-11-2019 01:00:00 1.31667 C 5.11 g/m*3 1.32 C 0 km/h
Sensor: Nr:Datum:Temp:Abs-Feuchte:Windchill:Wind:
Aussen-T/F 3026 10-11-2019 02:00:00 1.65833 C 5.24 g/m*3 1.66 C 0 km/h
3027 10-11-2019 03:00:00 1.59167 C 5.24 g/m*3 1.59 C 0.53333 km/h
3028 10-11-2019 04:00:00 1.28333 C 5.13 g/m*3 1.28 C 0.8 km/h
3029 10-11-2019 05:00:00 1.38333 C 5.17 g/m*3 1.38 C 0 km/h
3030 10-11-2019 06:00:00 1.70833 C 5.28 g/m*3 1.71 C 2.93333 km/h
3031 10-11-2019 07:00:00 1.61667 C 5.25 g/m*3 1.62 C 1.86667 km/h
3032 10-11-2019 08:00:00 1.81667 C 5.35 g/m*3 1.82 C 0.53333 km/h
3033 10-11-2019 09:00:00 2.25 C 5.52 g/m*3 2.25 C 0.66667 km/h
3034 10-11-2019 10:00:00 2.66667 C 5.7 g/m*3 2.67 C 0.93333 km/h
3035 10-11-2019 11:00:00 3.2 C 5.91 g/m*3 3.2 C 2.26667 km/h
3036 10-11-2019 12:00:00 3.4 C 5.91 g/m*3 2.24 C 5.075 km/h
3037 10-11-2019 13:00:00 3.86667 C 5.99 g/m*3 3.87 C 4.26667 km/h
3038 10-11-2019 14:00:00 4.29167 C 6.06 g/m*3 4.29 C 3.2 km/h
3039 10-11-2019 15:00:00 4.65833 C 6.17 g/m*3 4.66 C 1.86667 km/h
3040 10-11-2019 16:00:00 4.58333 C 6.08 g/m*3 4.58 C 1.46667 km/h
3041 10-11-2019 17:00:00 4.35833 C 6.06 g/m*3 4.36 C 1.2 km/h
3042 10-11-2019 18:00:00 4.275 C 6.07 g/m*3 4.28 C 1.2 km/h
3043 10-11-2019 19:00:00 4.15 C 6.04 g/m*3 4.15 C 1.6 km/h
3044 10-11-2019 20:00:00 4.25 C 6.14 g/m*3 4.25 C 0.26667 km/h
3045 10-11-2019 21:00:00 4.3 C 6.16 g/m*3 4.3 C 0.26667 km/h
3046 10-11-2019 22:00:00 4.275 C 6.15 g/m*3 4.28 C 0 km/h
3047 10-11-2019 23:00:00 4.36667 C 6.14 g/m*3 4.37 C 0.53333 km/h
3048 11-11-2019 00:00:00 4.25833 C 6.03 g/m*3 4.26 C 0.93333 km/h
3049 11-11-2019 01:00:00 3.85 C 5.84 g/m*3 3.85 C 2.53333 km/h
3050 11-11-2019 02:00:00 3.58333 C 5.75 g/m*3 3.58 C 0.4 km/h
Sensor: Nr:Datum:Temp:Abs-Feuchte:Windchill:Wind:
Aussen-T/F 3051 11-11-2019 03:00:00 3.30833 C 5.65 g/m*3 3.31 C 2.4 km/h
3052 11-11-2019 04:00:00 3.14167 C 5.58 g/m*3 3.14 C 1.06667 km/h
3053 11-11-2019 05:00:00 3.23333 C 5.64 g/m*3 3.23 C 0.4 km/h
3054 11-11-2019 06:00:00 3.3 C 5.66 g/m*3 3.3 C 0 km/h
3055 11-11-2019 07:00:00 3.39167 C 5.74 g/m*3 3.39 C 0.53333 km/h
3056 11-11-2019 08:00:00 4.16667 C 5.97 g/m*3 2.66 C 6.3 km/h
3057 11-11-2019 09:00:00 4.98333 C 6.13 g/m*3 3.17 C 7.79167 km/h
3058 11-11-2019 10:00:00 5.24167 C 6.15 g/m*3 3.62 C 7.24167 km/h
3059 11-11-2019 11:00:00 5.54167 C 6.22 g/m*3 3.97 C 7.25 km/h
3060 11-11-2019 12:00:00 6.025 C 6.32 g/m*3 4.57 C 7.11667 km/h
3061 11-11-2019 13:00:00 6.425 C 6.42 g/m*3 5.48 C 5.625 km/h
3062 11-11-2019 14:00:00 6.11667 C 6.33 g/m*3 4.76 C 6.83333 km/h
3063 11-11-2019 15:00:00 5.61667 C 6.28 g/m*3 4.75 C 5.08333 km/h
3064 11-11-2019 16:00:00 5.25833 C 6.22 g/m*3 4.1 C 5.75833 km/h
3065 11-11-2019 17:00:00 5.09167 C 6.15 g/m*3 3.6 C 6.71667 km/h
3066 11-11-2019 18:00:00 4.85833 C 6.1 g/m*3 4.86 C 4.14167 km/h
3067 11-11-2019 19:00:00 4.83333 C 6.22 g/m*3 4.83 C 0.8 km/h
3068 11-11-2019 20:00:00 4.8 C 6.3 g/m*3 4.8 C 0.13333 km/h
3069 11-11-2019 21:00:00 4.975 C 6.44 g/m*3 4.97 C 1.06667 km/h
3070 11-11-2019 22:00:00 5.13333 C 6.51 g/m*3 5.13 C 1.06667 km/h
3071 11-11-2019 23:00:00 5.18333 C 6.6 g/m*3 5.18 C 0.13333 km/h
3072 12-11-2019 00:00:00 5.05 C 6.53 g/m*3 5.05 C 0.13333 km/h
3073 12-11-2019 01:00:00 5.05 C 6.54 g/m*3 4.05 C 5.23333 km/h
3074 12-11-2019 02:00:00 5.375 C 6.55 g/m*3 5.38 C 3.21667 km/h
3075 12-11-2019 03:00:00 5.475 C 6.47 g/m*3 5.48 C 3.48333 km/h
Sensor: Nr:Datum:Temp:Abs-Feuchte:Windchill:Wind:
Aussen-T/F 3076 12-11-2019 04:00:00 5.6 C 6.45 g/m*3 5.6 C 2.275 km/h
3077 12-11-2019 05:00:00 5.45833 C 6.41 g/m*3 5.46 C 1.06667 km/h
3078 12-11-2019 06:00:00 5.375 C 6.4 g/m*3 5.38 C 2.26667 km/h
3079 12-11-2019 07:00:00 5.7 C 6.39 g/m*3 5.7 C 2.4 km/h
3080 12-11-2019 08:00:00 5.88333 C 6.42 g/m*3 5.88 C 2 km/h
3081 12-11-2019 09:00:00 6.58333 C 6.53 g/m*3 6.58 C 2.94167 km/h
3082 12-11-2019 10:00:00 7.66667 C 6.68 g/m*3 6.7 C 6.3 km/h
3083 12-11-2019 11:00:00 8.03333 C 6.79 g/m*3 6.34 C 9.7 km/h
3084 12-11-2019 12:00:00 7.91667 C 6.89 g/m*3 5.25 C 15.7 km/h
3085 12-11-2019 13:00:00 7.73333 C 6.67 g/m*3 4.97 C 16.1 km/h
3086 12-11-2019 14:00:00 7.76667 C 6.55 g/m*3 5.68 C 11.55833 km/h
3087 12-11-2019 15:00:00 7.75833 C 6.52 g/m*3 5.99 C 9.81667 km/h
3088 12-11-2019 16:00:00 7.31667 C 6.41 g/m*3 5.6 C 9.14167 km/h
3089 12-11-2019 17:00:00 6.60833 C 6.23 g/m*3 5.78 C 5.35833 km/h
3090 12-11-2019 18:00:00 5.85 C 6.26 g/m*3 5.85 C 0.53333 km/h
3091 12-11-2019 19:00:00 4.65833 C 5.93 g/m*3 4.66 C 0 km/h
3092 12-11-2019 20:00:00 3.29167 C 5.55 g/m*3 3.29 C 0.13333 km/h
3093 12-11-2019 21:00:00 3.23333 C 5.65 g/m*3 3.23 C 0.4 km/h
3094 12-11-2019 22:00:00 3.85 C 5.94 g/m*3 3.85 C 2.4 km/h
3095 12-11-2019 23:00:00 4.66667 C 6.06 g/m*3 4.67 C 3.21667 km/h
3096 13-11-2019 00:00:00 4.89167 C 5.98 g/m*3 4.89 C 1.6 km/h
3097 13-11-2019 01:00:00 4.65833 C 5.91 g/m*3 4.66 C 0.26667 km/h
3098 13-11-2019 02:00:00 3.33333 C 5.52 g/m*3 3.33 C 0.8 km/h
3099 13-11-2019 03:00:00 4.14167 C 5.76 g/m*3 4.14 C 2.81667 km/h
3100 13-11-2019 04:00:00 4.48333 C 5.82 g/m*3 4.48 C 0.93333 km/h
Sensor: Nr:Datum:Temp:Abs-Feuchte:Windchill:Wind:
Aussen-T/F 3101 13-11-2019 05:00:00 4.53333 C 5.87 g/m*3 4.53 C 0.66667 km/h
3102 13-11-2019 06:00:00 4.50833 C 5.89 g/m*3 4.51 C 0.53333 km/h
3103 13-11-2019 07:00:00 4.16667 C 5.82 g/m*3 4.17 C 0 km/h
3104 13-11-2019 08:00:00 4.58333 C 5.99 g/m*3 4.58 C 0.4 km/h
3105 13-11-2019 09:00:00 5.43333 C 6.19 g/m*3 4 C 6.725 km/h
3106 13-11-2019 10:00:00 6.01667 C 6.27 g/m*3 4.97 C 5.75833 km/h
3107 13-11-2019 11:00:00 6.30833 C 6.36 g/m*3 4.37 C 9.28333 km/h
3108 13-11-2019 12:00:00 6.81667 C 6.46 g/m*3 4.73 C 10.48333 km/h
3109 13-11-2019 13:00:00 6.775 C 6.44 g/m*3 5.17 C 8.20833 km/h
3110 13-11-2019 14:00:00 6.65 C 6.48 g/m*3 4.69 C 9.68333 km/h
3111 13-11-2019 15:00:00 6.69167 C 6.52 g/m*3 5.11 C 8.04167 km/h
3112 13-11-2019 16:00:00 6.6 C 6.52 g/m*3 5.68 C 5.625 km/h
3113 13-11-2019 17:00:00 6.41667 C 6.49 g/m*3 6.42 C 1.33333 km/h
3114 13-11-2019 18:00:00 6.35 C 6.51 g/m*3 6.35 C 0.26667 km/h
3115 13-11-2019 19:00:00 6.225 C 6.53 g/m*3 6.23 C 2.53333 km/h
3116 13-11-2019 20:00:00 6.26667 C 6.51 g/m*3 6.27 C 4.15 km/h
3117 13-11-2019 21:00:00 5.9 C 6.44 g/m*3 5.9 C 0 km/h
3118 13-11-2019 22:00:00 5.025 C 6.18 g/m*3 5.03 C 0.53333 km/h
3119 13-11-2019 23:00:00 4.60833 C 6.09 g/m*3 4.61 C 0.26667 km/h
3120 14-11-2019 00:00:00 4.95 C 6.32 g/m*3 4.95 C 0.26667 km/h
3121 14-11-2019 01:00:00 4.81667 C 6.23 g/m*3 4.82 C 1.06667 km/h
3122 14-11-2019 02:00:00 4.8 C 6.32 g/m*3 4.8 C 0.26667 km/h
3123 14-11-2019 03:00:00 5.425 C 6.56 g/m*3 5.43 C 1.73333 km/h
3124 14-11-2019 04:00:00 5.69167 C 6.56 g/m*3 5.69 C 1.46667 km/h
3125 14-11-2019 05:00:00 4.84167 C 6.26 g/m*3 4.84 C 0 km/h
Sensor: Nr:Datum:Temp:Abs-Feuchte:Windchill:Wind:
Aussen-T/F 3126 14-11-2019 06:00:00 4.70833 C 6.28 g/m*3 4.71 C 0.8 km/h
3127 14-11-2019 07:00:00 5.25833 C 6.3 g/m*3 4.34 C 5.09167 km/h
3128 14-11-2019 08:00:00 5.28333 C 6.17 g/m*3 5.28 C 3.46667 km/h
3129 14-11-2019 09:00:00 5.64167 C 6.2 g/m*3 5.64 C 4 km/h
3130 14-11-2019 10:00:00 6.68333 C 6.33 g/m*3 6.68 C 4.55 km/h
3131 14-11-2019 11:00:00 7.86667 C 6.26 g/m*3 7.17 C 5.49167 km/h
3132 14-11-2019 12:00:00 8.725 C 6.09 g/m*3 7.78 C 6.84167 km/h
3133 14-11-2019 13:00:00 8.68333 C 6.07 g/m*3 8.68 C 4.53333 km/h
3134 14-11-2019 14:00:00 9.01667 C 5.98 g/m*3 9.02 C 4.825 km/h
3135 14-11-2019 15:00:00 8.2 C 6.17 g/m*3 8.2 C 1.2 km/h
3136 14-11-2019 16:00:00 6.66667 C 6.05 g/m*3 6.67 C 0 km/h
3137 14-11-2019 17:00:00 4.96667 C 5.66 g/m*3 4.97 C 0.53333 km/h
3138 14-11-2019 18:00:00 4.48333 C 5.6 g/m*3 4.48 C 0.66667 km/h
3139 14-11-2019 19:00:00 3.86667 C 5.46 g/m*3 3.87